<?xml version="1.0" encoding="UTF-8" standalone="no" ?>
<gpx xmlns="http://www.topografix.com/GPX/1/1" xmlns:xsi="http://www.w3.org/2001/XMLSchema-instance" xsi:schemaLocation="http://www.topografix.com/GPX/1/1 http://www.topografix.com/GPX/1/1/gpx.xsd" version="1.1" creator="VisuGPX - https://www.visugpx.com">
  <metadata>
    <name>Cerisy montilly 42</name>
  </metadata>
  <trk>
    <name><![CDATA[Cerisy montilly 42_1]]></name>
    <trkseg>
      <trkpt lat="48.74799" lon="-0.57221">
        <ele>377</ele>
        <time>2013-07-05T11:37:41Z</time>
      </trkpt>
      <trkpt lat="48.74799" lon="-0.57221">
        <ele>377</ele>
        <time>2013-07-05T11:37:42Z</time>
      </trkpt>
      <trkpt lat="48.74799" lon="-0.57222">
        <ele>220.8</ele>
        <time>2013-07-05T11:37:46Z</time>
      </trkpt>
      <trkpt lat="48.74812" lon="-0.57202">
        <ele>221.2</ele>
        <time>2013-07-05T11:38:20Z</time>
      </trkpt>
      <trkpt lat="48.74801" lon="-0.57218">
        <ele>220.8</ele>
        <time>2013-07-05T11:38:55Z</time>
      </trkpt>
      <trkpt lat="48.74791" lon="-0.57223">
        <ele>221.2</ele>
        <time>2013-07-05T11:39:25Z</time>
      </trkpt>
      <trkpt lat="48.74805" lon="-0.57199">
        <ele>223.2</ele>
        <time>2013-07-05T11:39:50Z</time>
      </trkpt>
      <trkpt lat="48.74785" lon="-0.57196">
        <ele>222.6</ele>
        <time>2013-07-05T11:40:11Z</time>
      </trkpt>
      <trkpt lat="48.74781" lon="-0.57194">
        <ele>223.2</ele>
        <time>2013-07-05T11:40:36Z</time>
      </trkpt>
      <trkpt lat="48.74774" lon="-0.57195">
        <ele>223.2</ele>
        <time>2013-07-05T11:41:06Z</time>
      </trkpt>
      <trkpt lat="48.74773" lon="-0.57196">
        <ele>222.6</ele>
        <time>2013-07-05T11:41:35Z</time>
      </trkpt>
      <trkpt lat="48.74773" lon="-0.57194">
        <ele>222.6</ele>
        <time>2013-07-05T11:41:44Z</time>
      </trkpt>
      <trkpt lat="48.74775" lon="-0.57187">
        <ele>222.2</ele>
        <time>2013-07-05T11:41:48Z</time>
      </trkpt>
      <trkpt lat="48.74794" lon="-0.57148">
        <ele>223.6</ele>
        <time>2013-07-05T11:42:05Z</time>
      </trkpt>
      <trkpt lat="48.74816" lon="-0.57087">
        <ele>225</ele>
        <time>2013-07-05T11:42:20Z</time>
      </trkpt>
      <trkpt lat="48.74836" lon="-0.57024">
        <ele>228.4</ele>
        <time>2013-07-05T11:42:38Z</time>
      </trkpt>
      <trkpt lat="48.74844" lon="-0.57012">
        <ele>229</ele>
        <time>2013-07-05T11:42:43Z</time>
      </trkpt>
      <trkpt lat="48.74847" lon="-0.57012">
        <ele>229</ele>
        <time>2013-07-05T11:42:44Z</time>
      </trkpt>
      <trkpt lat="48.7485" lon="-0.57013">
        <ele>229</ele>
        <time>2013-07-05T11:42:45Z</time>
      </trkpt>
      <trkpt lat="48.74897" lon="-0.57035">
        <ele>228</ele>
        <time>2013-07-05T11:43:00Z</time>
      </trkpt>
      <trkpt lat="48.74906" lon="-0.57039">
        <ele>228.4</ele>
        <time>2013-07-05T11:43:02Z</time>
      </trkpt>
      <trkpt lat="48.74992" lon="-0.57098">
        <ele>229.4</ele>
        <time>2013-07-05T11:43:22Z</time>
      </trkpt>
      <trkpt lat="48.75" lon="-0.57103">
        <ele>229.4</ele>
        <time>2013-07-05T11:43:24Z</time>
      </trkpt>
      <trkpt lat="48.75005" lon="-0.57103">
        <ele>229.4</ele>
        <time>2013-07-05T11:43:25Z</time>
      </trkpt>
      <trkpt lat="48.75009" lon="-0.57101">
        <ele>229.4</ele>
        <time>2013-07-05T11:43:26Z</time>
      </trkpt>
      <trkpt lat="48.75012" lon="-0.57098">
        <ele>229.4</ele>
        <time>2013-07-05T11:43:27Z</time>
      </trkpt>
      <trkpt lat="48.75014" lon="-0.57095">
        <ele>230.4</ele>
        <time>2013-07-05T11:43:28Z</time>
      </trkpt>
      <trkpt lat="48.75047" lon="-0.57099">
        <ele>231.8</ele>
        <time>2013-07-05T11:43:38Z</time>
      </trkpt>
      <trkpt lat="48.75051" lon="-0.57104">
        <ele>231.8</ele>
        <time>2013-07-05T11:43:39Z</time>
      </trkpt>
      <trkpt lat="48.75054" lon="-0.57111">
        <ele>231.4</ele>
        <time>2013-07-05T11:43:40Z</time>
      </trkpt>
      <trkpt lat="48.75056" lon="-0.57119">
        <ele>231.4</ele>
        <time>2013-07-05T11:43:41Z</time>
      </trkpt>
      <trkpt lat="48.75057" lon="-0.57127">
        <ele>230.8</ele>
        <time>2013-07-05T11:43:42Z</time>
      </trkpt>
      <trkpt lat="48.75058" lon="-0.57135">
        <ele>230.4</ele>
        <time>2013-07-05T11:43:43Z</time>
      </trkpt>
      <trkpt lat="48.7506" lon="-0.57143">
        <ele>229.8</ele>
        <time>2013-07-05T11:43:44Z</time>
      </trkpt>
      <trkpt lat="48.75073" lon="-0.57171">
        <ele>229.4</ele>
        <time>2013-07-05T11:43:49Z</time>
      </trkpt>
      <trkpt lat="48.75095" lon="-0.57177">
        <ele>229.4</ele>
        <time>2013-07-05T11:43:53Z</time>
      </trkpt>
      <trkpt lat="48.75115" lon="-0.57189">
        <ele>228.4</ele>
        <time>2013-07-05T11:43:57Z</time>
      </trkpt>
      <trkpt lat="48.75176" lon="-0.57223">
        <ele>227.4</ele>
        <time>2013-07-05T11:44:08Z</time>
      </trkpt>
      <trkpt lat="48.7518" lon="-0.57226">
        <ele>228.4</ele>
        <time>2013-07-05T11:44:09Z</time>
      </trkpt>
      <trkpt lat="48.75252" lon="-0.57271">
        <ele>227</ele>
        <time>2013-07-05T11:44:26Z</time>
      </trkpt>
      <trkpt lat="48.75264" lon="-0.57269">
        <ele>226.6</ele>
        <time>2013-07-05T11:44:31Z</time>
      </trkpt>
      <trkpt lat="48.75265" lon="-0.57268">
        <ele>227</ele>
        <time>2013-07-05T11:44:32Z</time>
      </trkpt>
      <trkpt lat="48.75268" lon="-0.57265">
        <ele>227</ele>
        <time>2013-07-05T11:44:33Z</time>
      </trkpt>
      <trkpt lat="48.75271" lon="-0.57263">
        <ele>226.6</ele>
        <time>2013-07-05T11:44:34Z</time>
      </trkpt>
      <trkpt lat="48.75275" lon="-0.57264">
        <ele>227</ele>
        <time>2013-07-05T11:44:35Z</time>
      </trkpt>
      <trkpt lat="48.75286" lon="-0.57271">
        <ele>225.6</ele>
        <time>2013-07-05T11:44:38Z</time>
      </trkpt>
      <trkpt lat="48.75291" lon="-0.57274">
        <ele>224.6</ele>
        <time>2013-07-05T11:44:39Z</time>
      </trkpt>
      <trkpt lat="48.75297" lon="-0.57277">
        <ele>224.6</ele>
        <time>2013-07-05T11:44:40Z</time>
      </trkpt>
      <trkpt lat="48.75302" lon="-0.57281">
        <ele>224.6</ele>
        <time>2013-07-05T11:44:41Z</time>
      </trkpt>
      <trkpt lat="48.75372" lon="-0.57327">
        <ele>225</ele>
        <time>2013-07-05T11:44:52Z</time>
      </trkpt>
      <trkpt lat="48.75409" lon="-0.57352">
        <ele>228.4</ele>
        <time>2013-07-05T11:45:03Z</time>
      </trkpt>
      <trkpt lat="48.75413" lon="-0.57351">
        <ele>228</ele>
        <time>2013-07-05T11:45:06Z</time>
      </trkpt>
      <trkpt lat="48.75414" lon="-0.57348">
        <ele>228.4</ele>
        <time>2013-07-05T11:45:07Z</time>
      </trkpt>
      <trkpt lat="48.75442" lon="-0.57273">
        <ele>227</ele>
        <time>2013-07-05T11:45:23Z</time>
      </trkpt>
      <trkpt lat="48.75446" lon="-0.57264">
        <ele>227.4</ele>
        <time>2013-07-05T11:45:33Z</time>
      </trkpt>
      <trkpt lat="48.75446" lon="-0.57261">
        <ele>227.4</ele>
        <time>2013-07-05T11:45:45Z</time>
      </trkpt>
      <trkpt lat="48.75447" lon="-0.57261">
        <ele>227</ele>
        <time>2013-07-05T11:45:46Z</time>
      </trkpt>
      <trkpt lat="48.75449" lon="-0.57262">
        <ele>227.4</ele>
        <time>2013-07-05T11:45:47Z</time>
      </trkpt>
      <trkpt lat="48.75452" lon="-0.57264">
        <ele>227.4</ele>
        <time>2013-07-05T11:45:48Z</time>
      </trkpt>
      <trkpt lat="48.75456" lon="-0.57266">
        <ele>227</ele>
        <time>2013-07-05T11:45:49Z</time>
      </trkpt>
      <trkpt lat="48.7546" lon="-0.57269">
        <ele>228</ele>
        <time>2013-07-05T11:45:50Z</time>
      </trkpt>
      <trkpt lat="48.75506" lon="-0.573">
        <ele>229.4</ele>
        <time>2013-07-05T11:46:02Z</time>
      </trkpt>
      <trkpt lat="48.75514" lon="-0.57307">
        <ele>229.4</ele>
        <time>2013-07-05T11:46:04Z</time>
      </trkpt>
      <trkpt lat="48.75547" lon="-0.5734">
        <ele>229.8</ele>
        <time>2013-07-05T11:46:13Z</time>
      </trkpt>
      <trkpt lat="48.75551" lon="-0.57344">
        <ele>229.4</ele>
        <time>2013-07-05T11:46:14Z</time>
      </trkpt>
      <trkpt lat="48.75636" lon="-0.57427">
        <ele>230.4</ele>
        <time>2013-07-05T11:46:34Z</time>
      </trkpt>
      <trkpt lat="48.75704" lon="-0.57502">
        <ele>231.4</ele>
        <time>2013-07-05T11:46:51Z</time>
      </trkpt>
      <trkpt lat="48.75772" lon="-0.57576">
        <ele>229.4</ele>
        <time>2013-07-05T11:47:05Z</time>
      </trkpt>
      <trkpt lat="48.75802" lon="-0.57601">
        <ele>228</ele>
        <time>2013-07-05T11:47:10Z</time>
      </trkpt>
      <trkpt lat="48.75837" lon="-0.57625">
        <ele>227</ele>
        <time>2013-07-05T11:47:16Z</time>
      </trkpt>
      <trkpt lat="48.75839" lon="-0.57629">
        <ele>227</ele>
        <time>2013-07-05T11:47:17Z</time>
      </trkpt>
      <trkpt lat="48.75841" lon="-0.57633">
        <ele>227.4</ele>
        <time>2013-07-05T11:47:18Z</time>
      </trkpt>
      <trkpt lat="48.75842" lon="-0.57636">
        <ele>227.4</ele>
        <time>2013-07-05T11:47:19Z</time>
      </trkpt>
      <trkpt lat="48.75841" lon="-0.57639">
        <ele>227.4</ele>
        <time>2013-07-05T11:47:20Z</time>
      </trkpt>
      <trkpt lat="48.7584" lon="-0.57644">
        <ele>227.4</ele>
        <time>2013-07-05T11:47:21Z</time>
      </trkpt>
      <trkpt lat="48.75839" lon="-0.5765">
        <ele>226</ele>
        <time>2013-07-05T11:47:22Z</time>
      </trkpt>
      <trkpt lat="48.75821" lon="-0.57757">
        <ele>224.2</ele>
        <time>2013-07-05T11:47:34Z</time>
      </trkpt>
      <trkpt lat="48.75818" lon="-0.57781">
        <ele>223.6</ele>
        <time>2013-07-05T11:47:37Z</time>
      </trkpt>
      <trkpt lat="48.75816" lon="-0.57789">
        <ele>223.6</ele>
        <time>2013-07-05T11:47:38Z</time>
      </trkpt>
      <trkpt lat="48.75813" lon="-0.57795">
        <ele>223.2</ele>
        <time>2013-07-05T11:47:39Z</time>
      </trkpt>
      <trkpt lat="48.75773" lon="-0.57869">
        <ele>220.8</ele>
        <time>2013-07-05T11:47:50Z</time>
      </trkpt>
      <trkpt lat="48.7577" lon="-0.57877">
        <ele>220.2</ele>
        <time>2013-07-05T11:47:51Z</time>
      </trkpt>
      <trkpt lat="48.75765" lon="-0.57892">
        <ele>220.2</ele>
        <time>2013-07-05T11:47:53Z</time>
      </trkpt>
      <trkpt lat="48.75754" lon="-0.57948">
        <ele>217</ele>
        <time>2013-07-05T11:48:00Z</time>
      </trkpt>
      <trkpt lat="48.7575" lon="-0.57965">
        <ele>215.4</ele>
        <time>2013-07-05T11:48:02Z</time>
      </trkpt>
      <trkpt lat="48.75747" lon="-0.57984">
        <ele>216</ele>
        <time>2013-07-05T11:48:05Z</time>
      </trkpt>
      <trkpt lat="48.75749" lon="-0.57987">
        <ele>216</ele>
        <time>2013-07-05T11:48:06Z</time>
      </trkpt>
      <trkpt lat="48.7575" lon="-0.57989">
        <ele>216</ele>
        <time>2013-07-05T11:48:07Z</time>
      </trkpt>
      <trkpt lat="48.75792" lon="-0.57996">
        <ele>215.4</ele>
        <time>2013-07-05T11:48:16Z</time>
      </trkpt>
      <trkpt lat="48.75813" lon="-0.57997">
        <ele>215.4</ele>
        <time>2013-07-05T11:48:20Z</time>
      </trkpt>
      <trkpt lat="48.75886" lon="-0.58008">
        <ele>215</ele>
        <time>2013-07-05T11:48:34Z</time>
      </trkpt>
      <trkpt lat="48.75967" lon="-0.58029">
        <ele>215.4</ele>
        <time>2013-07-05T11:48:49Z</time>
      </trkpt>
      <trkpt lat="48.75987" lon="-0.58032">
        <ele>215.4</ele>
        <time>2013-07-05T11:48:55Z</time>
      </trkpt>
      <trkpt lat="48.75991" lon="-0.58033">
        <ele>215.4</ele>
        <time>2013-07-05T11:48:56Z</time>
      </trkpt>
      <trkpt lat="48.76003" lon="-0.58039">
        <ele>214.6</ele>
        <time>2013-07-05T11:48:59Z</time>
      </trkpt>
      <trkpt lat="48.76007" lon="-0.58043">
        <ele>214.6</ele>
        <time>2013-07-05T11:49:00Z</time>
      </trkpt>
      <trkpt lat="48.76027" lon="-0.58064">
        <ele>214.6</ele>
        <time>2013-07-05T11:49:06Z</time>
      </trkpt>
      <trkpt lat="48.76031" lon="-0.58068">
        <ele>214.6</ele>
        <time>2013-07-05T11:49:07Z</time>
      </trkpt>
      <trkpt lat="48.76035" lon="-0.58073">
        <ele>214</ele>
        <time>2013-07-05T11:49:08Z</time>
      </trkpt>
      <trkpt lat="48.76042" lon="-0.58083">
        <ele>214</ele>
        <time>2013-07-05T11:49:10Z</time>
      </trkpt>
      <trkpt lat="48.76046" lon="-0.58087">
        <ele>213.6</ele>
        <time>2013-07-05T11:49:11Z</time>
      </trkpt>
      <trkpt lat="48.76074" lon="-0.58118">
        <ele>214</ele>
        <time>2013-07-05T11:49:18Z</time>
      </trkpt>
      <trkpt lat="48.76078" lon="-0.58123">
        <ele>213.6</ele>
        <time>2013-07-05T11:49:19Z</time>
      </trkpt>
      <trkpt lat="48.76105" lon="-0.5816">
        <ele>213.6</ele>
        <time>2013-07-05T11:49:26Z</time>
      </trkpt>
      <trkpt lat="48.76109" lon="-0.58164">
        <ele>214</ele>
        <time>2013-07-05T11:49:27Z</time>
      </trkpt>
      <trkpt lat="48.76114" lon="-0.58168">
        <ele>214</ele>
        <time>2013-07-05T11:49:28Z</time>
      </trkpt>
      <trkpt lat="48.76123" lon="-0.58176">
        <ele>214</ele>
        <time>2013-07-05T11:49:30Z</time>
      </trkpt>
      <trkpt lat="48.76128" lon="-0.5818">
        <ele>214</ele>
        <time>2013-07-05T11:49:31Z</time>
      </trkpt>
      <trkpt lat="48.76133" lon="-0.58182">
        <ele>214</ele>
        <time>2013-07-05T11:49:32Z</time>
      </trkpt>
      <trkpt lat="48.76138" lon="-0.58183">
        <ele>213.6</ele>
        <time>2013-07-05T11:49:33Z</time>
      </trkpt>
      <trkpt lat="48.76143" lon="-0.58184">
        <ele>213.6</ele>
        <time>2013-07-05T11:49:34Z</time>
      </trkpt>
      <trkpt lat="48.76148" lon="-0.58184">
        <ele>213.6</ele>
        <time>2013-07-05T11:49:35Z</time>
      </trkpt>
      <trkpt lat="48.76185" lon="-0.58189">
        <ele>214</ele>
        <time>2013-07-05T11:49:42Z</time>
      </trkpt>
      <trkpt lat="48.76191" lon="-0.58191">
        <ele>214</ele>
        <time>2013-07-05T11:49:43Z</time>
      </trkpt>
      <trkpt lat="48.7624" lon="-0.58209">
        <ele>213</ele>
        <time>2013-07-05T11:49:52Z</time>
      </trkpt>
      <trkpt lat="48.76293" lon="-0.5824">
        <ele>213.6</ele>
        <time>2013-07-05T11:50:02Z</time>
      </trkpt>
      <trkpt lat="48.76339" lon="-0.58281">
        <ele>213.6</ele>
        <time>2013-07-05T11:50:13Z</time>
      </trkpt>
      <trkpt lat="48.76354" lon="-0.58298">
        <ele>214</ele>
        <time>2013-07-05T11:50:17Z</time>
      </trkpt>
      <trkpt lat="48.76358" lon="-0.58304">
        <ele>213.6</ele>
        <time>2013-07-05T11:50:18Z</time>
      </trkpt>
      <trkpt lat="48.7641" lon="-0.58399">
        <ele>213</ele>
        <time>2013-07-05T11:50:32Z</time>
      </trkpt>
      <trkpt lat="48.76457" lon="-0.5847">
        <ele>213</ele>
        <time>2013-07-05T11:50:44Z</time>
      </trkpt>
      <trkpt lat="48.76461" lon="-0.58472">
        <ele>213</ele>
        <time>2013-07-05T11:50:45Z</time>
      </trkpt>
      <trkpt lat="48.76465" lon="-0.58472">
        <ele>213.6</ele>
        <time>2013-07-05T11:50:46Z</time>
      </trkpt>
      <trkpt lat="48.76469" lon="-0.58471">
        <ele>213.6</ele>
        <time>2013-07-05T11:50:47Z</time>
      </trkpt>
      <trkpt lat="48.76473" lon="-0.5847">
        <ele>213.6</ele>
        <time>2013-07-05T11:50:48Z</time>
      </trkpt>
      <trkpt lat="48.76477" lon="-0.58469">
        <ele>214</ele>
        <time>2013-07-05T11:50:49Z</time>
      </trkpt>
      <trkpt lat="48.76536" lon="-0.58451">
        <ele>214</ele>
        <time>2013-07-05T11:51:05Z</time>
      </trkpt>
      <trkpt lat="48.76542" lon="-0.58443">
        <ele>216</ele>
        <time>2013-07-05T11:51:08Z</time>
      </trkpt>
      <trkpt lat="48.76541" lon="-0.58439">
        <ele>215.4</ele>
        <time>2013-07-05T11:51:09Z</time>
      </trkpt>
      <trkpt lat="48.76539" lon="-0.58433">
        <ele>215.4</ele>
        <time>2013-07-05T11:51:10Z</time>
      </trkpt>
      <trkpt lat="48.76516" lon="-0.58378">
        <ele>217.4</ele>
        <time>2013-07-05T11:51:20Z</time>
      </trkpt>
      <trkpt lat="48.76517" lon="-0.58373">
        <ele>217.8</ele>
        <time>2013-07-05T11:51:21Z</time>
      </trkpt>
      <trkpt lat="48.76517" lon="-0.58368">
        <ele>218.4</ele>
        <time>2013-07-05T11:51:22Z</time>
      </trkpt>
      <trkpt lat="48.76517" lon="-0.58364">
        <ele>218.8</ele>
        <time>2013-07-05T11:51:23Z</time>
      </trkpt>
      <trkpt lat="48.76515" lon="-0.58361">
        <ele>219.4</ele>
        <time>2013-07-05T11:51:24Z</time>
      </trkpt>
      <trkpt lat="48.76506" lon="-0.58325">
        <ele>221.2</ele>
        <time>2013-07-05T11:51:32Z</time>
      </trkpt>
      <trkpt lat="48.76503" lon="-0.58294">
        <ele>222.6</ele>
        <time>2013-07-05T11:51:37Z</time>
      </trkpt>
      <trkpt lat="48.76503" lon="-0.58288">
        <ele>223.6</ele>
        <time>2013-07-05T11:51:38Z</time>
      </trkpt>
      <trkpt lat="48.76496" lon="-0.58196">
        <ele>226.6</ele>
        <time>2013-07-05T11:51:50Z</time>
      </trkpt>
      <trkpt lat="48.76474" lon="-0.5809">
        <ele>229</ele>
        <time>2013-07-05T11:52:04Z</time>
      </trkpt>
      <trkpt lat="48.76454" lon="-0.58014">
        <ele>231.8</ele>
        <time>2013-07-05T11:52:17Z</time>
      </trkpt>
      <trkpt lat="48.76436" lon="-0.57949">
        <ele>235.2</ele>
        <time>2013-07-05T11:52:26Z</time>
      </trkpt>
      <trkpt lat="48.76427" lon="-0.579">
        <ele>237.6</ele>
        <time>2013-07-05T11:52:34Z</time>
      </trkpt>
      <trkpt lat="48.76415" lon="-0.57841">
        <ele>240.4</ele>
        <time>2013-07-05T11:52:43Z</time>
      </trkpt>
      <trkpt lat="48.76404" lon="-0.5776">
        <ele>242</ele>
        <time>2013-07-05T11:52:56Z</time>
      </trkpt>
      <trkpt lat="48.76392" lon="-0.57676">
        <ele>244.4</ele>
        <time>2013-07-05T11:53:12Z</time>
      </trkpt>
      <trkpt lat="48.76379" lon="-0.57573">
        <ele>243.4</ele>
        <time>2013-07-05T11:53:28Z</time>
      </trkpt>
      <trkpt lat="48.76375" lon="-0.57489">
        <ele>241.4</ele>
        <time>2013-07-05T11:53:41Z</time>
      </trkpt>
      <trkpt lat="48.7638" lon="-0.57417">
        <ele>240.4</ele>
        <time>2013-07-05T11:53:53Z</time>
      </trkpt>
      <trkpt lat="48.76387" lon="-0.57337">
        <ele>239.6</ele>
        <time>2013-07-05T11:54:04Z</time>
      </trkpt>
      <trkpt lat="48.76391" lon="-0.57314">
        <ele>240</ele>
        <time>2013-07-05T11:54:17Z</time>
      </trkpt>
      <trkpt lat="48.7639" lon="-0.57297">
        <ele>239.6</ele>
        <time>2013-07-05T11:54:38Z</time>
      </trkpt>
      <trkpt lat="48.76375" lon="-0.57234">
        <ele>239.6</ele>
        <time>2013-07-05T11:54:50Z</time>
      </trkpt>
      <trkpt lat="48.76356" lon="-0.57164">
        <ele>241</ele>
        <time>2013-07-05T11:55:04Z</time>
      </trkpt>
      <trkpt lat="48.76335" lon="-0.57108">
        <ele>242.8</ele>
        <time>2013-07-05T11:55:16Z</time>
      </trkpt>
      <trkpt lat="48.76336" lon="-0.57043">
        <ele>245.8</ele>
        <time>2013-07-05T11:55:28Z</time>
      </trkpt>
      <trkpt lat="48.76337" lon="-0.57037">
        <ele>245.8</ele>
        <time>2013-07-05T11:55:29Z</time>
      </trkpt>
      <trkpt lat="48.7634" lon="-0.56969">
        <ele>249.2</ele>
        <time>2013-07-05T11:55:39Z</time>
      </trkpt>
      <trkpt lat="48.76341" lon="-0.56918">
        <ele>252</ele>
        <time>2013-07-05T11:55:47Z</time>
      </trkpt>
      <trkpt lat="48.7635" lon="-0.56814">
        <ele>254.4</ele>
        <time>2013-07-05T11:55:58Z</time>
      </trkpt>
      <trkpt lat="48.7636" lon="-0.56701">
        <ele>256.4</ele>
        <time>2013-07-05T11:56:12Z</time>
      </trkpt>
      <trkpt lat="48.76361" lon="-0.56644">
        <ele>259.2</ele>
        <time>2013-07-05T11:56:22Z</time>
      </trkpt>
      <trkpt lat="48.76362" lon="-0.56624">
        <ele>260.6</ele>
        <time>2013-07-05T11:56:33Z</time>
      </trkpt>
      <trkpt lat="48.76364" lon="-0.56598">
        <ele>260.6</ele>
        <time>2013-07-05T11:56:41Z</time>
      </trkpt>
      <trkpt lat="48.76366" lon="-0.56536">
        <ele>263.6</ele>
        <time>2013-07-05T11:56:53Z</time>
      </trkpt>
      <trkpt lat="48.7637" lon="-0.56494">
        <ele>266.4</ele>
        <time>2013-07-05T11:57:01Z</time>
      </trkpt>
      <trkpt lat="48.76371" lon="-0.56484">
        <ele>267.4</ele>
        <time>2013-07-05T11:57:03Z</time>
      </trkpt>
      <trkpt lat="48.76378" lon="-0.56433">
        <ele>268.4</ele>
        <time>2013-07-05T11:57:10Z</time>
      </trkpt>
      <trkpt lat="48.76389" lon="-0.56354">
        <ele>268.8</ele>
        <time>2013-07-05T11:57:23Z</time>
      </trkpt>
      <trkpt lat="48.7639" lon="-0.56335">
        <ele>268.8</ele>
        <time>2013-07-05T11:57:26Z</time>
      </trkpt>
      <trkpt lat="48.76394" lon="-0.56298">
        <ele>267.4</ele>
        <time>2013-07-05T11:57:31Z</time>
      </trkpt>
      <trkpt lat="48.764" lon="-0.56243">
        <ele>266.4</ele>
        <time>2013-07-05T11:57:43Z</time>
      </trkpt>
      <trkpt lat="48.76402" lon="-0.56244">
        <ele>267.4</ele>
        <time>2013-07-05T11:57:44Z</time>
      </trkpt>
      <trkpt lat="48.76405" lon="-0.56246">
        <ele>267</ele>
        <time>2013-07-05T11:57:45Z</time>
      </trkpt>
      <trkpt lat="48.76408" lon="-0.5625">
        <ele>266.4</ele>
        <time>2013-07-05T11:57:46Z</time>
      </trkpt>
      <trkpt lat="48.76412" lon="-0.56255">
        <ele>266.4</ele>
        <time>2013-07-05T11:57:47Z</time>
      </trkpt>
      <trkpt lat="48.76436" lon="-0.56273">
        <ele>265.4</ele>
        <time>2013-07-05T11:57:52Z</time>
      </trkpt>
      <trkpt lat="48.76442" lon="-0.56275">
        <ele>265.4</ele>
        <time>2013-07-05T11:57:53Z</time>
      </trkpt>
      <trkpt lat="48.76448" lon="-0.56277">
        <ele>265</ele>
        <time>2013-07-05T11:57:54Z</time>
      </trkpt>
      <trkpt lat="48.76455" lon="-0.56278">
        <ele>265</ele>
        <time>2013-07-05T11:57:55Z</time>
      </trkpt>
      <trkpt lat="48.76461" lon="-0.56278">
        <ele>264</ele>
        <time>2013-07-05T11:57:56Z</time>
      </trkpt>
      <trkpt lat="48.76468" lon="-0.56278">
        <ele>264</ele>
        <time>2013-07-05T11:57:57Z</time>
      </trkpt>
      <trkpt lat="48.76482" lon="-0.5628">
        <ele>263</ele>
        <time>2013-07-05T11:57:59Z</time>
      </trkpt>
      <trkpt lat="48.76489" lon="-0.56283">
        <ele>263.6</ele>
        <time>2013-07-05T11:58:00Z</time>
      </trkpt>
      <trkpt lat="48.76496" lon="-0.56287">
        <ele>262.6</ele>
        <time>2013-07-05T11:58:01Z</time>
      </trkpt>
      <trkpt lat="48.76502" lon="-0.56292">
        <ele>262.6</ele>
        <time>2013-07-05T11:58:02Z</time>
      </trkpt>
      <trkpt lat="48.76508" lon="-0.56298">
        <ele>262.2</ele>
        <time>2013-07-05T11:58:03Z</time>
      </trkpt>
      <trkpt lat="48.76514" lon="-0.56305">
        <ele>262.2</ele>
        <time>2013-07-05T11:58:04Z</time>
      </trkpt>
      <trkpt lat="48.76557" lon="-0.56357">
        <ele>260.2</ele>
        <time>2013-07-05T11:58:11Z</time>
      </trkpt>
      <trkpt lat="48.76662" lon="-0.56486">
        <ele>256.8</ele>
        <time>2013-07-05T11:58:28Z</time>
      </trkpt>
      <trkpt lat="48.76668" lon="-0.56491">
        <ele>256.8</ele>
        <time>2013-07-05T11:58:29Z</time>
      </trkpt>
      <trkpt lat="48.76674" lon="-0.56493">
        <ele>256.8</ele>
        <time>2013-07-05T11:58:30Z</time>
      </trkpt>
      <trkpt lat="48.76679" lon="-0.56494">
        <ele>256.8</ele>
        <time>2013-07-05T11:58:31Z</time>
      </trkpt>
      <trkpt lat="48.76685" lon="-0.56491">
        <ele>257.2</ele>
        <time>2013-07-05T11:58:32Z</time>
      </trkpt>
      <trkpt lat="48.76693" lon="-0.56486">
        <ele>257.2</ele>
        <time>2013-07-05T11:58:33Z</time>
      </trkpt>
      <trkpt lat="48.76738" lon="-0.56462">
        <ele>257.8</ele>
        <time>2013-07-05T11:58:40Z</time>
      </trkpt>
      <trkpt lat="48.76745" lon="-0.5646">
        <ele>257.8</ele>
        <time>2013-07-05T11:58:41Z</time>
      </trkpt>
      <trkpt lat="48.76751" lon="-0.56461">
        <ele>257.8</ele>
        <time>2013-07-05T11:58:42Z</time>
      </trkpt>
      <trkpt lat="48.76764" lon="-0.56461">
        <ele>258.2</ele>
        <time>2013-07-05T11:58:44Z</time>
      </trkpt>
      <trkpt lat="48.7677" lon="-0.56458">
        <ele>257.8</ele>
        <time>2013-07-05T11:58:45Z</time>
      </trkpt>
      <trkpt lat="48.76776" lon="-0.56454">
        <ele>257.8</ele>
        <time>2013-07-05T11:58:46Z</time>
      </trkpt>
      <trkpt lat="48.76782" lon="-0.56449">
        <ele>257.8</ele>
        <time>2013-07-05T11:58:47Z</time>
      </trkpt>
      <trkpt lat="48.76788" lon="-0.56446">
        <ele>257.8</ele>
        <time>2013-07-05T11:58:48Z</time>
      </trkpt>
      <trkpt lat="48.76795" lon="-0.56443">
        <ele>257.8</ele>
        <time>2013-07-05T11:58:49Z</time>
      </trkpt>
      <trkpt lat="48.76801" lon="-0.5644">
        <ele>257.2</ele>
        <time>2013-07-05T11:58:50Z</time>
      </trkpt>
      <trkpt lat="48.76875" lon="-0.56411">
        <ele>257.2</ele>
        <time>2013-07-05T11:59:02Z</time>
      </trkpt>
      <trkpt lat="48.7692" lon="-0.56398">
        <ele>258.8</ele>
        <time>2013-07-05T11:59:10Z</time>
      </trkpt>
      <trkpt lat="48.76924" lon="-0.56395">
        <ele>258.8</ele>
        <time>2013-07-05T11:59:11Z</time>
      </trkpt>
      <trkpt lat="48.76929" lon="-0.56392">
        <ele>258.8</ele>
        <time>2013-07-05T11:59:12Z</time>
      </trkpt>
      <trkpt lat="48.76979" lon="-0.56361">
        <ele>257.8</ele>
        <time>2013-07-05T11:59:21Z</time>
      </trkpt>
      <trkpt lat="48.76983" lon="-0.5636">
        <ele>257.8</ele>
        <time>2013-07-05T11:59:22Z</time>
      </trkpt>
      <trkpt lat="48.76987" lon="-0.56359">
        <ele>257.8</ele>
        <time>2013-07-05T11:59:23Z</time>
      </trkpt>
      <trkpt lat="48.76991" lon="-0.56357">
        <ele>257.2</ele>
        <time>2013-07-05T11:59:24Z</time>
      </trkpt>
      <trkpt lat="48.76995" lon="-0.56356">
        <ele>257.2</ele>
        <time>2013-07-05T11:59:25Z</time>
      </trkpt>
      <trkpt lat="48.77058" lon="-0.5634">
        <ele>256.8</ele>
        <time>2013-07-05T11:59:38Z</time>
      </trkpt>
      <trkpt lat="48.77099" lon="-0.56326">
        <ele>255.4</ele>
        <time>2013-07-05T11:59:48Z</time>
      </trkpt>
      <trkpt lat="48.77101" lon="-0.56321">
        <ele>256.4</ele>
        <time>2013-07-05T11:59:49Z</time>
      </trkpt>
      <trkpt lat="48.77102" lon="-0.56315">
        <ele>255.8</ele>
        <time>2013-07-05T11:59:50Z</time>
      </trkpt>
      <trkpt lat="48.77103" lon="-0.56309">
        <ele>254.8</ele>
        <time>2013-07-05T11:59:51Z</time>
      </trkpt>
      <trkpt lat="48.77103" lon="-0.56302">
        <ele>254.4</ele>
        <time>2013-07-05T11:59:52Z</time>
      </trkpt>
      <trkpt lat="48.77102" lon="-0.56295">
        <ele>254.4</ele>
        <time>2013-07-05T11:59:53Z</time>
      </trkpt>
      <trkpt lat="48.77098" lon="-0.56251">
        <ele>251</ele>
        <time>2013-07-05T12:00:00Z</time>
      </trkpt>
      <trkpt lat="48.77097" lon="-0.56178">
        <ele>247.6</ele>
        <time>2013-07-05T12:00:09Z</time>
      </trkpt>
      <trkpt lat="48.77098" lon="-0.56169">
        <ele>246.8</ele>
        <time>2013-07-05T12:00:10Z</time>
      </trkpt>
      <trkpt lat="48.77101" lon="-0.56158">
        <ele>246.2</ele>
        <time>2013-07-05T12:00:11Z</time>
      </trkpt>
      <trkpt lat="48.77105" lon="-0.56147">
        <ele>245.2</ele>
        <time>2013-07-05T12:00:12Z</time>
      </trkpt>
      <trkpt lat="48.77133" lon="-0.56091">
        <ele>242</ele>
        <time>2013-07-05T12:00:17Z</time>
      </trkpt>
      <trkpt lat="48.77143" lon="-0.56069">
        <ele>240.4</ele>
        <time>2013-07-05T12:00:19Z</time>
      </trkpt>
      <trkpt lat="48.77146" lon="-0.56057">
        <ele>239.6</ele>
        <time>2013-07-05T12:00:20Z</time>
      </trkpt>
      <trkpt lat="48.77157" lon="-0.55994">
        <ele>239</ele>
        <time>2013-07-05T12:00:25Z</time>
      </trkpt>
      <trkpt lat="48.77156" lon="-0.55982">
        <ele>239.6</ele>
        <time>2013-07-05T12:00:26Z</time>
      </trkpt>
      <trkpt lat="48.77155" lon="-0.5596">
        <ele>240.4</ele>
        <time>2013-07-05T12:00:28Z</time>
      </trkpt>
      <trkpt lat="48.77149" lon="-0.55929">
        <ele>242</ele>
        <time>2013-07-05T12:00:32Z</time>
      </trkpt>
      <trkpt lat="48.77146" lon="-0.55924">
        <ele>242.4</ele>
        <time>2013-07-05T12:00:33Z</time>
      </trkpt>
      <trkpt lat="48.77141" lon="-0.55919">
        <ele>242.4</ele>
        <time>2013-07-05T12:00:34Z</time>
      </trkpt>
      <trkpt lat="48.77107" lon="-0.55884">
        <ele>245.8</ele>
        <time>2013-07-05T12:00:41Z</time>
      </trkpt>
      <trkpt lat="48.7707" lon="-0.55852">
        <ele>249.2</ele>
        <time>2013-07-05T12:00:50Z</time>
      </trkpt>
      <trkpt lat="48.77031" lon="-0.55825">
        <ele>251.6</ele>
        <time>2013-07-05T12:01:02Z</time>
      </trkpt>
      <trkpt lat="48.76982" lon="-0.55803">
        <ele>254.8</ele>
        <time>2013-07-05T12:01:17Z</time>
      </trkpt>
      <trkpt lat="48.7696" lon="-0.55795">
        <ele>255.4</ele>
        <time>2013-07-05T12:01:23Z</time>
      </trkpt>
      <trkpt lat="48.76956" lon="-0.55795">
        <ele>255.4</ele>
        <time>2013-07-05T12:01:24Z</time>
      </trkpt>
      <trkpt lat="48.76941" lon="-0.55791">
        <ele>255.8</ele>
        <time>2013-07-05T12:01:28Z</time>
      </trkpt>
      <trkpt lat="48.76938" lon="-0.55787">
        <ele>256.4</ele>
        <time>2013-07-05T12:01:29Z</time>
      </trkpt>
      <trkpt lat="48.76938" lon="-0.55782">
        <ele>255.8</ele>
        <time>2013-07-05T12:01:30Z</time>
      </trkpt>
      <trkpt lat="48.76939" lon="-0.55778">
        <ele>255.8</ele>
        <time>2013-07-05T12:01:31Z</time>
      </trkpt>
      <trkpt lat="48.76942" lon="-0.55773">
        <ele>255.8</ele>
        <time>2013-07-05T12:01:32Z</time>
      </trkpt>
      <trkpt lat="48.76959" lon="-0.55746">
        <ele>254.8</ele>
        <time>2013-07-05T12:01:37Z</time>
      </trkpt>
      <trkpt lat="48.76995" lon="-0.55667">
        <ele>251.6</ele>
        <time>2013-07-05T12:01:48Z</time>
      </trkpt>
      <trkpt lat="48.77024" lon="-0.556">
        <ele>248.2</ele>
        <time>2013-07-05T12:01:56Z</time>
      </trkpt>
      <trkpt lat="48.77043" lon="-0.55552">
        <ele>249.2</ele>
        <time>2013-07-05T12:02:02Z</time>
      </trkpt>
      <trkpt lat="48.77046" lon="-0.55547">
        <ele>249.6</ele>
        <time>2013-07-05T12:02:03Z</time>
      </trkpt>
      <trkpt lat="48.7705" lon="-0.55546">
        <ele>249.6</ele>
        <time>2013-07-05T12:02:04Z</time>
      </trkpt>
      <trkpt lat="48.77054" lon="-0.55549">
        <ele>249.6</ele>
        <time>2013-07-05T12:02:05Z</time>
      </trkpt>
      <trkpt lat="48.77058" lon="-0.55555">
        <ele>249.6</ele>
        <time>2013-07-05T12:02:06Z</time>
      </trkpt>
      <trkpt lat="48.77061" lon="-0.55563">
        <ele>248.6</ele>
        <time>2013-07-05T12:02:07Z</time>
      </trkpt>
      <trkpt lat="48.77064" lon="-0.55571">
        <ele>248.2</ele>
        <time>2013-07-05T12:02:08Z</time>
      </trkpt>
      <trkpt lat="48.77067" lon="-0.55579">
        <ele>247.6</ele>
        <time>2013-07-05T12:02:09Z</time>
      </trkpt>
      <trkpt lat="48.77119" lon="-0.55657">
        <ele>244.8</ele>
        <time>2013-07-05T12:02:20Z</time>
      </trkpt>
      <trkpt lat="48.77142" lon="-0.55689">
        <ele>244.8</ele>
        <time>2013-07-05T12:02:25Z</time>
      </trkpt>
      <trkpt lat="48.77146" lon="-0.55697">
        <ele>244.4</ele>
        <time>2013-07-05T12:02:26Z</time>
      </trkpt>
      <trkpt lat="48.77148" lon="-0.55705">
        <ele>244.4</ele>
        <time>2013-07-05T12:02:27Z</time>
      </trkpt>
      <trkpt lat="48.77152" lon="-0.55718">
        <ele>244.4</ele>
        <time>2013-07-05T12:02:29Z</time>
      </trkpt>
      <trkpt lat="48.77155" lon="-0.55722">
        <ele>244.8</ele>
        <time>2013-07-05T12:02:30Z</time>
      </trkpt>
      <trkpt lat="48.77158" lon="-0.55724">
        <ele>244.4</ele>
        <time>2013-07-05T12:02:31Z</time>
      </trkpt>
      <trkpt lat="48.77162" lon="-0.55725">
        <ele>244.8</ele>
        <time>2013-07-05T12:02:32Z</time>
      </trkpt>
      <trkpt lat="48.77167" lon="-0.55725">
        <ele>244.4</ele>
        <time>2013-07-05T12:02:33Z</time>
      </trkpt>
      <trkpt lat="48.77172" lon="-0.55724">
        <ele>244.4</ele>
        <time>2013-07-05T12:02:34Z</time>
      </trkpt>
      <trkpt lat="48.77211" lon="-0.55707">
        <ele>247.2</ele>
        <time>2013-07-05T12:02:45Z</time>
      </trkpt>
      <trkpt lat="48.77212" lon="-0.55664">
        <ele>250.6</ele>
        <time>2013-07-05T12:02:54Z</time>
      </trkpt>
      <trkpt lat="48.77211" lon="-0.55659">
        <ele>251</ele>
        <time>2013-07-05T12:02:55Z</time>
      </trkpt>
      <trkpt lat="48.77203" lon="-0.55631">
        <ele>254.4</ele>
        <time>2013-07-05T12:03:00Z</time>
      </trkpt>
      <trkpt lat="48.77196" lon="-0.55617">
        <ele>255.4</ele>
        <time>2013-07-05T12:03:02Z</time>
      </trkpt>
      <trkpt lat="48.77192" lon="-0.55602">
        <ele>256.8</ele>
        <time>2013-07-05T12:03:04Z</time>
      </trkpt>
      <trkpt lat="48.7719" lon="-0.55594">
        <ele>257.2</ele>
        <time>2013-07-05T12:03:05Z</time>
      </trkpt>
      <trkpt lat="48.77184" lon="-0.5554">
        <ele>260.2</ele>
        <time>2013-07-05T12:03:12Z</time>
      </trkpt>
      <trkpt lat="48.77183" lon="-0.55526">
        <ele>261.2</ele>
        <time>2013-07-05T12:03:14Z</time>
      </trkpt>
      <trkpt lat="48.77179" lon="-0.55499">
        <ele>263</ele>
        <time>2013-07-05T12:03:18Z</time>
      </trkpt>
      <trkpt lat="48.77179" lon="-0.55418">
        <ele>266</ele>
        <time>2013-07-05T12:03:30Z</time>
      </trkpt>
      <trkpt lat="48.77176" lon="-0.55338">
        <ele>269.4</ele>
        <time>2013-07-05T12:03:42Z</time>
      </trkpt>
      <trkpt lat="48.77175" lon="-0.55268">
        <ele>269.4</ele>
        <time>2013-07-05T12:03:55Z</time>
      </trkpt>
      <trkpt lat="48.77177" lon="-0.55256">
        <ele>269.4</ele>
        <time>2013-07-05T12:03:57Z</time>
      </trkpt>
      <trkpt lat="48.77191" lon="-0.5514">
        <ele>267.8</ele>
        <time>2013-07-05T12:04:12Z</time>
      </trkpt>
      <trkpt lat="48.77186" lon="-0.5511">
        <ele>267.4</ele>
        <time>2013-07-05T12:04:18Z</time>
      </trkpt>
      <trkpt lat="48.77186" lon="-0.55104">
        <ele>267.4</ele>
        <time>2013-07-05T12:04:19Z</time>
      </trkpt>
      <trkpt lat="48.77187" lon="-0.55097">
        <ele>267</ele>
        <time>2013-07-05T12:04:20Z</time>
      </trkpt>
      <trkpt lat="48.77188" lon="-0.5509">
        <ele>267.4</ele>
        <time>2013-07-05T12:04:21Z</time>
      </trkpt>
      <trkpt lat="48.77189" lon="-0.55083">
        <ele>267.4</ele>
        <time>2013-07-05T12:04:22Z</time>
      </trkpt>
      <trkpt lat="48.77191" lon="-0.55076">
        <ele>267.8</ele>
        <time>2013-07-05T12:04:23Z</time>
      </trkpt>
      <trkpt lat="48.77193" lon="-0.55069">
        <ele>267.4</ele>
        <time>2013-07-05T12:04:24Z</time>
      </trkpt>
      <trkpt lat="48.77223" lon="-0.54975">
        <ele>270.2</ele>
        <time>2013-07-05T12:04:37Z</time>
      </trkpt>
      <trkpt lat="48.77252" lon="-0.5485">
        <ele>273.2</ele>
        <time>2013-07-05T12:04:53Z</time>
      </trkpt>
      <trkpt lat="48.77305" lon="-0.54703">
        <ele>275</ele>
        <time>2013-07-05T12:05:12Z</time>
      </trkpt>
      <trkpt lat="48.77329" lon="-0.54646">
        <ele>274.6</ele>
        <time>2013-07-05T12:05:19Z</time>
      </trkpt>
      <trkpt lat="48.77332" lon="-0.54637">
        <ele>274.6</ele>
        <time>2013-07-05T12:05:20Z</time>
      </trkpt>
      <trkpt lat="48.77334" lon="-0.54628">
        <ele>274.2</ele>
        <time>2013-07-05T12:05:21Z</time>
      </trkpt>
      <trkpt lat="48.77335" lon="-0.54619">
        <ele>274.6</ele>
        <time>2013-07-05T12:05:22Z</time>
      </trkpt>
      <trkpt lat="48.77335" lon="-0.5461">
        <ele>274.2</ele>
        <time>2013-07-05T12:05:23Z</time>
      </trkpt>
      <trkpt lat="48.77334" lon="-0.54602">
        <ele>273.6</ele>
        <time>2013-07-05T12:05:24Z</time>
      </trkpt>
      <trkpt lat="48.7733" lon="-0.54593">
        <ele>273.2</ele>
        <time>2013-07-05T12:05:25Z</time>
      </trkpt>
      <trkpt lat="48.77319" lon="-0.54584">
        <ele>273.2</ele>
        <time>2013-07-05T12:05:26Z</time>
      </trkpt>
      <trkpt lat="48.77305" lon="-0.54563">
        <ele>271.8</ele>
        <time>2013-07-05T12:05:28Z</time>
      </trkpt>
      <trkpt lat="48.77301" lon="-0.54552">
        <ele>271.2</ele>
        <time>2013-07-05T12:05:29Z</time>
      </trkpt>
      <trkpt lat="48.77298" lon="-0.5454">
        <ele>271.2</ele>
        <time>2013-07-05T12:05:30Z</time>
      </trkpt>
      <trkpt lat="48.77297" lon="-0.54528">
        <ele>271.2</ele>
        <time>2013-07-05T12:05:31Z</time>
      </trkpt>
      <trkpt lat="48.77297" lon="-0.54515">
        <ele>271.8</ele>
        <time>2013-07-05T12:05:32Z</time>
      </trkpt>
      <trkpt lat="48.77297" lon="-0.54503">
        <ele>271.8</ele>
        <time>2013-07-05T12:05:33Z</time>
      </trkpt>
      <trkpt lat="48.77297" lon="-0.54491">
        <ele>272.2</ele>
        <time>2013-07-05T12:05:34Z</time>
      </trkpt>
      <trkpt lat="48.77295" lon="-0.54427">
        <ele>275</ele>
        <time>2013-07-05T12:05:41Z</time>
      </trkpt>
      <trkpt lat="48.77298" lon="-0.54357">
        <ele>278.4</ele>
        <time>2013-07-05T12:05:51Z</time>
      </trkpt>
      <trkpt lat="48.773" lon="-0.54358">
        <ele>278.4</ele>
        <time>2013-07-05T12:05:52Z</time>
      </trkpt>
      <trkpt lat="48.77338" lon="-0.54387">
        <ele>278.4</ele>
        <time>2013-07-05T12:06:02Z</time>
      </trkpt>
      <trkpt lat="48.77347" lon="-0.54394">
        <ele>279</ele>
        <time>2013-07-05T12:06:04Z</time>
      </trkpt>
      <trkpt lat="48.77392" lon="-0.54431">
        <ele>279.4</ele>
        <time>2013-07-05T12:06:14Z</time>
      </trkpt>
      <trkpt lat="48.77395" lon="-0.54436">
        <ele>280.4</ele>
        <time>2013-07-05T12:06:15Z</time>
      </trkpt>
      <trkpt lat="48.7742" lon="-0.54464">
        <ele>280.8</ele>
        <time>2013-07-05T12:06:21Z</time>
      </trkpt>
      <trkpt lat="48.77469" lon="-0.5452">
        <ele>280.4</ele>
        <time>2013-07-05T12:06:32Z</time>
      </trkpt>
      <trkpt lat="48.77486" lon="-0.54556">
        <ele>281.4</ele>
        <time>2013-07-05T12:06:37Z</time>
      </trkpt>
      <trkpt lat="48.77517" lon="-0.54654">
        <ele>282.2</ele>
        <time>2013-07-05T12:06:49Z</time>
      </trkpt>
      <trkpt lat="48.77539" lon="-0.54706">
        <ele>283.2</ele>
        <time>2013-07-05T12:06:56Z</time>
      </trkpt>
      <trkpt lat="48.77565" lon="-0.54763">
        <ele>283.8</ele>
        <time>2013-07-05T12:07:06Z</time>
      </trkpt>
      <trkpt lat="48.77608" lon="-0.54846">
        <ele>285.2</ele>
        <time>2013-07-05T12:07:19Z</time>
      </trkpt>
      <trkpt lat="48.77622" lon="-0.5487">
        <ele>285.6</ele>
        <time>2013-07-05T12:07:23Z</time>
      </trkpt>
      <trkpt lat="48.77631" lon="-0.54888">
        <ele>287.6</ele>
        <time>2013-07-05T12:07:26Z</time>
      </trkpt>
      <trkpt lat="48.77634" lon="-0.54893">
        <ele>287</ele>
        <time>2013-07-05T12:07:27Z</time>
      </trkpt>
      <trkpt lat="48.77647" lon="-0.54912">
        <ele>287.6</ele>
        <time>2013-07-05T12:07:31Z</time>
      </trkpt>
      <trkpt lat="48.77683" lon="-0.54967">
        <ele>289.4</ele>
        <time>2013-07-05T12:07:41Z</time>
      </trkpt>
      <trkpt lat="48.77734" lon="-0.55026">
        <ele>291</ele>
        <time>2013-07-05T12:07:52Z</time>
      </trkpt>
      <trkpt lat="48.77738" lon="-0.5503">
        <ele>290</ele>
        <time>2013-07-05T12:07:53Z</time>
      </trkpt>
      <trkpt lat="48.7775" lon="-0.55045">
        <ele>291</ele>
        <time>2013-07-05T12:07:56Z</time>
      </trkpt>
      <trkpt lat="48.77755" lon="-0.55049">
        <ele>291.4</ele>
        <time>2013-07-05T12:07:57Z</time>
      </trkpt>
      <trkpt lat="48.7776" lon="-0.55053">
        <ele>291.4</ele>
        <time>2013-07-05T12:07:58Z</time>
      </trkpt>
      <trkpt lat="48.77788" lon="-0.55079">
        <ele>292.4</ele>
        <time>2013-07-05T12:08:04Z</time>
      </trkpt>
      <trkpt lat="48.77821" lon="-0.55118">
        <ele>292.8</ele>
        <time>2013-07-05T12:08:16Z</time>
      </trkpt>
      <trkpt lat="48.77842" lon="-0.55145">
        <ele>293.4</ele>
        <time>2013-07-05T12:08:28Z</time>
      </trkpt>
      <trkpt lat="48.77848" lon="-0.5515">
        <ele>292.8</ele>
        <time>2013-07-05T12:08:43Z</time>
      </trkpt>
      <trkpt lat="48.77849" lon="-0.5515">
        <ele>293.4</ele>
        <time>2013-07-05T12:09:05Z</time>
      </trkpt>
      <trkpt lat="48.7785" lon="-0.55144">
        <ele>292.4</ele>
        <time>2013-07-05T12:09:19Z</time>
      </trkpt>
      <trkpt lat="48.77845" lon="-0.55141">
        <ele>292.8</ele>
        <time>2013-07-05T12:09:48Z</time>
      </trkpt>
      <trkpt lat="48.77848" lon="-0.55137">
        <ele>292.8</ele>
        <time>2013-07-05T12:10:22Z</time>
      </trkpt>
      <trkpt lat="48.7785" lon="-0.55143">
        <ele>292.4</ele>
        <time>2013-07-05T12:10:39Z</time>
      </trkpt>
      <trkpt lat="48.77855" lon="-0.5515">
        <ele>292.4</ele>
        <time>2013-07-05T12:10:51Z</time>
      </trkpt>
      <trkpt lat="48.77858" lon="-0.5515">
        <ele>292.4</ele>
        <time>2013-07-05T12:10:52Z</time>
      </trkpt>
      <trkpt lat="48.77876" lon="-0.5515">
        <ele>292</ele>
        <time>2013-07-05T12:10:57Z</time>
      </trkpt>
      <trkpt lat="48.7792" lon="-0.55151">
        <ele>291.4</ele>
        <time>2013-07-05T12:11:07Z</time>
      </trkpt>
      <trkpt lat="48.77932" lon="-0.55153">
        <ele>290.4</ele>
        <time>2013-07-05T12:11:09Z</time>
      </trkpt>
      <trkpt lat="48.77973" lon="-0.55155">
        <ele>288.6</ele>
        <time>2013-07-05T12:11:15Z</time>
      </trkpt>
      <trkpt lat="48.7805" lon="-0.55159">
        <ele>285.2</ele>
        <time>2013-07-05T12:11:24Z</time>
      </trkpt>
      <trkpt lat="48.78069" lon="-0.5516">
        <ele>284.2</ele>
        <time>2013-07-05T12:11:26Z</time>
      </trkpt>
      <trkpt lat="48.78125" lon="-0.55162">
        <ele>280.8</ele>
        <time>2013-07-05T12:11:32Z</time>
      </trkpt>
      <trkpt lat="48.78135" lon="-0.55162">
        <ele>281.4</ele>
        <time>2013-07-05T12:11:33Z</time>
      </trkpt>
      <trkpt lat="48.78223" lon="-0.55167">
        <ele>279.4</ele>
        <time>2013-07-05T12:11:45Z</time>
      </trkpt>
      <trkpt lat="48.78229" lon="-0.55168">
        <ele>279</ele>
        <time>2013-07-05T12:11:46Z</time>
      </trkpt>
      <trkpt lat="48.78235" lon="-0.55169">
        <ele>278.4</ele>
        <time>2013-07-05T12:11:47Z</time>
      </trkpt>
      <trkpt lat="48.78271" lon="-0.55166">
        <ele>277.4</ele>
        <time>2013-07-05T12:11:52Z</time>
      </trkpt>
      <trkpt lat="48.78377" lon="-0.55173">
        <ele>274.2</ele>
        <time>2013-07-05T12:12:06Z</time>
      </trkpt>
      <trkpt lat="48.78398" lon="-0.55174">
        <ele>273.2</ele>
        <time>2013-07-05T12:12:09Z</time>
      </trkpt>
      <trkpt lat="48.78404" lon="-0.5517">
        <ele>273.2</ele>
        <time>2013-07-05T12:12:10Z</time>
      </trkpt>
      <trkpt lat="48.78408" lon="-0.55163">
        <ele>273.6</ele>
        <time>2013-07-05T12:12:11Z</time>
      </trkpt>
      <trkpt lat="48.7841" lon="-0.55155">
        <ele>273.2</ele>
        <time>2013-07-05T12:12:12Z</time>
      </trkpt>
      <trkpt lat="48.7841" lon="-0.55145">
        <ele>273.6</ele>
        <time>2013-07-05T12:12:13Z</time>
      </trkpt>
      <trkpt lat="48.7841" lon="-0.55136">
        <ele>271.8</ele>
        <time>2013-07-05T12:12:14Z</time>
      </trkpt>
      <trkpt lat="48.78408" lon="-0.55077">
        <ele>270.2</ele>
        <time>2013-07-05T12:12:20Z</time>
      </trkpt>
      <trkpt lat="48.78409" lon="-0.55066">
        <ele>268.8</ele>
        <time>2013-07-05T12:12:21Z</time>
      </trkpt>
      <trkpt lat="48.7841" lon="-0.55055">
        <ele>267.4</ele>
        <time>2013-07-05T12:12:22Z</time>
      </trkpt>
      <trkpt lat="48.78418" lon="-0.54996">
        <ele>264.6</ele>
        <time>2013-07-05T12:12:27Z</time>
      </trkpt>
      <trkpt lat="48.78423" lon="-0.54955">
        <ele>262.2</ele>
        <time>2013-07-05T12:12:30Z</time>
      </trkpt>
      <trkpt lat="48.78433" lon="-0.54871">
        <ele>258.8</ele>
        <time>2013-07-05T12:12:36Z</time>
      </trkpt>
      <trkpt lat="48.78437" lon="-0.54844">
        <ele>257.8</ele>
        <time>2013-07-05T12:12:38Z</time>
      </trkpt>
      <trkpt lat="48.7847" lon="-0.547">
        <ele>259.2</ele>
        <time>2013-07-05T12:12:51Z</time>
      </trkpt>
      <trkpt lat="48.78489" lon="-0.54644">
        <ele>261.6</ele>
        <time>2013-07-05T12:12:58Z</time>
      </trkpt>
      <trkpt lat="48.78507" lon="-0.54596">
        <ele>263</ele>
        <time>2013-07-05T12:13:04Z</time>
      </trkpt>
      <trkpt lat="48.78528" lon="-0.54535">
        <ele>266</ele>
        <time>2013-07-05T12:13:12Z</time>
      </trkpt>
      <trkpt lat="48.7853" lon="-0.54527">
        <ele>266.4</ele>
        <time>2013-07-05T12:13:13Z</time>
      </trkpt>
      <trkpt lat="48.7855" lon="-0.54466">
        <ele>269.8</ele>
        <time>2013-07-05T12:13:22Z</time>
      </trkpt>
      <trkpt lat="48.78554" lon="-0.54454">
        <ele>270.8</ele>
        <time>2013-07-05T12:13:24Z</time>
      </trkpt>
      <trkpt lat="48.78583" lon="-0.54358">
        <ele>269.4</ele>
        <time>2013-07-05T12:13:40Z</time>
      </trkpt>
      <trkpt lat="48.78595" lon="-0.54314">
        <ele>267</ele>
        <time>2013-07-05T12:13:47Z</time>
      </trkpt>
      <trkpt lat="48.78608" lon="-0.54269">
        <ele>264</ele>
        <time>2013-07-05T12:13:55Z</time>
      </trkpt>
      <trkpt lat="48.78627" lon="-0.54209">
        <ele>261.2</ele>
        <time>2013-07-05T12:14:05Z</time>
      </trkpt>
      <trkpt lat="48.78648" lon="-0.54145">
        <ele>257.2</ele>
        <time>2013-07-05T12:14:16Z</time>
      </trkpt>
      <trkpt lat="48.78653" lon="-0.54102">
        <ele>254</ele>
        <time>2013-07-05T12:14:23Z</time>
      </trkpt>
      <trkpt lat="48.78657" lon="-0.54078">
        <ele>251.6</ele>
        <time>2013-07-05T12:14:26Z</time>
      </trkpt>
      <trkpt lat="48.78659" lon="-0.54069">
        <ele>250.6</ele>
        <time>2013-07-05T12:14:27Z</time>
      </trkpt>
      <trkpt lat="48.78665" lon="-0.54047">
        <ele>250</ele>
        <time>2013-07-05T12:14:29Z</time>
      </trkpt>
      <trkpt lat="48.78696" lon="-0.53975">
        <ele>246.2</ele>
        <time>2013-07-05T12:14:33Z</time>
      </trkpt>
      <trkpt lat="48.78714" lon="-0.53921">
        <ele>244.4</ele>
        <time>2013-07-05T12:14:37Z</time>
      </trkpt>
      <trkpt lat="48.78719" lon="-0.53914">
        <ele>244.4</ele>
        <time>2013-07-05T12:14:38Z</time>
      </trkpt>
      <trkpt lat="48.78726" lon="-0.5391">
        <ele>243.8</ele>
        <time>2013-07-05T12:14:39Z</time>
      </trkpt>
      <trkpt lat="48.78735" lon="-0.53908">
        <ele>243.8</ele>
        <time>2013-07-05T12:14:40Z</time>
      </trkpt>
      <trkpt lat="48.78741" lon="-0.53911">
        <ele>243.4</ele>
        <time>2013-07-05T12:14:41Z</time>
      </trkpt>
      <trkpt lat="48.78785" lon="-0.53939">
        <ele>243.4</ele>
        <time>2013-07-05T12:14:49Z</time>
      </trkpt>
      <trkpt lat="48.7888" lon="-0.54">
        <ele>243.8</ele>
        <time>2013-07-05T12:15:05Z</time>
      </trkpt>
      <trkpt lat="48.78892" lon="-0.54002">
        <ele>243.8</ele>
        <time>2013-07-05T12:15:07Z</time>
      </trkpt>
      <trkpt lat="48.78898" lon="-0.54">
        <ele>244.4</ele>
        <time>2013-07-05T12:15:08Z</time>
      </trkpt>
      <trkpt lat="48.78904" lon="-0.53998">
        <ele>243.8</ele>
        <time>2013-07-05T12:15:09Z</time>
      </trkpt>
      <trkpt lat="48.78909" lon="-0.53994">
        <ele>243.4</ele>
        <time>2013-07-05T12:15:10Z</time>
      </trkpt>
      <trkpt lat="48.78914" lon="-0.5399">
        <ele>243.4</ele>
        <time>2013-07-05T12:15:11Z</time>
      </trkpt>
      <trkpt lat="48.78934" lon="-0.53978">
        <ele>243.4</ele>
        <time>2013-07-05T12:15:15Z</time>
      </trkpt>
      <trkpt lat="48.7894" lon="-0.53977">
        <ele>243.4</ele>
        <time>2013-07-05T12:15:16Z</time>
      </trkpt>
      <trkpt lat="48.78951" lon="-0.53974">
        <ele>242.8</ele>
        <time>2013-07-05T12:15:18Z</time>
      </trkpt>
      <trkpt lat="48.79026" lon="-0.53951">
        <ele>241</ele>
        <time>2013-07-05T12:15:30Z</time>
      </trkpt>
      <trkpt lat="48.79134" lon="-0.53933">
        <ele>239</ele>
        <time>2013-07-05T12:15:46Z</time>
      </trkpt>
      <trkpt lat="48.7922" lon="-0.53944">
        <ele>238</ele>
        <time>2013-07-05T12:15:59Z</time>
      </trkpt>
      <trkpt lat="48.79318" lon="-0.53936">
        <ele>238</ele>
        <time>2013-07-05T12:16:16Z</time>
      </trkpt>
      <trkpt lat="48.79403" lon="-0.53928">
        <ele>234.8</ele>
        <time>2013-07-05T12:16:30Z</time>
      </trkpt>
      <trkpt lat="48.7943" lon="-0.53929">
        <ele>233.2</ele>
        <time>2013-07-05T12:16:34Z</time>
      </trkpt>
      <trkpt lat="48.79443" lon="-0.53932">
        <ele>231.8</ele>
        <time>2013-07-05T12:16:36Z</time>
      </trkpt>
      <trkpt lat="48.79449" lon="-0.53935">
        <ele>231.4</ele>
        <time>2013-07-05T12:16:37Z</time>
      </trkpt>
      <trkpt lat="48.79456" lon="-0.5394">
        <ele>230.8</ele>
        <time>2013-07-05T12:16:38Z</time>
      </trkpt>
      <trkpt lat="48.79462" lon="-0.53945">
        <ele>230.4</ele>
        <time>2013-07-05T12:16:39Z</time>
      </trkpt>
      <trkpt lat="48.79503" lon="-0.53983">
        <ele>227</ele>
        <time>2013-07-05T12:16:45Z</time>
      </trkpt>
      <trkpt lat="48.79524" lon="-0.53992">
        <ele>226</ele>
        <time>2013-07-05T12:16:50Z</time>
      </trkpt>
      <trkpt lat="48.79524" lon="-0.53989">
        <ele>226.6</ele>
        <time>2013-07-05T12:16:51Z</time>
      </trkpt>
      <trkpt lat="48.79525" lon="-0.53986">
        <ele>225.6</ele>
        <time>2013-07-05T12:16:52Z</time>
      </trkpt>
      <trkpt lat="48.79522" lon="-0.53975">
        <ele>224.2</ele>
        <time>2013-07-05T12:16:54Z</time>
      </trkpt>
      <trkpt lat="48.7952" lon="-0.53967">
        <ele>223.6</ele>
        <time>2013-07-05T12:16:55Z</time>
      </trkpt>
      <trkpt lat="48.79511" lon="-0.53888">
        <ele>222.6</ele>
        <time>2013-07-05T12:17:05Z</time>
      </trkpt>
      <trkpt lat="48.79513" lon="-0.53881">
        <ele>223.2</ele>
        <time>2013-07-05T12:17:06Z</time>
      </trkpt>
      <trkpt lat="48.79515" lon="-0.53874">
        <ele>222.2</ele>
        <time>2013-07-05T12:17:07Z</time>
      </trkpt>
      <trkpt lat="48.79552" lon="-0.53808">
        <ele>221.8</ele>
        <time>2013-07-05T12:17:19Z</time>
      </trkpt>
      <trkpt lat="48.7956" lon="-0.53788">
        <ele>220.2</ele>
        <time>2013-07-05T12:17:23Z</time>
      </trkpt>
      <trkpt lat="48.79565" lon="-0.53775">
        <ele>220.2</ele>
        <time>2013-07-05T12:17:25Z</time>
      </trkpt>
      <trkpt lat="48.79567" lon="-0.53768">
        <ele>220.2</ele>
        <time>2013-07-05T12:17:26Z</time>
      </trkpt>
      <trkpt lat="48.79569" lon="-0.53761">
        <ele>220.2</ele>
        <time>2013-07-05T12:17:27Z</time>
      </trkpt>
      <trkpt lat="48.79571" lon="-0.53755">
        <ele>219.8</ele>
        <time>2013-07-05T12:17:28Z</time>
      </trkpt>
      <trkpt lat="48.79572" lon="-0.53748">
        <ele>220.8</ele>
        <time>2013-07-05T12:17:29Z</time>
      </trkpt>
      <trkpt lat="48.79573" lon="-0.53742">
        <ele>220.2</ele>
        <time>2013-07-05T12:17:30Z</time>
      </trkpt>
      <trkpt lat="48.79574" lon="-0.53736">
        <ele>220.8</ele>
        <time>2013-07-05T12:17:31Z</time>
      </trkpt>
      <trkpt lat="48.79585" lon="-0.53678">
        <ele>224.6</ele>
        <time>2013-07-05T12:17:42Z</time>
      </trkpt>
      <trkpt lat="48.79592" lon="-0.53653">
        <ele>225</ele>
        <time>2013-07-05T12:17:47Z</time>
      </trkpt>
      <trkpt lat="48.79609" lon="-0.53658">
        <ele>224.6</ele>
        <time>2013-07-05T12:17:52Z</time>
      </trkpt>
      <trkpt lat="48.79669" lon="-0.53691">
        <ele>224.6</ele>
        <time>2013-07-05T12:18:05Z</time>
      </trkpt>
      <trkpt lat="48.79732" lon="-0.53705">
        <ele>223.6</ele>
        <time>2013-07-05T12:18:19Z</time>
      </trkpt>
      <trkpt lat="48.79761" lon="-0.5371">
        <ele>223.6</ele>
        <time>2013-07-05T12:18:27Z</time>
      </trkpt>
      <trkpt lat="48.79771" lon="-0.53693">
        <ele>223.6</ele>
        <time>2013-07-05T12:18:31Z</time>
      </trkpt>
      <trkpt lat="48.79776" lon="-0.53675">
        <ele>224.6</ele>
        <time>2013-07-05T12:18:34Z</time>
      </trkpt>
      <trkpt lat="48.79784" lon="-0.53658">
        <ele>226</ele>
        <time>2013-07-05T12:18:37Z</time>
      </trkpt>
      <trkpt lat="48.79793" lon="-0.53643">
        <ele>225.6</ele>
        <time>2013-07-05T12:18:41Z</time>
      </trkpt>
      <trkpt lat="48.79796" lon="-0.53643">
        <ele>225</ele>
        <time>2013-07-05T12:18:42Z</time>
      </trkpt>
      <trkpt lat="48.79837" lon="-0.53654">
        <ele>226</ele>
        <time>2013-07-05T12:18:53Z</time>
      </trkpt>
      <trkpt lat="48.79877" lon="-0.5367">
        <ele>225</ele>
        <time>2013-07-05T12:19:03Z</time>
      </trkpt>
      <trkpt lat="48.79938" lon="-0.53718">
        <ele>223.6</ele>
        <time>2013-07-05T12:19:16Z</time>
      </trkpt>
      <trkpt lat="48.79979" lon="-0.5377">
        <ele>221.2</ele>
        <time>2013-07-05T12:19:24Z</time>
      </trkpt>
      <trkpt lat="48.80005" lon="-0.53814">
        <ele>219.4</ele>
        <time>2013-07-05T12:19:30Z</time>
      </trkpt>
      <trkpt lat="48.80018" lon="-0.53832">
        <ele>219.8</ele>
        <time>2013-07-05T12:19:33Z</time>
      </trkpt>
      <trkpt lat="48.80057" lon="-0.53869">
        <ele>220.8</ele>
        <time>2013-07-05T12:19:44Z</time>
      </trkpt>
      <trkpt lat="48.80085" lon="-0.53895">
        <ele>219.8</ele>
        <time>2013-07-05T12:19:51Z</time>
      </trkpt>
      <trkpt lat="48.80142" lon="-0.53961">
        <ele>218.8</ele>
        <time>2013-07-05T12:20:04Z</time>
      </trkpt>
      <trkpt lat="48.80198" lon="-0.5403">
        <ele>218.4</ele>
        <time>2013-07-05T12:20:16Z</time>
      </trkpt>
      <trkpt lat="48.80201" lon="-0.54037">
        <ele>217.8</ele>
        <time>2013-07-05T12:20:17Z</time>
      </trkpt>
      <trkpt lat="48.80213" lon="-0.54052">
        <ele>217.4</ele>
        <time>2013-07-05T12:20:20Z</time>
      </trkpt>
      <trkpt lat="48.80236" lon="-0.54065">
        <ele>217.4</ele>
        <time>2013-07-05T12:20:24Z</time>
      </trkpt>
      <trkpt lat="48.80249" lon="-0.54069">
        <ele>217</ele>
        <time>2013-07-05T12:20:26Z</time>
      </trkpt>
      <trkpt lat="48.8027" lon="-0.54088">
        <ele>215.4</ele>
        <time>2013-07-05T12:20:30Z</time>
      </trkpt>
      <trkpt lat="48.80279" lon="-0.54109">
        <ele>214</ele>
        <time>2013-07-05T12:20:35Z</time>
      </trkpt>
      <trkpt lat="48.80284" lon="-0.54117">
        <ele>212.6</ele>
        <time>2013-07-05T12:20:37Z</time>
      </trkpt>
      <trkpt lat="48.803" lon="-0.54139">
        <ele>210.6</ele>
        <time>2013-07-05T12:20:42Z</time>
      </trkpt>
      <trkpt lat="48.80308" lon="-0.5415">
        <ele>209.2</ele>
        <time>2013-07-05T12:20:44Z</time>
      </trkpt>
      <trkpt lat="48.80331" lon="-0.54174">
        <ele>205.8</ele>
        <time>2013-07-05T12:20:51Z</time>
      </trkpt>
      <trkpt lat="48.80347" lon="-0.54194">
        <ele>202.4</ele>
        <time>2013-07-05T12:20:55Z</time>
      </trkpt>
      <trkpt lat="48.80358" lon="-0.54202">
        <ele>201</ele>
        <time>2013-07-05T12:20:58Z</time>
      </trkpt>
      <trkpt lat="48.80368" lon="-0.54207">
        <ele>199.2</ele>
        <time>2013-07-05T12:21:01Z</time>
      </trkpt>
      <trkpt lat="48.80388" lon="-0.54221">
        <ele>196.2</ele>
        <time>2013-07-05T12:21:07Z</time>
      </trkpt>
      <trkpt lat="48.80408" lon="-0.54224">
        <ele>193.8</ele>
        <time>2013-07-05T12:21:12Z</time>
      </trkpt>
      <trkpt lat="48.80431" lon="-0.54237">
        <ele>190</ele>
        <time>2013-07-05T12:21:18Z</time>
      </trkpt>
      <trkpt lat="48.80436" lon="-0.54237">
        <ele>190</ele>
        <time>2013-07-05T12:21:19Z</time>
      </trkpt>
      <trkpt lat="48.80441" lon="-0.54237">
        <ele>190</ele>
        <time>2013-07-05T12:21:20Z</time>
      </trkpt>
      <trkpt lat="48.80449" lon="-0.54237">
        <ele>189</ele>
        <time>2013-07-05T12:21:22Z</time>
      </trkpt>
      <trkpt lat="48.80479" lon="-0.54248">
        <ele>188</ele>
        <time>2013-07-05T12:21:30Z</time>
      </trkpt>
      <trkpt lat="48.80492" lon="-0.54251">
        <ele>188</ele>
        <time>2013-07-05T12:21:33Z</time>
      </trkpt>
      <trkpt lat="48.80517" lon="-0.5425">
        <ele>187.6</ele>
        <time>2013-07-05T12:21:38Z</time>
      </trkpt>
      <trkpt lat="48.80526" lon="-0.54249">
        <ele>188</ele>
        <time>2013-07-05T12:21:40Z</time>
      </trkpt>
      <trkpt lat="48.80543" lon="-0.54247">
        <ele>188.6</ele>
        <time>2013-07-05T12:21:44Z</time>
      </trkpt>
      <trkpt lat="48.80587" lon="-0.54231">
        <ele>188.6</ele>
        <time>2013-07-05T12:21:56Z</time>
      </trkpt>
      <trkpt lat="48.8064" lon="-0.54195">
        <ele>188</ele>
        <time>2013-07-05T12:22:08Z</time>
      </trkpt>
      <trkpt lat="48.80669" lon="-0.54156">
        <ele>187.2</ele>
        <time>2013-07-05T12:22:16Z</time>
      </trkpt>
      <trkpt lat="48.8068" lon="-0.5415">
        <ele>187.6</ele>
        <time>2013-07-05T12:22:18Z</time>
      </trkpt>
      <trkpt lat="48.80684" lon="-0.54152">
        <ele>187.2</ele>
        <time>2013-07-05T12:22:19Z</time>
      </trkpt>
      <trkpt lat="48.80688" lon="-0.54155">
        <ele>186.6</ele>
        <time>2013-07-05T12:22:20Z</time>
      </trkpt>
      <trkpt lat="48.80692" lon="-0.5416">
        <ele>186.2</ele>
        <time>2013-07-05T12:22:21Z</time>
      </trkpt>
      <trkpt lat="48.80695" lon="-0.54165">
        <ele>186.2</ele>
        <time>2013-07-05T12:22:22Z</time>
      </trkpt>
      <trkpt lat="48.80699" lon="-0.5417">
        <ele>186.2</ele>
        <time>2013-07-05T12:22:23Z</time>
      </trkpt>
      <trkpt lat="48.80712" lon="-0.54207">
        <ele>186.2</ele>
        <time>2013-07-05T12:22:31Z</time>
      </trkpt>
      <trkpt lat="48.80711" lon="-0.54211">
        <ele>186.6</ele>
        <time>2013-07-05T12:22:32Z</time>
      </trkpt>
      <trkpt lat="48.8071" lon="-0.54215">
        <ele>186.2</ele>
        <time>2013-07-05T12:22:33Z</time>
      </trkpt>
      <trkpt lat="48.80707" lon="-0.5422">
        <ele>186.6</ele>
        <time>2013-07-05T12:22:34Z</time>
      </trkpt>
      <trkpt lat="48.80705" lon="-0.54224">
        <ele>186.2</ele>
        <time>2013-07-05T12:22:35Z</time>
      </trkpt>
      <trkpt lat="48.80697" lon="-0.54238">
        <ele>186.2</ele>
        <time>2013-07-05T12:22:38Z</time>
      </trkpt>
      <trkpt lat="48.80696" lon="-0.54244">
        <ele>186.2</ele>
        <time>2013-07-05T12:22:39Z</time>
      </trkpt>
      <trkpt lat="48.80695" lon="-0.5425">
        <ele>186.2</ele>
        <time>2013-07-05T12:22:40Z</time>
      </trkpt>
      <trkpt lat="48.80695" lon="-0.54256">
        <ele>186.2</ele>
        <time>2013-07-05T12:22:41Z</time>
      </trkpt>
      <trkpt lat="48.80695" lon="-0.54262">
        <ele>186.6</ele>
        <time>2013-07-05T12:22:42Z</time>
      </trkpt>
      <trkpt lat="48.80694" lon="-0.54307">
        <ele>189.6</ele>
        <time>2013-07-05T12:22:51Z</time>
      </trkpt>
      <trkpt lat="48.80697" lon="-0.5431">
        <ele>189.6</ele>
        <time>2013-07-05T12:22:52Z</time>
      </trkpt>
      <trkpt lat="48.807" lon="-0.5431">
        <ele>190</ele>
        <time>2013-07-05T12:22:53Z</time>
      </trkpt>
      <trkpt lat="48.80703" lon="-0.5431">
        <ele>190</ele>
        <time>2013-07-05T12:22:54Z</time>
      </trkpt>
      <trkpt lat="48.80706" lon="-0.54309">
        <ele>190</ele>
        <time>2013-07-05T12:22:55Z</time>
      </trkpt>
      <trkpt lat="48.80742" lon="-0.54305">
        <ele>193.4</ele>
        <time>2013-07-05T12:23:05Z</time>
      </trkpt>
      <trkpt lat="48.8079" lon="-0.54318">
        <ele>196.8</ele>
        <time>2013-07-05T12:23:18Z</time>
      </trkpt>
      <trkpt lat="48.80816" lon="-0.54324">
        <ele>200</ele>
        <time>2013-07-05T12:23:27Z</time>
      </trkpt>
      <trkpt lat="48.80819" lon="-0.54325">
        <ele>200</ele>
        <time>2013-07-05T12:23:28Z</time>
      </trkpt>
      <trkpt lat="48.80854" lon="-0.54334">
        <ele>203</ele>
        <time>2013-07-05T12:23:38Z</time>
      </trkpt>
      <trkpt lat="48.8089" lon="-0.54388">
        <ele>206.4</ele>
        <time>2013-07-05T12:23:52Z</time>
      </trkpt>
      <trkpt lat="48.80894" lon="-0.54394">
        <ele>206.8</ele>
        <time>2013-07-05T12:23:54Z</time>
      </trkpt>
      <trkpt lat="48.80908" lon="-0.5442">
        <ele>211.2</ele>
        <time>2013-07-05T12:24:03Z</time>
      </trkpt>
      <trkpt lat="48.8091" lon="-0.54423">
        <ele>211.6</ele>
        <time>2013-07-05T12:24:04Z</time>
      </trkpt>
      <trkpt lat="48.80924" lon="-0.54447">
        <ele>214.6</ele>
        <time>2013-07-05T12:24:12Z</time>
      </trkpt>
      <trkpt lat="48.80943" lon="-0.54482">
        <ele>217.8</ele>
        <time>2013-07-05T12:24:24Z</time>
      </trkpt>
      <trkpt lat="48.80967" lon="-0.54527">
        <ele>219.4</ele>
        <time>2013-07-05T12:24:38Z</time>
      </trkpt>
      <trkpt lat="48.80984" lon="-0.54568">
        <ele>219.8</ele>
        <time>2013-07-05T12:24:49Z</time>
      </trkpt>
      <trkpt lat="48.81005" lon="-0.54613">
        <ele>221.2</ele>
        <time>2013-07-05T12:25:02Z</time>
      </trkpt>
      <trkpt lat="48.81018" lon="-0.54651">
        <ele>221.8</ele>
        <time>2013-07-05T12:25:13Z</time>
      </trkpt>
      <trkpt lat="48.81043" lon="-0.54684">
        <ele>224.6</ele>
        <time>2013-07-05T12:25:25Z</time>
      </trkpt>
      <trkpt lat="48.81083" lon="-0.54697">
        <ele>225.6</ele>
        <time>2013-07-05T12:25:38Z</time>
      </trkpt>
      <trkpt lat="48.81125" lon="-0.54697">
        <ele>227.4</ele>
        <time>2013-07-05T12:25:51Z</time>
      </trkpt>
      <trkpt lat="48.81177" lon="-0.54697">
        <ele>230.8</ele>
        <time>2013-07-05T12:26:05Z</time>
      </trkpt>
      <trkpt lat="48.81216" lon="-0.54691">
        <ele>232.8</ele>
        <time>2013-07-05T12:26:17Z</time>
      </trkpt>
      <trkpt lat="48.81251" lon="-0.54688">
        <ele>233.8</ele>
        <time>2013-07-05T12:26:28Z</time>
      </trkpt>
      <trkpt lat="48.81293" lon="-0.54687">
        <ele>236.2</ele>
        <time>2013-07-05T12:26:41Z</time>
      </trkpt>
      <trkpt lat="48.81321" lon="-0.54689">
        <ele>236.6</ele>
        <time>2013-07-05T12:26:50Z</time>
      </trkpt>
      <trkpt lat="48.81324" lon="-0.54689">
        <ele>236.6</ele>
        <time>2013-07-05T12:26:51Z</time>
      </trkpt>
      <trkpt lat="48.81358" lon="-0.547">
        <ele>237.6</ele>
        <time>2013-07-05T12:27:03Z</time>
      </trkpt>
      <trkpt lat="48.81389" lon="-0.54724">
        <ele>238</ele>
        <time>2013-07-05T12:27:13Z</time>
      </trkpt>
      <trkpt lat="48.81427" lon="-0.54748">
        <ele>237.6</ele>
        <time>2013-07-05T12:27:23Z</time>
      </trkpt>
      <trkpt lat="48.81491" lon="-0.54759">
        <ele>234.2</ele>
        <time>2013-07-05T12:27:35Z</time>
      </trkpt>
      <trkpt lat="48.81519" lon="-0.54764">
        <ele>233.2</ele>
        <time>2013-07-05T12:27:40Z</time>
      </trkpt>
      <trkpt lat="48.81582" lon="-0.54765">
        <ele>231.4</ele>
        <time>2013-07-05T12:27:52Z</time>
      </trkpt>
      <trkpt lat="48.81587" lon="-0.54764">
        <ele>230.8</ele>
        <time>2013-07-05T12:27:53Z</time>
      </trkpt>
      <trkpt lat="48.81592" lon="-0.54762">
        <ele>230.8</ele>
        <time>2013-07-05T12:27:54Z</time>
      </trkpt>
      <trkpt lat="48.81636" lon="-0.54755">
        <ele>229.4</ele>
        <time>2013-07-05T12:28:04Z</time>
      </trkpt>
      <trkpt lat="48.81644" lon="-0.54756">
        <ele>230.4</ele>
        <time>2013-07-05T12:28:06Z</time>
      </trkpt>
      <trkpt lat="48.81649" lon="-0.54755">
        <ele>229.8</ele>
        <time>2013-07-05T12:28:07Z</time>
      </trkpt>
      <trkpt lat="48.81653" lon="-0.54754">
        <ele>229.8</ele>
        <time>2013-07-05T12:28:08Z</time>
      </trkpt>
      <trkpt lat="48.81658" lon="-0.54752">
        <ele>229.8</ele>
        <time>2013-07-05T12:28:09Z</time>
      </trkpt>
      <trkpt lat="48.81663" lon="-0.54749">
        <ele>229.8</ele>
        <time>2013-07-05T12:28:10Z</time>
      </trkpt>
      <trkpt lat="48.81708" lon="-0.5473">
        <ele>229.4</ele>
        <time>2013-07-05T12:28:21Z</time>
      </trkpt>
      <trkpt lat="48.81711" lon="-0.54732">
        <ele>229.8</ele>
        <time>2013-07-05T12:28:22Z</time>
      </trkpt>
      <trkpt lat="48.81713" lon="-0.54735">
        <ele>229.4</ele>
        <time>2013-07-05T12:28:23Z</time>
      </trkpt>
      <trkpt lat="48.81714" lon="-0.54739">
        <ele>229</ele>
        <time>2013-07-05T12:28:24Z</time>
      </trkpt>
      <trkpt lat="48.81714" lon="-0.54744">
        <ele>229</ele>
        <time>2013-07-05T12:28:25Z</time>
      </trkpt>
      <trkpt lat="48.81714" lon="-0.54749">
        <ele>229</ele>
        <time>2013-07-05T12:28:26Z</time>
      </trkpt>
      <trkpt lat="48.81713" lon="-0.54825">
        <ele>228.4</ele>
        <time>2013-07-05T12:28:37Z</time>
      </trkpt>
      <trkpt lat="48.81716" lon="-0.54857">
        <ele>228.4</ele>
        <time>2013-07-05T12:28:41Z</time>
      </trkpt>
      <trkpt lat="48.81718" lon="-0.54864">
        <ele>228.4</ele>
        <time>2013-07-05T12:28:42Z</time>
      </trkpt>
      <trkpt lat="48.81729" lon="-0.54909">
        <ele>228.4</ele>
        <time>2013-07-05T12:28:48Z</time>
      </trkpt>
      <trkpt lat="48.81732" lon="-0.54916">
        <ele>228</ele>
        <time>2013-07-05T12:28:49Z</time>
      </trkpt>
      <trkpt lat="48.8177" lon="-0.54988">
        <ele>226</ele>
        <time>2013-07-05T12:28:59Z</time>
      </trkpt>
      <trkpt lat="48.81774" lon="-0.54995">
        <ele>225.6</ele>
        <time>2013-07-05T12:29:00Z</time>
      </trkpt>
      <trkpt lat="48.81778" lon="-0.55003">
        <ele>224.6</ele>
        <time>2013-07-05T12:29:01Z</time>
      </trkpt>
      <trkpt lat="48.81782" lon="-0.55011">
        <ele>224.2</ele>
        <time>2013-07-05T12:29:02Z</time>
      </trkpt>
      <trkpt lat="48.81785" lon="-0.5502">
        <ele>224.2</ele>
        <time>2013-07-05T12:29:03Z</time>
      </trkpt>
      <trkpt lat="48.81787" lon="-0.55028">
        <ele>224.2</ele>
        <time>2013-07-05T12:29:04Z</time>
      </trkpt>
      <trkpt lat="48.81788" lon="-0.55036">
        <ele>224.2</ele>
        <time>2013-07-05T12:29:05Z</time>
      </trkpt>
      <trkpt lat="48.81788" lon="-0.5504">
        <ele>224.2</ele>
        <time>2013-07-05T12:29:06Z</time>
      </trkpt>
      <trkpt lat="48.8178" lon="-0.55074">
        <ele>222.6</ele>
        <time>2013-07-05T12:29:10Z</time>
      </trkpt>
      <trkpt lat="48.81775" lon="-0.5509">
        <ele>223.6</ele>
        <time>2013-07-05T12:29:12Z</time>
      </trkpt>
      <trkpt lat="48.81775" lon="-0.55098">
        <ele>223.2</ele>
        <time>2013-07-05T12:29:13Z</time>
      </trkpt>
      <trkpt lat="48.81775" lon="-0.55102">
        <ele>222.6</ele>
        <time>2013-07-05T12:29:14Z</time>
      </trkpt>
      <trkpt lat="48.81779" lon="-0.55109">
        <ele>221.8</ele>
        <time>2013-07-05T12:29:16Z</time>
      </trkpt>
      <trkpt lat="48.81786" lon="-0.55122">
        <ele>219.8</ele>
        <time>2013-07-05T12:29:19Z</time>
      </trkpt>
      <trkpt lat="48.81814" lon="-0.55167">
        <ele>219.4</ele>
        <time>2013-07-05T12:29:25Z</time>
      </trkpt>
      <trkpt lat="48.81836" lon="-0.55216">
        <ele>219.8</ele>
        <time>2013-07-05T12:29:32Z</time>
      </trkpt>
      <trkpt lat="48.81837" lon="-0.55223">
        <ele>219.8</ele>
        <time>2013-07-05T12:29:33Z</time>
      </trkpt>
      <trkpt lat="48.8184" lon="-0.5523">
        <ele>218.8</ele>
        <time>2013-07-05T12:29:34Z</time>
      </trkpt>
      <trkpt lat="48.81848" lon="-0.55268">
        <ele>218.4</ele>
        <time>2013-07-05T12:29:38Z</time>
      </trkpt>
      <trkpt lat="48.8185" lon="-0.55278">
        <ele>217.4</ele>
        <time>2013-07-05T12:29:39Z</time>
      </trkpt>
      <trkpt lat="48.81851" lon="-0.55288">
        <ele>217</ele>
        <time>2013-07-05T12:29:40Z</time>
      </trkpt>
      <trkpt lat="48.81857" lon="-0.55333">
        <ele>215.4</ele>
        <time>2013-07-05T12:29:45Z</time>
      </trkpt>
      <trkpt lat="48.81862" lon="-0.5538">
        <ele>213.6</ele>
        <time>2013-07-05T12:29:50Z</time>
      </trkpt>
      <trkpt lat="48.81865" lon="-0.55389">
        <ele>212.6</ele>
        <time>2013-07-05T12:29:51Z</time>
      </trkpt>
      <trkpt lat="48.8188" lon="-0.55421">
        <ele>210.6</ele>
        <time>2013-07-05T12:30:00Z</time>
      </trkpt>
      <trkpt lat="48.81882" lon="-0.55424">
        <ele>210.2</ele>
        <time>2013-07-05T12:30:01Z</time>
      </trkpt>
      <trkpt lat="48.8191" lon="-0.55463">
        <ele>206.8</ele>
        <time>2013-07-05T12:30:13Z</time>
      </trkpt>
      <trkpt lat="48.81932" lon="-0.55485">
        <ele>204</ele>
        <time>2013-07-05T12:30:21Z</time>
      </trkpt>
      <trkpt lat="48.81958" lon="-0.55511">
        <ele>200.6</ele>
        <time>2013-07-05T12:30:30Z</time>
      </trkpt>
      <trkpt lat="48.81966" lon="-0.5552">
        <ele>199.6</ele>
        <time>2013-07-05T12:30:33Z</time>
      </trkpt>
      <trkpt lat="48.81988" lon="-0.55542">
        <ele>197.6</ele>
        <time>2013-07-05T12:30:41Z</time>
      </trkpt>
      <trkpt lat="48.82016" lon="-0.55561">
        <ele>196.8</ele>
        <time>2013-07-05T12:30:52Z</time>
      </trkpt>
      <trkpt lat="48.82019" lon="-0.55561">
        <ele>196.2</ele>
        <time>2013-07-05T12:31:03Z</time>
      </trkpt>
      <trkpt lat="48.82029" lon="-0.5556">
        <ele>196.2</ele>
        <time>2013-07-05T12:31:21Z</time>
      </trkpt>
      <trkpt lat="48.82026" lon="-0.55553">
        <ele>196.8</ele>
        <time>2013-07-05T12:31:38Z</time>
      </trkpt>
      <trkpt lat="48.82023" lon="-0.55555">
        <ele>196.2</ele>
        <time>2013-07-05T12:32:18Z</time>
      </trkpt>
      <trkpt lat="48.82021" lon="-0.55555">
        <ele>196.2</ele>
        <time>2013-07-05T12:33:01Z</time>
      </trkpt>
      <trkpt lat="48.82021" lon="-0.55556">
        <ele>195.8</ele>
        <time>2013-07-05T12:33:42Z</time>
      </trkpt>
      <trkpt lat="48.82019" lon="-0.55556">
        <ele>195.8</ele>
        <time>2013-07-05T12:34:15Z</time>
      </trkpt>
      <trkpt lat="48.82021" lon="-0.55553">
        <ele>195.8</ele>
        <time>2013-07-05T12:34:40Z</time>
      </trkpt>
      <trkpt lat="48.82023" lon="-0.55552">
        <ele>194.8</ele>
        <time>2013-07-05T12:35:14Z</time>
      </trkpt>
      <trkpt lat="48.82025" lon="-0.55559">
        <ele>194.8</ele>
        <time>2013-07-05T12:35:29Z</time>
      </trkpt>
      <trkpt lat="48.82043" lon="-0.55584">
        <ele>192</ele>
        <time>2013-07-05T12:35:37Z</time>
      </trkpt>
      <trkpt lat="48.82056" lon="-0.55602">
        <ele>190</ele>
        <time>2013-07-05T12:35:41Z</time>
      </trkpt>
      <trkpt lat="48.82064" lon="-0.5561">
        <ele>189.6</ele>
        <time>2013-07-05T12:35:43Z</time>
      </trkpt>
      <trkpt lat="48.82112" lon="-0.55655">
        <ele>186.6</ele>
        <time>2013-07-05T12:35:57Z</time>
      </trkpt>
      <trkpt lat="48.82118" lon="-0.55661">
        <ele>185.6</ele>
        <time>2013-07-05T12:35:59Z</time>
      </trkpt>
      <trkpt lat="48.82141" lon="-0.55682">
        <ele>182.4</ele>
        <time>2013-07-05T12:36:06Z</time>
      </trkpt>
      <trkpt lat="48.82155" lon="-0.55701">
        <ele>178</ele>
        <time>2013-07-05T12:36:10Z</time>
      </trkpt>
      <trkpt lat="48.82169" lon="-0.55716">
        <ele>175.6</ele>
        <time>2013-07-05T12:36:13Z</time>
      </trkpt>
      <trkpt lat="48.82178" lon="-0.55736">
        <ele>172.6</ele>
        <time>2013-07-05T12:36:18Z</time>
      </trkpt>
      <trkpt lat="48.82176" lon="-0.55768">
        <ele>170.8</ele>
        <time>2013-07-05T12:36:22Z</time>
      </trkpt>
      <trkpt lat="48.82176" lon="-0.55806">
        <ele>169.8</ele>
        <time>2013-07-05T12:36:26Z</time>
      </trkpt>
      <trkpt lat="48.82171" lon="-0.55851">
        <ele>170.8</ele>
        <time>2013-07-05T12:36:33Z</time>
      </trkpt>
      <trkpt lat="48.82179" lon="-0.55908">
        <ele>169.4</ele>
        <time>2013-07-05T12:36:45Z</time>
      </trkpt>
      <trkpt lat="48.82205" lon="-0.55969">
        <ele>165.4</ele>
        <time>2013-07-05T12:36:57Z</time>
      </trkpt>
      <trkpt lat="48.82207" lon="-0.55974">
        <ele>165.4</ele>
        <time>2013-07-05T12:36:58Z</time>
      </trkpt>
      <trkpt lat="48.82224" lon="-0.56015">
        <ele>162.6</ele>
        <time>2013-07-05T12:37:07Z</time>
      </trkpt>
      <trkpt lat="48.82255" lon="-0.5606">
        <ele>159.2</ele>
        <time>2013-07-05T12:37:19Z</time>
      </trkpt>
      <trkpt lat="48.82263" lon="-0.56067">
        <ele>159.2</ele>
        <time>2013-07-05T12:37:22Z</time>
      </trkpt>
      <trkpt lat="48.82301" lon="-0.56112">
        <ele>155</ele>
        <time>2013-07-05T12:37:35Z</time>
      </trkpt>
      <trkpt lat="48.82329" lon="-0.56159">
        <ele>153</ele>
        <time>2013-07-05T12:37:46Z</time>
      </trkpt>
      <trkpt lat="48.82373" lon="-0.56232">
        <ele>151.6</ele>
        <time>2013-07-05T12:37:59Z</time>
      </trkpt>
      <trkpt lat="48.82391" lon="-0.56281">
        <ele>150.6</ele>
        <time>2013-07-05T12:38:09Z</time>
      </trkpt>
      <trkpt lat="48.82388" lon="-0.56285">
        <ele>150.2</ele>
        <time>2013-07-05T12:38:10Z</time>
      </trkpt>
      <trkpt lat="48.82385" lon="-0.56288">
        <ele>150.2</ele>
        <time>2013-07-05T12:38:11Z</time>
      </trkpt>
      <trkpt lat="48.82382" lon="-0.5629">
        <ele>149.6</ele>
        <time>2013-07-05T12:38:12Z</time>
      </trkpt>
      <trkpt lat="48.82378" lon="-0.56291">
        <ele>149.6</ele>
        <time>2013-07-05T12:38:13Z</time>
      </trkpt>
      <trkpt lat="48.82372" lon="-0.56291">
        <ele>150.2</ele>
        <time>2013-07-05T12:38:14Z</time>
      </trkpt>
      <trkpt lat="48.82365" lon="-0.56291">
        <ele>149.2</ele>
        <time>2013-07-05T12:38:15Z</time>
      </trkpt>
      <trkpt lat="48.82273" lon="-0.56299">
        <ele>152</ele>
        <time>2013-07-05T12:38:29Z</time>
      </trkpt>
      <trkpt lat="48.82215" lon="-0.56304">
        <ele>154</ele>
        <time>2013-07-05T12:38:38Z</time>
      </trkpt>
      <trkpt lat="48.82171" lon="-0.56309">
        <ele>156.4</ele>
        <time>2013-07-05T12:38:46Z</time>
      </trkpt>
      <trkpt lat="48.8217" lon="-0.56311">
        <ele>156.4</ele>
        <time>2013-07-05T12:38:47Z</time>
      </trkpt>
      <trkpt lat="48.8217" lon="-0.56313">
        <ele>156.4</ele>
        <time>2013-07-05T12:38:48Z</time>
      </trkpt>
      <trkpt lat="48.82171" lon="-0.56315">
        <ele>156.4</ele>
        <time>2013-07-05T12:38:49Z</time>
      </trkpt>
      <trkpt lat="48.82174" lon="-0.56318">
        <ele>155.4</ele>
        <time>2013-07-05T12:39:03Z</time>
      </trkpt>
      <trkpt lat="48.82188" lon="-0.56343">
        <ele>154</ele>
        <time>2013-07-05T12:39:12Z</time>
      </trkpt>
      <trkpt lat="48.82212" lon="-0.56382">
        <ele>151</ele>
        <time>2013-07-05T12:39:21Z</time>
      </trkpt>
      <trkpt lat="48.82218" lon="-0.56393">
        <ele>151.6</ele>
        <time>2013-07-05T12:39:23Z</time>
      </trkpt>
      <trkpt lat="48.82221" lon="-0.56396">
        <ele>150.2</ele>
        <time>2013-07-05T12:39:24Z</time>
      </trkpt>
      <trkpt lat="48.82224" lon="-0.564">
        <ele>150.2</ele>
        <time>2013-07-05T12:39:25Z</time>
      </trkpt>
      <trkpt lat="48.82226" lon="-0.56404">
        <ele>149.6</ele>
        <time>2013-07-05T12:39:26Z</time>
      </trkpt>
      <trkpt lat="48.82229" lon="-0.56408">
        <ele>149.6</ele>
        <time>2013-07-05T12:39:27Z</time>
      </trkpt>
      <trkpt lat="48.82231" lon="-0.56414">
        <ele>149.6</ele>
        <time>2013-07-05T12:39:28Z</time>
      </trkpt>
      <trkpt lat="48.82233" lon="-0.5642">
        <ele>148.2</ele>
        <time>2013-07-05T12:39:29Z</time>
      </trkpt>
      <trkpt lat="48.82255" lon="-0.56489">
        <ele>146.8</ele>
        <time>2013-07-05T12:39:41Z</time>
      </trkpt>
      <trkpt lat="48.82265" lon="-0.56536">
        <ele>145.8</ele>
        <time>2013-07-05T12:39:52Z</time>
      </trkpt>
      <trkpt lat="48.82272" lon="-0.56564">
        <ele>145.4</ele>
        <time>2013-07-05T12:39:58Z</time>
      </trkpt>
      <trkpt lat="48.82274" lon="-0.56607">
        <ele>142.8</ele>
        <time>2013-07-05T12:40:05Z</time>
      </trkpt>
      <trkpt lat="48.82278" lon="-0.5662">
        <ele>142.8</ele>
        <time>2013-07-05T12:40:07Z</time>
      </trkpt>
      <trkpt lat="48.82288" lon="-0.56649">
        <ele>140</ele>
        <time>2013-07-05T12:40:11Z</time>
      </trkpt>
      <trkpt lat="48.82312" lon="-0.56744">
        <ele>138</ele>
        <time>2013-07-05T12:40:23Z</time>
      </trkpt>
      <trkpt lat="48.82322" lon="-0.56803">
        <ele>137.2</ele>
        <time>2013-07-05T12:40:31Z</time>
      </trkpt>
      <trkpt lat="48.82327" lon="-0.56825">
        <ele>136.2</ele>
        <time>2013-07-05T12:40:34Z</time>
      </trkpt>
      <trkpt lat="48.8235" lon="-0.56905">
        <ele>132.8</ele>
        <time>2013-07-05T12:40:45Z</time>
      </trkpt>
      <trkpt lat="48.82371" lon="-0.56995">
        <ele>130</ele>
        <time>2013-07-05T12:40:57Z</time>
      </trkpt>
      <trkpt lat="48.82373" lon="-0.57002">
        <ele>130</ele>
        <time>2013-07-05T12:40:58Z</time>
      </trkpt>
      <trkpt lat="48.824" lon="-0.57103">
        <ele>127</ele>
        <time>2013-07-05T12:41:11Z</time>
      </trkpt>
      <trkpt lat="48.82408" lon="-0.57136">
        <ele>126.6</ele>
        <time>2013-07-05T12:41:16Z</time>
      </trkpt>
      <trkpt lat="48.82408" lon="-0.57165">
        <ele>126.6</ele>
        <time>2013-07-05T12:41:20Z</time>
      </trkpt>
      <trkpt lat="48.82369" lon="-0.57232">
        <ele>125.6</ele>
        <time>2013-07-05T12:41:30Z</time>
      </trkpt>
      <trkpt lat="48.8236" lon="-0.57247">
        <ele>125.6</ele>
        <time>2013-07-05T12:41:32Z</time>
      </trkpt>
      <trkpt lat="48.82328" lon="-0.57301">
        <ele>127</ele>
        <time>2013-07-05T12:41:39Z</time>
      </trkpt>
      <trkpt lat="48.82323" lon="-0.57307">
        <ele>126.6</ele>
        <time>2013-07-05T12:41:40Z</time>
      </trkpt>
      <trkpt lat="48.82294" lon="-0.57351">
        <ele>124.6</ele>
        <time>2013-07-05T12:41:46Z</time>
      </trkpt>
      <trkpt lat="48.82289" lon="-0.57359">
        <ele>124.6</ele>
        <time>2013-07-05T12:41:47Z</time>
      </trkpt>
      <trkpt lat="48.82279" lon="-0.57377">
        <ele>124.2</ele>
        <time>2013-07-05T12:41:49Z</time>
      </trkpt>
      <trkpt lat="48.82259" lon="-0.5741">
        <ele>122.8</ele>
        <time>2013-07-05T12:41:53Z</time>
      </trkpt>
      <trkpt lat="48.82217" lon="-0.57485">
        <ele>123.6</ele>
        <time>2013-07-05T12:42:04Z</time>
      </trkpt>
      <trkpt lat="48.8221" lon="-0.57506">
        <ele>125.2</ele>
        <time>2013-07-05T12:42:13Z</time>
      </trkpt>
      <trkpt lat="48.82211" lon="-0.5751">
        <ele>124.6</ele>
        <time>2013-07-05T12:42:36Z</time>
      </trkpt>
      <trkpt lat="48.82213" lon="-0.57512">
        <ele>125.2</ele>
        <time>2013-07-05T12:42:37Z</time>
      </trkpt>
      <trkpt lat="48.82228" lon="-0.57528">
        <ele>124.6</ele>
        <time>2013-07-05T12:42:44Z</time>
      </trkpt>
      <trkpt lat="48.82255" lon="-0.57549">
        <ele>123.6</ele>
        <time>2013-07-05T12:42:54Z</time>
      </trkpt>
      <trkpt lat="48.82303" lon="-0.57589">
        <ele>121.2</ele>
        <time>2013-07-05T12:43:09Z</time>
      </trkpt>
      <trkpt lat="48.82303" lon="-0.57595">
        <ele>121.2</ele>
        <time>2013-07-05T12:43:10Z</time>
      </trkpt>
      <trkpt lat="48.82296" lon="-0.57625">
        <ele>121.8</ele>
        <time>2013-07-05T12:43:15Z</time>
      </trkpt>
      <trkpt lat="48.82248" lon="-0.57731">
        <ele>122.8</ele>
        <time>2013-07-05T12:43:30Z</time>
      </trkpt>
      <trkpt lat="48.82238" lon="-0.57751">
        <ele>122.8</ele>
        <time>2013-07-05T12:43:33Z</time>
      </trkpt>
      <trkpt lat="48.82192" lon="-0.57849">
        <ele>123.2</ele>
        <time>2013-07-05T12:43:47Z</time>
      </trkpt>
      <trkpt lat="48.82188" lon="-0.57862">
        <ele>122.8</ele>
        <time>2013-07-05T12:43:49Z</time>
      </trkpt>
      <trkpt lat="48.82158" lon="-0.57919">
        <ele>122.8</ele>
        <time>2013-07-05T12:43:57Z</time>
      </trkpt>
      <trkpt lat="48.82139" lon="-0.57959">
        <ele>122.2</ele>
        <time>2013-07-05T12:44:02Z</time>
      </trkpt>
      <trkpt lat="48.82128" lon="-0.57986">
        <ele>123.2</ele>
        <time>2013-07-05T12:44:06Z</time>
      </trkpt>
      <trkpt lat="48.82123" lon="-0.58017">
        <ele>123.2</ele>
        <time>2013-07-05T12:44:10Z</time>
      </trkpt>
      <trkpt lat="48.8212" lon="-0.58042">
        <ele>122.8</ele>
        <time>2013-07-05T12:44:13Z</time>
      </trkpt>
      <trkpt lat="48.82084" lon="-0.58139">
        <ele>123.2</ele>
        <time>2013-07-05T12:44:27Z</time>
      </trkpt>
      <trkpt lat="48.82055" lon="-0.58191">
        <ele>124.6</ele>
        <time>2013-07-05T12:44:38Z</time>
      </trkpt>
      <trkpt lat="48.82013" lon="-0.58279">
        <ele>123.2</ele>
        <time>2013-07-05T12:44:51Z</time>
      </trkpt>
      <trkpt lat="48.81957" lon="-0.5843">
        <ele>122.8</ele>
        <time>2013-07-05T12:45:09Z</time>
      </trkpt>
      <trkpt lat="48.81909" lon="-0.58585">
        <ele>122.8</ele>
        <time>2013-07-05T12:45:27Z</time>
      </trkpt>
      <trkpt lat="48.81898" lon="-0.58619">
        <ele>123.6</ele>
        <time>2013-07-05T12:45:32Z</time>
      </trkpt>
      <trkpt lat="48.81896" lon="-0.58626">
        <ele>123.6</ele>
        <time>2013-07-05T12:45:33Z</time>
      </trkpt>
      <trkpt lat="48.81895" lon="-0.58633">
        <ele>123.2</ele>
        <time>2013-07-05T12:45:34Z</time>
      </trkpt>
      <trkpt lat="48.81893" lon="-0.5864">
        <ele>123.6</ele>
        <time>2013-07-05T12:45:35Z</time>
      </trkpt>
      <trkpt lat="48.81892" lon="-0.58648">
        <ele>123.2</ele>
        <time>2013-07-05T12:45:36Z</time>
      </trkpt>
      <trkpt lat="48.81867" lon="-0.5877">
        <ele>121.8</ele>
        <time>2013-07-05T12:45:51Z</time>
      </trkpt>
      <trkpt lat="48.81816" lon="-0.58888">
        <ele>120.8</ele>
        <time>2013-07-05T12:46:06Z</time>
      </trkpt>
      <trkpt lat="48.818" lon="-0.58931">
        <ele>120.4</ele>
        <time>2013-07-05T12:46:11Z</time>
      </trkpt>
      <trkpt lat="48.81797" lon="-0.5894">
        <ele>119.8</ele>
        <time>2013-07-05T12:46:12Z</time>
      </trkpt>
      <trkpt lat="48.81787" lon="-0.58964">
        <ele>118.8</ele>
        <time>2013-07-05T12:46:15Z</time>
      </trkpt>
      <trkpt lat="48.81779" lon="-0.58983">
        <ele>118</ele>
        <time>2013-07-05T12:46:18Z</time>
      </trkpt>
      <trkpt lat="48.81777" lon="-0.58987">
        <ele>118.4</ele>
        <time>2013-07-05T12:46:19Z</time>
      </trkpt>
      <trkpt lat="48.81775" lon="-0.5899">
        <ele>118.4</ele>
        <time>2013-07-05T12:46:20Z</time>
      </trkpt>
      <trkpt lat="48.81773" lon="-0.5899">
        <ele>117.4</ele>
        <time>2013-07-05T12:46:21Z</time>
      </trkpt>
      <trkpt lat="48.81772" lon="-0.5899">
        <ele>118</ele>
        <time>2013-07-05T12:46:22Z</time>
      </trkpt>
      <trkpt lat="48.81774" lon="-0.58987">
        <ele>118.4</ele>
        <time>2013-07-05T12:46:36Z</time>
      </trkpt>
      <trkpt lat="48.81767" lon="-0.58991">
        <ele>117.4</ele>
        <time>2013-07-05T12:47:01Z</time>
      </trkpt>
      <trkpt lat="48.81763" lon="-0.5899">
        <ele>117.4</ele>
        <time>2013-07-05T12:47:02Z</time>
      </trkpt>
      <trkpt lat="48.81746" lon="-0.58968">
        <ele>119.8</ele>
        <time>2013-07-05T12:47:07Z</time>
      </trkpt>
      <trkpt lat="48.81741" lon="-0.58957">
        <ele>119.8</ele>
        <time>2013-07-05T12:47:09Z</time>
      </trkpt>
      <trkpt lat="48.81708" lon="-0.58874">
        <ele>119.8</ele>
        <time>2013-07-05T12:47:23Z</time>
      </trkpt>
      <trkpt lat="48.81685" lon="-0.58809">
        <ele>118.8</ele>
        <time>2013-07-05T12:47:33Z</time>
      </trkpt>
      <trkpt lat="48.81645" lon="-0.587">
        <ele>118</ele>
        <time>2013-07-05T12:47:45Z</time>
      </trkpt>
      <trkpt lat="48.81627" lon="-0.58645">
        <ele>120.4</ele>
        <time>2013-07-05T12:47:53Z</time>
      </trkpt>
      <trkpt lat="48.81624" lon="-0.58613">
        <ele>122.8</ele>
        <time>2013-07-05T12:47:59Z</time>
      </trkpt>
      <trkpt lat="48.81623" lon="-0.58594">
        <ele>124.2</ele>
        <time>2013-07-05T12:48:02Z</time>
      </trkpt>
      <trkpt lat="48.81622" lon="-0.58575">
        <ele>125.2</ele>
        <time>2013-07-05T12:48:05Z</time>
      </trkpt>
      <trkpt lat="48.81619" lon="-0.58563">
        <ele>126</ele>
        <time>2013-07-05T12:48:07Z</time>
      </trkpt>
      <trkpt lat="48.816" lon="-0.58525">
        <ele>126</ele>
        <time>2013-07-05T12:48:14Z</time>
      </trkpt>
      <trkpt lat="48.81593" lon="-0.5851">
        <ele>126.6</ele>
        <time>2013-07-05T12:48:16Z</time>
      </trkpt>
      <trkpt lat="48.81585" lon="-0.58498">
        <ele>125.6</ele>
        <time>2013-07-05T12:48:18Z</time>
      </trkpt>
      <trkpt lat="48.81551" lon="-0.58471">
        <ele>122.8</ele>
        <time>2013-07-05T12:48:24Z</time>
      </trkpt>
      <trkpt lat="48.81545" lon="-0.58467">
        <ele>122.8</ele>
        <time>2013-07-05T12:48:25Z</time>
      </trkpt>
      <trkpt lat="48.81522" lon="-0.58439">
        <ele>121.8</ele>
        <time>2013-07-05T12:48:30Z</time>
      </trkpt>
      <trkpt lat="48.81507" lon="-0.58407">
        <ele>122.2</ele>
        <time>2013-07-05T12:48:35Z</time>
      </trkpt>
      <trkpt lat="48.81497" lon="-0.58381">
        <ele>125.2</ele>
        <time>2013-07-05T12:48:39Z</time>
      </trkpt>
      <trkpt lat="48.81481" lon="-0.58348">
        <ele>128</ele>
        <time>2013-07-05T12:48:44Z</time>
      </trkpt>
      <trkpt lat="48.8146" lon="-0.58315">
        <ele>130</ele>
        <time>2013-07-05T12:48:50Z</time>
      </trkpt>
      <trkpt lat="48.81439" lon="-0.58286">
        <ele>132.8</ele>
        <time>2013-07-05T12:48:56Z</time>
      </trkpt>
      <trkpt lat="48.814" lon="-0.5824">
        <ele>136.2</ele>
        <time>2013-07-05T12:49:08Z</time>
      </trkpt>
      <trkpt lat="48.81364" lon="-0.58198">
        <ele>134.8</ele>
        <time>2013-07-05T12:49:18Z</time>
      </trkpt>
      <trkpt lat="48.81348" lon="-0.58166">
        <ele>134.2</ele>
        <time>2013-07-05T12:49:25Z</time>
      </trkpt>
      <trkpt lat="48.81348" lon="-0.5816">
        <ele>134.2</ele>
        <time>2013-07-05T12:49:26Z</time>
      </trkpt>
      <trkpt lat="48.81349" lon="-0.58154">
        <ele>134.8</ele>
        <time>2013-07-05T12:49:27Z</time>
      </trkpt>
      <trkpt lat="48.8135" lon="-0.58148">
        <ele>135.2</ele>
        <time>2013-07-05T12:49:28Z</time>
      </trkpt>
      <trkpt lat="48.81351" lon="-0.58143">
        <ele>135.2</ele>
        <time>2013-07-05T12:49:29Z</time>
      </trkpt>
      <trkpt lat="48.81352" lon="-0.58138">
        <ele>137.2</ele>
        <time>2013-07-05T12:49:30Z</time>
      </trkpt>
      <trkpt lat="48.81353" lon="-0.58134">
        <ele>136.6</ele>
        <time>2013-07-05T12:49:31Z</time>
      </trkpt>
      <trkpt lat="48.81353" lon="-0.58131">
        <ele>137.2</ele>
        <time>2013-07-05T12:49:32Z</time>
      </trkpt>
      <trkpt lat="48.81352" lon="-0.58128">
        <ele>138</ele>
        <time>2013-07-05T12:49:33Z</time>
      </trkpt>
      <trkpt lat="48.8135" lon="-0.58125">
        <ele>137.6</ele>
        <time>2013-07-05T12:49:34Z</time>
      </trkpt>
      <trkpt lat="48.81349" lon="-0.58123">
        <ele>138</ele>
        <time>2013-07-05T12:49:35Z</time>
      </trkpt>
      <trkpt lat="48.81347" lon="-0.5812">
        <ele>138</ele>
        <time>2013-07-05T12:49:36Z</time>
      </trkpt>
      <trkpt lat="48.81301" lon="-0.58085">
        <ele>138.6</ele>
        <time>2013-07-05T12:49:47Z</time>
      </trkpt>
      <trkpt lat="48.81266" lon="-0.58063">
        <ele>138</ele>
        <time>2013-07-05T12:49:57Z</time>
      </trkpt>
      <trkpt lat="48.8126" lon="-0.58057">
        <ele>140</ele>
        <time>2013-07-05T12:49:59Z</time>
      </trkpt>
      <trkpt lat="48.81252" lon="-0.58053">
        <ele>140</ele>
        <time>2013-07-05T12:50:01Z</time>
      </trkpt>
      <trkpt lat="48.81222" lon="-0.58039">
        <ele>139.6</ele>
        <time>2013-07-05T12:50:08Z</time>
      </trkpt>
      <trkpt lat="48.81201" lon="-0.5803">
        <ele>140.4</ele>
        <time>2013-07-05T12:50:13Z</time>
      </trkpt>
      <trkpt lat="48.81148" lon="-0.5801">
        <ele>142</ele>
        <time>2013-07-05T12:50:25Z</time>
      </trkpt>
      <trkpt lat="48.81114" lon="-0.57978">
        <ele>139.6</ele>
        <time>2013-07-05T12:50:32Z</time>
      </trkpt>
      <trkpt lat="48.81105" lon="-0.57962">
        <ele>139</ele>
        <time>2013-07-05T12:50:34Z</time>
      </trkpt>
      <trkpt lat="48.81082" lon="-0.57961">
        <ele>139.6</ele>
        <time>2013-07-05T12:50:39Z</time>
      </trkpt>
      <trkpt lat="48.81068" lon="-0.57969">
        <ele>140.4</ele>
        <time>2013-07-05T12:50:43Z</time>
      </trkpt>
      <trkpt lat="48.81055" lon="-0.57978">
        <ele>141</ele>
        <time>2013-07-05T12:50:46Z</time>
      </trkpt>
      <trkpt lat="48.81005" lon="-0.57996">
        <ele>142</ele>
        <time>2013-07-05T12:50:54Z</time>
      </trkpt>
      <trkpt lat="48.80982" lon="-0.58004">
        <ele>142</ele>
        <time>2013-07-05T12:50:58Z</time>
      </trkpt>
      <trkpt lat="48.80899" lon="-0.58017">
        <ele>143.8</ele>
        <time>2013-07-05T12:51:12Z</time>
      </trkpt>
      <trkpt lat="48.80873" lon="-0.58022">
        <ele>145.4</ele>
        <time>2013-07-05T12:51:17Z</time>
      </trkpt>
      <trkpt lat="48.8079" lon="-0.58033">
        <ele>147.2</ele>
        <time>2013-07-05T12:51:30Z</time>
      </trkpt>
      <trkpt lat="48.80759" lon="-0.58038">
        <ele>149.6</ele>
        <time>2013-07-05T12:51:35Z</time>
      </trkpt>
      <trkpt lat="48.8072" lon="-0.58041">
        <ele>151</ele>
        <time>2013-07-05T12:51:45Z</time>
      </trkpt>
      <trkpt lat="48.80714" lon="-0.58039">
        <ele>151.6</ele>
        <time>2013-07-05T12:51:55Z</time>
      </trkpt>
      <trkpt lat="48.80713" lon="-0.58039">
        <ele>151</ele>
        <time>2013-07-05T12:52:16Z</time>
      </trkpt>
      <trkpt lat="48.80703" lon="-0.58048">
        <ele>151</ele>
        <time>2013-07-05T12:52:23Z</time>
      </trkpt>
      <trkpt lat="48.80678" lon="-0.58071">
        <ele>149.6</ele>
        <time>2013-07-05T12:52:35Z</time>
      </trkpt>
      <trkpt lat="48.80656" lon="-0.58075">
        <ele>148.2</ele>
        <time>2013-07-05T12:52:40Z</time>
      </trkpt>
      <trkpt lat="48.80651" lon="-0.58074">
        <ele>147.8</ele>
        <time>2013-07-05T12:52:41Z</time>
      </trkpt>
      <trkpt lat="48.80646" lon="-0.58072">
        <ele>147.8</ele>
        <time>2013-07-05T12:52:42Z</time>
      </trkpt>
      <trkpt lat="48.80642" lon="-0.5807">
        <ele>147.8</ele>
        <time>2013-07-05T12:52:43Z</time>
      </trkpt>
      <trkpt lat="48.80637" lon="-0.58067">
        <ele>147.2</ele>
        <time>2013-07-05T12:52:44Z</time>
      </trkpt>
      <trkpt lat="48.80628" lon="-0.58062">
        <ele>147.2</ele>
        <time>2013-07-05T12:52:46Z</time>
      </trkpt>
      <trkpt lat="48.80588" lon="-0.58036">
        <ele>146.2</ele>
        <time>2013-07-05T12:52:56Z</time>
      </trkpt>
      <trkpt lat="48.80572" lon="-0.58033">
        <ele>146.8</ele>
        <time>2013-07-05T12:53:04Z</time>
      </trkpt>
      <trkpt lat="48.80572" lon="-0.58031">
        <ele>146.8</ele>
        <time>2013-07-05T12:53:05Z</time>
      </trkpt>
      <trkpt lat="48.80573" lon="-0.57985">
        <ele>147.2</ele>
        <time>2013-07-05T12:53:15Z</time>
      </trkpt>
      <trkpt lat="48.80569" lon="-0.57949">
        <ele>148.2</ele>
        <time>2013-07-05T12:53:23Z</time>
      </trkpt>
      <trkpt lat="48.80541" lon="-0.57932">
        <ele>151.6</ele>
        <time>2013-07-05T12:53:34Z</time>
      </trkpt>
      <trkpt lat="48.80526" lon="-0.57931">
        <ele>153</ele>
        <time>2013-07-05T12:53:39Z</time>
      </trkpt>
      <trkpt lat="48.80521" lon="-0.57926">
        <ele>155</ele>
        <time>2013-07-05T12:53:41Z</time>
      </trkpt>
      <trkpt lat="48.80518" lon="-0.57921">
        <ele>155</ele>
        <time>2013-07-05T12:53:42Z</time>
      </trkpt>
      <trkpt lat="48.80516" lon="-0.57917">
        <ele>155.8</ele>
        <time>2013-07-05T12:53:43Z</time>
      </trkpt>
      <trkpt lat="48.80504" lon="-0.57907">
        <ele>156.8</ele>
        <time>2013-07-05T12:53:58Z</time>
      </trkpt>
      <trkpt lat="48.80499" lon="-0.57893">
        <ele>156.8</ele>
        <time>2013-07-05T12:54:02Z</time>
      </trkpt>
      <trkpt lat="48.80493" lon="-0.57827">
        <ele>157.8</ele>
        <time>2013-07-05T12:54:15Z</time>
      </trkpt>
      <trkpt lat="48.80474" lon="-0.57765">
        <ele>157.4</ele>
        <time>2013-07-05T12:54:27Z</time>
      </trkpt>
      <trkpt lat="48.80471" lon="-0.57763">
        <ele>157.8</ele>
        <time>2013-07-05T12:54:29Z</time>
      </trkpt>
      <trkpt lat="48.8046" lon="-0.57766">
        <ele>161.2</ele>
        <time>2013-07-05T12:54:36Z</time>
      </trkpt>
      <trkpt lat="48.80448" lon="-0.57775">
        <ele>164.6</ele>
        <time>2013-07-05T12:54:45Z</time>
      </trkpt>
      <trkpt lat="48.80419" lon="-0.57806">
        <ele>165.4</ele>
        <time>2013-07-05T12:54:58Z</time>
      </trkpt>
      <trkpt lat="48.80393" lon="-0.57839">
        <ele>163.6</ele>
        <time>2013-07-05T12:55:10Z</time>
      </trkpt>
      <trkpt lat="48.80381" lon="-0.57845">
        <ele>163</ele>
        <time>2013-07-05T12:55:33Z</time>
      </trkpt>
      <trkpt lat="48.80385" lon="-0.57843">
        <ele>163.6</ele>
        <time>2013-07-05T12:56:04Z</time>
      </trkpt>
      <trkpt lat="48.8038" lon="-0.5785">
        <ele>163</ele>
        <time>2013-07-05T12:56:33Z</time>
      </trkpt>
      <trkpt lat="48.80353" lon="-0.5787">
        <ele>162.2</ele>
        <time>2013-07-05T12:56:42Z</time>
      </trkpt>
      <trkpt lat="48.80327" lon="-0.57882">
        <ele>161.6</ele>
        <time>2013-07-05T12:56:49Z</time>
      </trkpt>
      <trkpt lat="48.80323" lon="-0.5788">
        <ele>162.2</ele>
        <time>2013-07-05T12:56:50Z</time>
      </trkpt>
      <trkpt lat="48.80319" lon="-0.57879">
        <ele>162.2</ele>
        <time>2013-07-05T12:56:51Z</time>
      </trkpt>
      <trkpt lat="48.80287" lon="-0.57874">
        <ele>163.6</ele>
        <time>2013-07-05T12:57:00Z</time>
      </trkpt>
      <trkpt lat="48.80284" lon="-0.57876">
        <ele>163</ele>
        <time>2013-07-05T12:57:01Z</time>
      </trkpt>
      <trkpt lat="48.80282" lon="-0.57878">
        <ele>163</ele>
        <time>2013-07-05T12:57:02Z</time>
      </trkpt>
      <trkpt lat="48.8025" lon="-0.57903">
        <ele>165.4</ele>
        <time>2013-07-05T12:57:16Z</time>
      </trkpt>
      <trkpt lat="48.80218" lon="-0.57921">
        <ele>168.8</ele>
        <time>2013-07-05T12:57:28Z</time>
      </trkpt>
      <trkpt lat="48.80181" lon="-0.57935">
        <ele>170.2</ele>
        <time>2013-07-05T12:57:40Z</time>
      </trkpt>
      <trkpt lat="48.80174" lon="-0.57937">
        <ele>171.8</ele>
        <time>2013-07-05T12:57:43Z</time>
      </trkpt>
      <trkpt lat="48.80137" lon="-0.57941">
        <ele>172.6</ele>
        <time>2013-07-05T12:57:56Z</time>
      </trkpt>
      <trkpt lat="48.80103" lon="-0.57945">
        <ele>173.6</ele>
        <time>2013-07-05T12:58:08Z</time>
      </trkpt>
      <trkpt lat="48.80063" lon="-0.57965">
        <ele>174.2</ele>
        <time>2013-07-05T12:58:21Z</time>
      </trkpt>
      <trkpt lat="48.80027" lon="-0.57995">
        <ele>171.2</ele>
        <time>2013-07-05T12:58:31Z</time>
      </trkpt>
      <trkpt lat="48.79996" lon="-0.58027">
        <ele>172.2</ele>
        <time>2013-07-05T12:58:42Z</time>
      </trkpt>
      <trkpt lat="48.79965" lon="-0.58058">
        <ele>173.2</ele>
        <time>2013-07-05T12:58:55Z</time>
      </trkpt>
      <trkpt lat="48.79933" lon="-0.58089">
        <ele>173.6</ele>
        <time>2013-07-05T12:59:08Z</time>
      </trkpt>
      <trkpt lat="48.79915" lon="-0.58117">
        <ele>173.2</ele>
        <time>2013-07-05T12:59:19Z</time>
      </trkpt>
      <trkpt lat="48.79875" lon="-0.58174">
        <ele>174.6</ele>
        <time>2013-07-05T12:59:31Z</time>
      </trkpt>
      <trkpt lat="48.79848" lon="-0.58211">
        <ele>176.6</ele>
        <time>2013-07-05T12:59:40Z</time>
      </trkpt>
      <trkpt lat="48.79797" lon="-0.58262">
        <ele>179.4</ele>
        <time>2013-07-05T12:59:53Z</time>
      </trkpt>
      <trkpt lat="48.79748" lon="-0.58306">
        <ele>177.6</ele>
        <time>2013-07-05T13:00:05Z</time>
      </trkpt>
      <trkpt lat="48.79743" lon="-0.58313">
        <ele>177.6</ele>
        <time>2013-07-05T13:00:06Z</time>
      </trkpt>
      <trkpt lat="48.79738" lon="-0.5832">
        <ele>177.6</ele>
        <time>2013-07-05T13:00:07Z</time>
      </trkpt>
      <trkpt lat="48.79724" lon="-0.58358">
        <ele>174.2</ele>
        <time>2013-07-05T13:00:12Z</time>
      </trkpt>
      <trkpt lat="48.7972" lon="-0.58365">
        <ele>173.2</ele>
        <time>2013-07-05T13:00:13Z</time>
      </trkpt>
      <trkpt lat="48.79715" lon="-0.58371">
        <ele>174.2</ele>
        <time>2013-07-05T13:00:14Z</time>
      </trkpt>
      <trkpt lat="48.7971" lon="-0.58376">
        <ele>173.2</ele>
        <time>2013-07-05T13:00:15Z</time>
      </trkpt>
      <trkpt lat="48.79704" lon="-0.58379">
        <ele>173.2</ele>
        <time>2013-07-05T13:00:16Z</time>
      </trkpt>
      <trkpt lat="48.79697" lon="-0.58381">
        <ele>172.6</ele>
        <time>2013-07-05T13:00:17Z</time>
      </trkpt>
      <trkpt lat="48.7969" lon="-0.58382">
        <ele>171.8</ele>
        <time>2013-07-05T13:00:18Z</time>
      </trkpt>
      <trkpt lat="48.79682" lon="-0.58382">
        <ele>171.2</ele>
        <time>2013-07-05T13:00:19Z</time>
      </trkpt>
      <trkpt lat="48.79675" lon="-0.58381">
        <ele>170.2</ele>
        <time>2013-07-05T13:00:20Z</time>
      </trkpt>
      <trkpt lat="48.79668" lon="-0.58379">
        <ele>169.4</ele>
        <time>2013-07-05T13:00:21Z</time>
      </trkpt>
      <trkpt lat="48.79661" lon="-0.5838">
        <ele>169.8</ele>
        <time>2013-07-05T13:00:22Z</time>
      </trkpt>
      <trkpt lat="48.79654" lon="-0.58382">
        <ele>169.4</ele>
        <time>2013-07-05T13:00:23Z</time>
      </trkpt>
      <trkpt lat="48.79648" lon="-0.58385">
        <ele>169.8</ele>
        <time>2013-07-05T13:00:24Z</time>
      </trkpt>
      <trkpt lat="48.79643" lon="-0.58389">
        <ele>169.4</ele>
        <time>2013-07-05T13:00:25Z</time>
      </trkpt>
      <trkpt lat="48.79638" lon="-0.58393">
        <ele>169.8</ele>
        <time>2013-07-05T13:00:26Z</time>
      </trkpt>
      <trkpt lat="48.79633" lon="-0.58397">
        <ele>170.2</ele>
        <time>2013-07-05T13:00:27Z</time>
      </trkpt>
      <trkpt lat="48.79607" lon="-0.58429">
        <ele>172.6</ele>
        <time>2013-07-05T13:00:34Z</time>
      </trkpt>
      <trkpt lat="48.79591" lon="-0.58471">
        <ele>175.2</ele>
        <time>2013-07-05T13:00:45Z</time>
      </trkpt>
      <trkpt lat="48.79596" lon="-0.58501">
        <ele>173.6</ele>
        <time>2013-07-05T13:00:49Z</time>
      </trkpt>
      <trkpt lat="48.79606" lon="-0.58639">
        <ele>170.8</ele>
        <time>2013-07-05T13:01:05Z</time>
      </trkpt>
      <trkpt lat="48.79606" lon="-0.58661">
        <ele>172.2</ele>
        <time>2013-07-05T13:01:08Z</time>
      </trkpt>
      <trkpt lat="48.79605" lon="-0.58669">
        <ele>171.2</ele>
        <time>2013-07-05T13:01:09Z</time>
      </trkpt>
      <trkpt lat="48.79604" lon="-0.58677">
        <ele>171.2</ele>
        <time>2013-07-05T13:01:10Z</time>
      </trkpt>
      <trkpt lat="48.79602" lon="-0.58684">
        <ele>170.8</ele>
        <time>2013-07-05T13:01:11Z</time>
      </trkpt>
      <trkpt lat="48.796" lon="-0.58692">
        <ele>170.2</ele>
        <time>2013-07-05T13:01:12Z</time>
      </trkpt>
      <trkpt lat="48.79597" lon="-0.58699">
        <ele>170.2</ele>
        <time>2013-07-05T13:01:13Z</time>
      </trkpt>
      <trkpt lat="48.79594" lon="-0.58707">
        <ele>170.8</ele>
        <time>2013-07-05T13:01:14Z</time>
      </trkpt>
      <trkpt lat="48.79591" lon="-0.58714">
        <ele>169.8</ele>
        <time>2013-07-05T13:01:15Z</time>
      </trkpt>
      <trkpt lat="48.79587" lon="-0.5872">
        <ele>169.8</ele>
        <time>2013-07-05T13:01:16Z</time>
      </trkpt>
      <trkpt lat="48.79526" lon="-0.58799">
        <ele>172.2</ele>
        <time>2013-07-05T13:01:30Z</time>
      </trkpt>
      <trkpt lat="48.79498" lon="-0.58858">
        <ele>174.2</ele>
        <time>2013-07-05T13:01:39Z</time>
      </trkpt>
      <trkpt lat="48.79495" lon="-0.58865">
        <ele>174.6</ele>
        <time>2013-07-05T13:01:40Z</time>
      </trkpt>
      <trkpt lat="48.79493" lon="-0.58873">
        <ele>174.6</ele>
        <time>2013-07-05T13:01:41Z</time>
      </trkpt>
      <trkpt lat="48.79492" lon="-0.58882">
        <ele>175.2</ele>
        <time>2013-07-05T13:01:42Z</time>
      </trkpt>
      <trkpt lat="48.7949" lon="-0.5889">
        <ele>175.2</ele>
        <time>2013-07-05T13:01:43Z</time>
      </trkpt>
      <trkpt lat="48.79482" lon="-0.58995">
        <ele>180.4</ele>
        <time>2013-07-05T13:01:57Z</time>
      </trkpt>
      <trkpt lat="48.7948" lon="-0.59013">
        <ele>178.4</ele>
        <time>2013-07-05T13:02:00Z</time>
      </trkpt>
      <trkpt lat="48.7948" lon="-0.59056">
        <ele>179</ele>
        <time>2013-07-05T13:02:07Z</time>
      </trkpt>
      <trkpt lat="48.79481" lon="-0.5906">
        <ele>180</ele>
        <time>2013-07-05T13:02:08Z</time>
      </trkpt>
      <trkpt lat="48.79483" lon="-0.59063">
        <ele>180</ele>
        <time>2013-07-05T13:02:09Z</time>
      </trkpt>
      <trkpt lat="48.79487" lon="-0.59064">
        <ele>179.4</ele>
        <time>2013-07-05T13:02:10Z</time>
      </trkpt>
      <trkpt lat="48.79491" lon="-0.59065">
        <ele>179.4</ele>
        <time>2013-07-05T13:02:11Z</time>
      </trkpt>
      <trkpt lat="48.79571" lon="-0.59098">
        <ele>179.4</ele>
        <time>2013-07-05T13:02:25Z</time>
      </trkpt>
      <trkpt lat="48.79643" lon="-0.59135">
        <ele>179</ele>
        <time>2013-07-05T13:02:37Z</time>
      </trkpt>
      <trkpt lat="48.79647" lon="-0.59142">
        <ele>179.4</ele>
        <time>2013-07-05T13:02:38Z</time>
      </trkpt>
      <trkpt lat="48.7965" lon="-0.5915">
        <ele>179.4</ele>
        <time>2013-07-05T13:02:39Z</time>
      </trkpt>
      <trkpt lat="48.7965" lon="-0.59159">
        <ele>179.4</ele>
        <time>2013-07-05T13:02:40Z</time>
      </trkpt>
      <trkpt lat="48.79649" lon="-0.59168">
        <ele>179.4</ele>
        <time>2013-07-05T13:02:41Z</time>
      </trkpt>
      <trkpt lat="48.79648" lon="-0.59176">
        <ele>179.4</ele>
        <time>2013-07-05T13:02:42Z</time>
      </trkpt>
      <trkpt lat="48.79645" lon="-0.59191">
        <ele>179.4</ele>
        <time>2013-07-05T13:02:44Z</time>
      </trkpt>
      <trkpt lat="48.79627" lon="-0.5931">
        <ele>178</ele>
        <time>2013-07-05T13:03:00Z</time>
      </trkpt>
      <trkpt lat="48.79605" lon="-0.59458">
        <ele>175.2</ele>
        <time>2013-07-05T13:03:16Z</time>
      </trkpt>
      <trkpt lat="48.79584" lon="-0.59592">
        <ele>171.8</ele>
        <time>2013-07-05T13:03:31Z</time>
      </trkpt>
      <trkpt lat="48.79562" lon="-0.5971">
        <ele>171.2</ele>
        <time>2013-07-05T13:03:46Z</time>
      </trkpt>
      <trkpt lat="48.79549" lon="-0.59806">
        <ele>168.8</ele>
        <time>2013-07-05T13:03:58Z</time>
      </trkpt>
      <trkpt lat="48.79551" lon="-0.59878">
        <ele>167.4</ele>
        <time>2013-07-05T13:04:07Z</time>
      </trkpt>
      <trkpt lat="48.79551" lon="-0.59908">
        <ele>167.4</ele>
        <time>2013-07-05T13:04:11Z</time>
      </trkpt>
      <trkpt lat="48.79549" lon="-0.59915">
        <ele>167</ele>
        <time>2013-07-05T13:04:12Z</time>
      </trkpt>
      <trkpt lat="48.79548" lon="-0.59922">
        <ele>166.4</ele>
        <time>2013-07-05T13:04:13Z</time>
      </trkpt>
      <trkpt lat="48.79545" lon="-0.59929">
        <ele>166.4</ele>
        <time>2013-07-05T13:04:14Z</time>
      </trkpt>
      <trkpt lat="48.79543" lon="-0.59936">
        <ele>166</ele>
        <time>2013-07-05T13:04:15Z</time>
      </trkpt>
      <trkpt lat="48.79539" lon="-0.59942">
        <ele>166</ele>
        <time>2013-07-05T13:04:16Z</time>
      </trkpt>
      <trkpt lat="48.79525" lon="-0.59969">
        <ele>164.6</ele>
        <time>2013-07-05T13:04:20Z</time>
      </trkpt>
      <trkpt lat="48.7952" lon="-0.59973">
        <ele>164.6</ele>
        <time>2013-07-05T13:04:21Z</time>
      </trkpt>
      <trkpt lat="48.79515" lon="-0.59975">
        <ele>164.6</ele>
        <time>2013-07-05T13:04:22Z</time>
      </trkpt>
      <trkpt lat="48.79509" lon="-0.59974">
        <ele>164</ele>
        <time>2013-07-05T13:04:23Z</time>
      </trkpt>
      <trkpt lat="48.79504" lon="-0.59971">
        <ele>164</ele>
        <time>2013-07-05T13:04:24Z</time>
      </trkpt>
      <trkpt lat="48.79498" lon="-0.59966">
        <ele>163</ele>
        <time>2013-07-05T13:04:25Z</time>
      </trkpt>
      <trkpt lat="48.79493" lon="-0.59961">
        <ele>162.6</ele>
        <time>2013-07-05T13:04:26Z</time>
      </trkpt>
      <trkpt lat="48.79481" lon="-0.59951">
        <ele>162.2</ele>
        <time>2013-07-05T13:04:28Z</time>
      </trkpt>
      <trkpt lat="48.79475" lon="-0.59947">
        <ele>161.2</ele>
        <time>2013-07-05T13:04:29Z</time>
      </trkpt>
      <trkpt lat="48.79468" lon="-0.59945">
        <ele>161.2</ele>
        <time>2013-07-05T13:04:30Z</time>
      </trkpt>
      <trkpt lat="48.79462" lon="-0.59944">
        <ele>161.2</ele>
        <time>2013-07-05T13:04:31Z</time>
      </trkpt>
      <trkpt lat="48.79457" lon="-0.59944">
        <ele>160.2</ele>
        <time>2013-07-05T13:04:32Z</time>
      </trkpt>
      <trkpt lat="48.79442" lon="-0.59944">
        <ele>161.2</ele>
        <time>2013-07-05T13:04:35Z</time>
      </trkpt>
      <trkpt lat="48.7939" lon="-0.59937">
        <ele>163.6</ele>
        <time>2013-07-05T13:04:47Z</time>
      </trkpt>
      <trkpt lat="48.79386" lon="-0.59933">
        <ele>163.6</ele>
        <time>2013-07-05T13:04:48Z</time>
      </trkpt>
      <trkpt lat="48.79382" lon="-0.59929">
        <ele>164.6</ele>
        <time>2013-07-05T13:04:49Z</time>
      </trkpt>
      <trkpt lat="48.79351" lon="-0.59894">
        <ele>166.4</ele>
        <time>2013-07-05T13:04:57Z</time>
      </trkpt>
      <trkpt lat="48.7934" lon="-0.59884">
        <ele>167.4</ele>
        <time>2013-07-05T13:05:00Z</time>
      </trkpt>
      <trkpt lat="48.79336" lon="-0.59881">
        <ele>167.8</ele>
        <time>2013-07-05T13:05:01Z</time>
      </trkpt>
      <trkpt lat="48.79286" lon="-0.59859">
        <ele>171.2</ele>
        <time>2013-07-05T13:05:12Z</time>
      </trkpt>
      <trkpt lat="48.79282" lon="-0.59857">
        <ele>171.8</ele>
        <time>2013-07-05T13:05:13Z</time>
      </trkpt>
      <trkpt lat="48.79241" lon="-0.59827">
        <ele>174.6</ele>
        <time>2013-07-05T13:05:22Z</time>
      </trkpt>
      <trkpt lat="48.79168" lon="-0.59771">
        <ele>177</ele>
        <time>2013-07-05T13:05:37Z</time>
      </trkpt>
      <trkpt lat="48.79134" lon="-0.59752">
        <ele>178</ele>
        <time>2013-07-05T13:05:45Z</time>
      </trkpt>
      <trkpt lat="48.79132" lon="-0.59755">
        <ele>178</ele>
        <time>2013-07-05T13:05:46Z</time>
      </trkpt>
      <trkpt lat="48.79131" lon="-0.5976">
        <ele>178</ele>
        <time>2013-07-05T13:05:47Z</time>
      </trkpt>
      <trkpt lat="48.79131" lon="-0.59765">
        <ele>178</ele>
        <time>2013-07-05T13:05:48Z</time>
      </trkpt>
      <trkpt lat="48.79132" lon="-0.59771">
        <ele>178</ele>
        <time>2013-07-05T13:05:49Z</time>
      </trkpt>
      <trkpt lat="48.79133" lon="-0.59777">
        <ele>177.6</ele>
        <time>2013-07-05T13:05:50Z</time>
      </trkpt>
      <trkpt lat="48.79145" lon="-0.59894">
        <ele>176.6</ele>
        <time>2013-07-05T13:06:05Z</time>
      </trkpt>
      <trkpt lat="48.7916" lon="-0.60067">
        <ele>176</ele>
        <time>2013-07-05T13:06:24Z</time>
      </trkpt>
      <trkpt lat="48.79172" lon="-0.60232">
        <ele>175.2</ele>
        <time>2013-07-05T13:06:41Z</time>
      </trkpt>
      <trkpt lat="48.79172" lon="-0.60386">
        <ele>175.6</ele>
        <time>2013-07-05T13:06:57Z</time>
      </trkpt>
      <trkpt lat="48.79161" lon="-0.60494">
        <ele>178.4</ele>
        <time>2013-07-05T13:07:11Z</time>
      </trkpt>
      <trkpt lat="48.79161" lon="-0.60501">
        <ele>178.4</ele>
        <time>2013-07-05T13:07:12Z</time>
      </trkpt>
      <trkpt lat="48.7917" lon="-0.6056">
        <ele>178.4</ele>
        <time>2013-07-05T13:07:23Z</time>
      </trkpt>
      <trkpt lat="48.79174" lon="-0.60562">
        <ele>178</ele>
        <time>2013-07-05T13:07:24Z</time>
      </trkpt>
      <trkpt lat="48.79178" lon="-0.60563">
        <ele>177.6</ele>
        <time>2013-07-05T13:07:25Z</time>
      </trkpt>
      <trkpt lat="48.79183" lon="-0.60562">
        <ele>176.6</ele>
        <time>2013-07-05T13:07:26Z</time>
      </trkpt>
      <trkpt lat="48.79188" lon="-0.6056">
        <ele>177</ele>
        <time>2013-07-05T13:07:27Z</time>
      </trkpt>
      <trkpt lat="48.79193" lon="-0.60555">
        <ele>176.6</ele>
        <time>2013-07-05T13:07:28Z</time>
      </trkpt>
      <trkpt lat="48.79199" lon="-0.6055">
        <ele>176.6</ele>
        <time>2013-07-05T13:07:29Z</time>
      </trkpt>
      <trkpt lat="48.79215" lon="-0.60538">
        <ele>175.2</ele>
        <time>2013-07-05T13:07:32Z</time>
      </trkpt>
      <trkpt lat="48.7922" lon="-0.60536">
        <ele>175.6</ele>
        <time>2013-07-05T13:07:33Z</time>
      </trkpt>
      <trkpt lat="48.79225" lon="-0.60537">
        <ele>176</ele>
        <time>2013-07-05T13:07:34Z</time>
      </trkpt>
      <trkpt lat="48.79228" lon="-0.6054">
        <ele>175.6</ele>
        <time>2013-07-05T13:07:35Z</time>
      </trkpt>
      <trkpt lat="48.79231" lon="-0.60544">
        <ele>175.6</ele>
        <time>2013-07-05T13:07:36Z</time>
      </trkpt>
      <trkpt lat="48.79231" lon="-0.60547">
        <ele>175.6</ele>
        <time>2013-07-05T13:07:37Z</time>
      </trkpt>
      <trkpt lat="48.7923" lon="-0.6055">
        <ele>175.6</ele>
        <time>2013-07-05T13:07:38Z</time>
      </trkpt>
      <trkpt lat="48.79229" lon="-0.60553">
        <ele>175.6</ele>
        <time>2013-07-05T13:07:39Z</time>
      </trkpt>
      <trkpt lat="48.79228" lon="-0.60555">
        <ele>176</ele>
        <time>2013-07-05T13:07:40Z</time>
      </trkpt>
      <trkpt lat="48.79217" lon="-0.60609">
        <ele>175.2</ele>
        <time>2013-07-05T13:07:50Z</time>
      </trkpt>
      <trkpt lat="48.79194" lon="-0.60716">
        <ele>176</ele>
        <time>2013-07-05T13:08:03Z</time>
      </trkpt>
      <trkpt lat="48.79163" lon="-0.60845">
        <ele>178</ele>
        <time>2013-07-05T13:08:18Z</time>
      </trkpt>
      <trkpt lat="48.79136" lon="-0.60965">
        <ele>179.4</ele>
        <time>2013-07-05T13:08:32Z</time>
      </trkpt>
      <trkpt lat="48.79123" lon="-0.61015">
        <ele>180.4</ele>
        <time>2013-07-05T13:08:39Z</time>
      </trkpt>
      <trkpt lat="48.79122" lon="-0.61021">
        <ele>180.4</ele>
        <time>2013-07-05T13:08:40Z</time>
      </trkpt>
      <trkpt lat="48.79122" lon="-0.61028">
        <ele>180.8</ele>
        <time>2013-07-05T13:08:41Z</time>
      </trkpt>
      <trkpt lat="48.7912" lon="-0.61054">
        <ele>180</ele>
        <time>2013-07-05T13:08:45Z</time>
      </trkpt>
      <trkpt lat="48.79118" lon="-0.61062">
        <ele>180.8</ele>
        <time>2013-07-05T13:08:46Z</time>
      </trkpt>
      <trkpt lat="48.79103" lon="-0.61121">
        <ele>180.8</ele>
        <time>2013-07-05T13:08:54Z</time>
      </trkpt>
      <trkpt lat="48.79102" lon="-0.61128">
        <ele>181.4</ele>
        <time>2013-07-05T13:08:55Z</time>
      </trkpt>
      <trkpt lat="48.79101" lon="-0.61137">
        <ele>181.4</ele>
        <time>2013-07-05T13:08:56Z</time>
      </trkpt>
      <trkpt lat="48.79078" lon="-0.61209">
        <ele>181.4</ele>
        <time>2013-07-05T13:09:06Z</time>
      </trkpt>
      <trkpt lat="48.79076" lon="-0.61216">
        <ele>181.4</ele>
        <time>2013-07-05T13:09:07Z</time>
      </trkpt>
      <trkpt lat="48.79073" lon="-0.61223">
        <ele>181.8</ele>
        <time>2013-07-05T13:09:08Z</time>
      </trkpt>
      <trkpt lat="48.7907" lon="-0.6123">
        <ele>180.8</ele>
        <time>2013-07-05T13:09:09Z</time>
      </trkpt>
      <trkpt lat="48.79068" lon="-0.61238">
        <ele>181.4</ele>
        <time>2013-07-05T13:09:10Z</time>
      </trkpt>
      <trkpt lat="48.79059" lon="-0.61262">
        <ele>181.8</ele>
        <time>2013-07-05T13:09:13Z</time>
      </trkpt>
      <trkpt lat="48.79044" lon="-0.61325">
        <ele>181.4</ele>
        <time>2013-07-05T13:09:21Z</time>
      </trkpt>
      <trkpt lat="48.79042" lon="-0.61332">
        <ele>180.8</ele>
        <time>2013-07-05T13:09:22Z</time>
      </trkpt>
      <trkpt lat="48.7904" lon="-0.61339">
        <ele>180.4</ele>
        <time>2013-07-05T13:09:23Z</time>
      </trkpt>
      <trkpt lat="48.79038" lon="-0.61347">
        <ele>180.8</ele>
        <time>2013-07-05T13:09:24Z</time>
      </trkpt>
      <trkpt lat="48.79036" lon="-0.61354">
        <ele>181.4</ele>
        <time>2013-07-05T13:09:25Z</time>
      </trkpt>
      <trkpt lat="48.79035" lon="-0.61362">
        <ele>181.8</ele>
        <time>2013-07-05T13:09:26Z</time>
      </trkpt>
      <trkpt lat="48.79033" lon="-0.6137">
        <ele>181.4</ele>
        <time>2013-07-05T13:09:27Z</time>
      </trkpt>
      <trkpt lat="48.79031" lon="-0.61378">
        <ele>181.4</ele>
        <time>2013-07-05T13:09:28Z</time>
      </trkpt>
      <trkpt lat="48.79027" lon="-0.61395">
        <ele>180.8</ele>
        <time>2013-07-05T13:09:30Z</time>
      </trkpt>
      <trkpt lat="48.79023" lon="-0.61418">
        <ele>180.8</ele>
        <time>2013-07-05T13:09:33Z</time>
      </trkpt>
      <trkpt lat="48.79021" lon="-0.61428">
        <ele>181.4</ele>
        <time>2013-07-05T13:09:35Z</time>
      </trkpt>
      <trkpt lat="48.79021" lon="-0.61431">
        <ele>181.8</ele>
        <time>2013-07-05T13:09:36Z</time>
      </trkpt>
      <trkpt lat="48.79021" lon="-0.61433">
        <ele>182.4</ele>
        <time>2013-07-05T13:09:37Z</time>
      </trkpt>
      <trkpt lat="48.79022" lon="-0.61435">
        <ele>181.8</ele>
        <time>2013-07-05T13:09:38Z</time>
      </trkpt>
      <trkpt lat="48.79028" lon="-0.61438">
        <ele>181.4</ele>
        <time>2013-07-05T13:09:41Z</time>
      </trkpt>
      <trkpt lat="48.79052" lon="-0.61452">
        <ele>180.8</ele>
        <time>2013-07-05T13:09:47Z</time>
      </trkpt>
      <trkpt lat="48.79104" lon="-0.61478">
        <ele>179.4</ele>
        <time>2013-07-05T13:09:59Z</time>
      </trkpt>
      <trkpt lat="48.79145" lon="-0.61499">
        <ele>179</ele>
        <time>2013-07-05T13:10:08Z</time>
      </trkpt>
      <trkpt lat="48.7915" lon="-0.61501">
        <ele>179</ele>
        <time>2013-07-05T13:10:09Z</time>
      </trkpt>
      <trkpt lat="48.79154" lon="-0.61503">
        <ele>179</ele>
        <time>2013-07-05T13:10:10Z</time>
      </trkpt>
      <trkpt lat="48.79204" lon="-0.61525">
        <ele>177.6</ele>
        <time>2013-07-05T13:10:19Z</time>
      </trkpt>
      <trkpt lat="48.7921" lon="-0.61527">
        <ele>176.6</ele>
        <time>2013-07-05T13:10:20Z</time>
      </trkpt>
      <trkpt lat="48.79215" lon="-0.61529">
        <ele>177.6</ele>
        <time>2013-07-05T13:10:21Z</time>
      </trkpt>
      <trkpt lat="48.7925" lon="-0.61545">
        <ele>176.6</ele>
        <time>2013-07-05T13:10:28Z</time>
      </trkpt>
      <trkpt lat="48.79254" lon="-0.61546">
        <ele>176</ele>
        <time>2013-07-05T13:10:29Z</time>
      </trkpt>
      <trkpt lat="48.79268" lon="-0.6155">
        <ele>174.2</ele>
        <time>2013-07-05T13:10:32Z</time>
      </trkpt>
      <trkpt lat="48.79275" lon="-0.61554">
        <ele>173.6</ele>
        <time>2013-07-05T13:10:33Z</time>
      </trkpt>
      <trkpt lat="48.7936" lon="-0.61628">
        <ele>169.8</ele>
        <time>2013-07-05T13:10:47Z</time>
      </trkpt>
      <trkpt lat="48.79411" lon="-0.61672">
        <ele>167.4</ele>
        <time>2013-07-05T13:10:55Z</time>
      </trkpt>
      <trkpt lat="48.79418" lon="-0.61677">
        <ele>167.4</ele>
        <time>2013-07-05T13:10:56Z</time>
      </trkpt>
      <trkpt lat="48.79445" lon="-0.61695">
        <ele>164</ele>
        <time>2013-07-05T13:11:00Z</time>
      </trkpt>
      <trkpt lat="48.79473" lon="-0.61713">
        <ele>162.6</ele>
        <time>2013-07-05T13:11:04Z</time>
      </trkpt>
      <trkpt lat="48.7951" lon="-0.61726">
        <ele>160.2</ele>
        <time>2013-07-05T13:11:09Z</time>
      </trkpt>
      <trkpt lat="48.79542" lon="-0.6173">
        <ele>158.2</ele>
        <time>2013-07-05T13:11:13Z</time>
      </trkpt>
      <trkpt lat="48.79572" lon="-0.61732">
        <ele>156.4</ele>
        <time>2013-07-05T13:11:17Z</time>
      </trkpt>
      <trkpt lat="48.79579" lon="-0.61735">
        <ele>155.8</ele>
        <time>2013-07-05T13:11:18Z</time>
      </trkpt>
      <trkpt lat="48.79585" lon="-0.61738">
        <ele>155</ele>
        <time>2013-07-05T13:11:19Z</time>
      </trkpt>
      <trkpt lat="48.7959" lon="-0.61743">
        <ele>154.4</ele>
        <time>2013-07-05T13:11:20Z</time>
      </trkpt>
      <trkpt lat="48.79628" lon="-0.61775">
        <ele>151</ele>
        <time>2013-07-05T13:11:26Z</time>
      </trkpt>
      <trkpt lat="48.79658" lon="-0.61796">
        <ele>149.6</ele>
        <time>2013-07-05T13:11:31Z</time>
      </trkpt>
      <trkpt lat="48.79664" lon="-0.61798">
        <ele>149.2</ele>
        <time>2013-07-05T13:11:32Z</time>
      </trkpt>
      <trkpt lat="48.7967" lon="-0.61798">
        <ele>149.2</ele>
        <time>2013-07-05T13:11:33Z</time>
      </trkpt>
      <trkpt lat="48.7968" lon="-0.61799">
        <ele>148.6</ele>
        <time>2013-07-05T13:11:35Z</time>
      </trkpt>
      <trkpt lat="48.79684" lon="-0.618">
        <ele>148.6</ele>
        <time>2013-07-05T13:11:36Z</time>
      </trkpt>
      <trkpt lat="48.79687" lon="-0.61802">
        <ele>148.6</ele>
        <time>2013-07-05T13:11:37Z</time>
      </trkpt>
      <trkpt lat="48.79689" lon="-0.61805">
        <ele>149.2</ele>
        <time>2013-07-05T13:11:38Z</time>
      </trkpt>
      <trkpt lat="48.79691" lon="-0.61809">
        <ele>149.2</ele>
        <time>2013-07-05T13:11:39Z</time>
      </trkpt>
      <trkpt lat="48.79692" lon="-0.61812">
        <ele>148.6</ele>
        <time>2013-07-05T13:11:40Z</time>
      </trkpt>
      <trkpt lat="48.79697" lon="-0.61825">
        <ele>148.6</ele>
        <time>2013-07-05T13:11:43Z</time>
      </trkpt>
      <trkpt lat="48.79699" lon="-0.61828">
        <ele>148.6</ele>
        <time>2013-07-05T13:11:44Z</time>
      </trkpt>
      <trkpt lat="48.79707" lon="-0.61836">
        <ele>148.6</ele>
        <time>2013-07-05T13:11:54Z</time>
      </trkpt>
      <trkpt lat="48.79706" lon="-0.61837">
        <ele>148.2</ele>
        <time>2013-07-05T13:12:14Z</time>
      </trkpt>
      <trkpt lat="48.79706" lon="-0.6184">
        <ele>149.2</ele>
        <time>2013-07-05T13:12:38Z</time>
      </trkpt>
      <trkpt lat="48.79707" lon="-0.61843">
        <ele>148.6</ele>
        <time>2013-07-05T13:13:09Z</time>
      </trkpt>
      <trkpt lat="48.79709" lon="-0.61847">
        <ele>149.2</ele>
        <time>2013-07-05T13:13:47Z</time>
      </trkpt>
      <trkpt lat="48.79709" lon="-0.61846">
        <ele>149.6</ele>
        <time>2013-07-05T13:14:31Z</time>
      </trkpt>
      <trkpt lat="48.79707" lon="-0.61847">
        <ele>149.2</ele>
        <time>2013-07-05T13:15:13Z</time>
      </trkpt>
      <trkpt lat="48.79705" lon="-0.61844">
        <ele>149.2</ele>
        <time>2013-07-05T13:16:08Z</time>
      </trkpt>
      <trkpt lat="48.79708" lon="-0.61842">
        <ele>149.2</ele>
        <time>2013-07-05T13:16:51Z</time>
      </trkpt>
      <trkpt lat="48.7971" lon="-0.61837">
        <ele>149.6</ele>
        <time>2013-07-05T13:17:32Z</time>
      </trkpt>
      <trkpt lat="48.79711" lon="-0.61839">
        <ele>149.6</ele>
        <time>2013-07-05T13:17:38Z</time>
      </trkpt>
      <trkpt lat="48.79711" lon="-0.61841">
        <ele>149.6</ele>
        <time>2013-07-05T13:17:39Z</time>
      </trkpt>
      <trkpt lat="48.79711" lon="-0.61844">
        <ele>149.2</ele>
        <time>2013-07-05T13:17:40Z</time>
      </trkpt>
      <trkpt lat="48.79711" lon="-0.61846">
        <ele>148.6</ele>
        <time>2013-07-05T13:17:41Z</time>
      </trkpt>
      <trkpt lat="48.7971" lon="-0.61849">
        <ele>149.2</ele>
        <time>2013-07-05T13:17:42Z</time>
      </trkpt>
      <trkpt lat="48.7971" lon="-0.61851">
        <ele>149.2</ele>
        <time>2013-07-05T13:17:43Z</time>
      </trkpt>
      <trkpt lat="48.7971" lon="-0.61855">
        <ele>148.6</ele>
        <time>2013-07-05T13:17:44Z</time>
      </trkpt>
      <trkpt lat="48.7971" lon="-0.61858">
        <ele>149.2</ele>
        <time>2013-07-05T13:17:45Z</time>
      </trkpt>
      <trkpt lat="48.79709" lon="-0.61862">
        <ele>148.6</ele>
        <time>2013-07-05T13:17:46Z</time>
      </trkpt>
      <trkpt lat="48.79709" lon="-0.61867">
        <ele>149.2</ele>
        <time>2013-07-05T13:17:47Z</time>
      </trkpt>
      <trkpt lat="48.7971" lon="-0.61872">
        <ele>148.6</ele>
        <time>2013-07-05T13:17:48Z</time>
      </trkpt>
      <trkpt lat="48.7971" lon="-0.61878">
        <ele>148.2</ele>
        <time>2013-07-05T13:17:49Z</time>
      </trkpt>
      <trkpt lat="48.79712" lon="-0.61897">
        <ele>147.2</ele>
        <time>2013-07-05T13:17:52Z</time>
      </trkpt>
      <trkpt lat="48.79717" lon="-0.61959">
        <ele>144.4</ele>
        <time>2013-07-05T13:18:01Z</time>
      </trkpt>
      <trkpt lat="48.79718" lon="-0.61968">
        <ele>143.8</ele>
        <time>2013-07-05T13:18:04Z</time>
      </trkpt>
      <trkpt lat="48.7972" lon="-0.61977">
        <ele>142.8</ele>
        <time>2013-07-05T13:18:08Z</time>
      </trkpt>
      <trkpt lat="48.7972" lon="-0.61979">
        <ele>142.8</ele>
        <time>2013-07-05T13:18:09Z</time>
      </trkpt>
      <trkpt lat="48.79721" lon="-0.6198">
        <ele>143.4</ele>
        <time>2013-07-05T13:18:10Z</time>
      </trkpt>
      <trkpt lat="48.79722" lon="-0.61981">
        <ele>142.4</ele>
        <time>2013-07-05T13:18:11Z</time>
      </trkpt>
      <trkpt lat="48.79723" lon="-0.61981">
        <ele>142.8</ele>
        <time>2013-07-05T13:18:12Z</time>
      </trkpt>
      <trkpt lat="48.79725" lon="-0.61982">
        <ele>143.4</ele>
        <time>2013-07-05T13:18:13Z</time>
      </trkpt>
      <trkpt lat="48.79726" lon="-0.61982">
        <ele>143.8</ele>
        <time>2013-07-05T13:18:14Z</time>
      </trkpt>
      <trkpt lat="48.79762" lon="-0.61992">
        <ele>143.8</ele>
        <time>2013-07-05T13:18:27Z</time>
      </trkpt>
      <trkpt lat="48.79796" lon="-0.62002">
        <ele>143.4</ele>
        <time>2013-07-05T13:18:38Z</time>
      </trkpt>
      <trkpt lat="48.79852" lon="-0.62019">
        <ele>143.4</ele>
        <time>2013-07-05T13:18:52Z</time>
      </trkpt>
      <trkpt lat="48.79889" lon="-0.62033">
        <ele>143.4</ele>
        <time>2013-07-05T13:19:01Z</time>
      </trkpt>
      <trkpt lat="48.79899" lon="-0.62034">
        <ele>143.4</ele>
        <time>2013-07-05T13:19:03Z</time>
      </trkpt>
      <trkpt lat="48.79961" lon="-0.62054">
        <ele>141.4</ele>
        <time>2013-07-05T13:19:15Z</time>
      </trkpt>
      <trkpt lat="48.79977" lon="-0.62062">
        <ele>142</ele>
        <time>2013-07-05T13:19:18Z</time>
      </trkpt>
      <trkpt lat="48.80005" lon="-0.62078">
        <ele>143.4</ele>
        <time>2013-07-05T13:19:25Z</time>
      </trkpt>
      <trkpt lat="48.80029" lon="-0.621">
        <ele>140</ele>
        <time>2013-07-05T13:19:30Z</time>
      </trkpt>
      <trkpt lat="48.80042" lon="-0.62109">
        <ele>139</ele>
        <time>2013-07-05T13:19:32Z</time>
      </trkpt>
      <trkpt lat="48.8005" lon="-0.62112">
        <ele>138</ele>
        <time>2013-07-05T13:19:33Z</time>
      </trkpt>
      <trkpt lat="48.80066" lon="-0.62117">
        <ele>135.6</ele>
        <time>2013-07-05T13:19:35Z</time>
      </trkpt>
      <trkpt lat="48.80106" lon="-0.62131">
        <ele>134.2</ele>
        <time>2013-07-05T13:19:40Z</time>
      </trkpt>
      <trkpt lat="48.80128" lon="-0.62141">
        <ele>131.8</ele>
        <time>2013-07-05T13:19:43Z</time>
      </trkpt>
      <trkpt lat="48.80155" lon="-0.62151">
        <ele>128</ele>
        <time>2013-07-05T13:19:47Z</time>
      </trkpt>
      <trkpt lat="48.80171" lon="-0.62155">
        <ele>126</ele>
        <time>2013-07-05T13:19:50Z</time>
      </trkpt>
      <trkpt lat="48.80179" lon="-0.62168">
        <ele>124.2</ele>
        <time>2013-07-05T13:19:53Z</time>
      </trkpt>
      <trkpt lat="48.8018" lon="-0.62186">
        <ele>122.8</ele>
        <time>2013-07-05T13:19:56Z</time>
      </trkpt>
      <trkpt lat="48.80179" lon="-0.62193">
        <ele>123.2</ele>
        <time>2013-07-05T13:19:57Z</time>
      </trkpt>
      <trkpt lat="48.80178" lon="-0.62207">
        <ele>122.8</ele>
        <time>2013-07-05T13:19:59Z</time>
      </trkpt>
      <trkpt lat="48.80178" lon="-0.62214">
        <ele>122.2</ele>
        <time>2013-07-05T13:20:00Z</time>
      </trkpt>
      <trkpt lat="48.80178" lon="-0.62221">
        <ele>121.8</ele>
        <time>2013-07-05T13:20:01Z</time>
      </trkpt>
      <trkpt lat="48.80174" lon="-0.62267">
        <ele>121.8</ele>
        <time>2013-07-05T13:20:07Z</time>
      </trkpt>
      <trkpt lat="48.80171" lon="-0.62281">
        <ele>121.8</ele>
        <time>2013-07-05T13:20:09Z</time>
      </trkpt>
      <trkpt lat="48.80172" lon="-0.62288">
        <ele>121.8</ele>
        <time>2013-07-05T13:20:10Z</time>
      </trkpt>
      <trkpt lat="48.80174" lon="-0.62294">
        <ele>120.8</ele>
        <time>2013-07-05T13:20:11Z</time>
      </trkpt>
      <trkpt lat="48.80177" lon="-0.62298">
        <ele>121.2</ele>
        <time>2013-07-05T13:20:12Z</time>
      </trkpt>
      <trkpt lat="48.80181" lon="-0.62301">
        <ele>120.8</ele>
        <time>2013-07-05T13:20:13Z</time>
      </trkpt>
      <trkpt lat="48.80207" lon="-0.62319">
        <ele>120.4</ele>
        <time>2013-07-05T13:20:18Z</time>
      </trkpt>
      <trkpt lat="48.8021" lon="-0.62326">
        <ele>120.8</ele>
        <time>2013-07-05T13:20:19Z</time>
      </trkpt>
      <trkpt lat="48.80214" lon="-0.62333">
        <ele>120.8</ele>
        <time>2013-07-05T13:20:20Z</time>
      </trkpt>
      <trkpt lat="48.80252" lon="-0.62417">
        <ele>121.2</ele>
        <time>2013-07-05T13:20:32Z</time>
      </trkpt>
      <trkpt lat="48.80256" lon="-0.62423">
        <ele>120.4</ele>
        <time>2013-07-05T13:20:33Z</time>
      </trkpt>
      <trkpt lat="48.8026" lon="-0.62428">
        <ele>120.8</ele>
        <time>2013-07-05T13:20:34Z</time>
      </trkpt>
      <trkpt lat="48.80265" lon="-0.62431">
        <ele>120.4</ele>
        <time>2013-07-05T13:20:35Z</time>
      </trkpt>
      <trkpt lat="48.80271" lon="-0.62432">
        <ele>120.4</ele>
        <time>2013-07-05T13:20:36Z</time>
      </trkpt>
      <trkpt lat="48.80277" lon="-0.6243">
        <ele>120.4</ele>
        <time>2013-07-05T13:20:37Z</time>
      </trkpt>
      <trkpt lat="48.80283" lon="-0.62426">
        <ele>119.8</ele>
        <time>2013-07-05T13:20:38Z</time>
      </trkpt>
      <trkpt lat="48.80288" lon="-0.62419">
        <ele>119.8</ele>
        <time>2013-07-05T13:20:39Z</time>
      </trkpt>
      <trkpt lat="48.80293" lon="-0.62411">
        <ele>120.4</ele>
        <time>2013-07-05T13:20:40Z</time>
      </trkpt>
      <trkpt lat="48.80296" lon="-0.62402">
        <ele>119.8</ele>
        <time>2013-07-05T13:20:41Z</time>
      </trkpt>
      <trkpt lat="48.80299" lon="-0.62393">
        <ele>119.4</ele>
        <time>2013-07-05T13:20:42Z</time>
      </trkpt>
      <trkpt lat="48.80301" lon="-0.62383">
        <ele>120.4</ele>
        <time>2013-07-05T13:20:43Z</time>
      </trkpt>
      <trkpt lat="48.80304" lon="-0.62374">
        <ele>119.4</ele>
        <time>2013-07-05T13:20:44Z</time>
      </trkpt>
      <trkpt lat="48.80324" lon="-0.62305">
        <ele>120.4</ele>
        <time>2013-07-05T13:20:52Z</time>
      </trkpt>
      <trkpt lat="48.80329" lon="-0.62301">
        <ele>119.8</ele>
        <time>2013-07-05T13:20:53Z</time>
      </trkpt>
      <trkpt lat="48.80335" lon="-0.62299">
        <ele>119.8</ele>
        <time>2013-07-05T13:20:54Z</time>
      </trkpt>
      <trkpt lat="48.80341" lon="-0.62299">
        <ele>120.4</ele>
        <time>2013-07-05T13:20:55Z</time>
      </trkpt>
      <trkpt lat="48.80346" lon="-0.623">
        <ele>119.8</ele>
        <time>2013-07-05T13:20:56Z</time>
      </trkpt>
      <trkpt lat="48.80353" lon="-0.62303">
        <ele>119.4</ele>
        <time>2013-07-05T13:20:57Z</time>
      </trkpt>
      <trkpt lat="48.80424" lon="-0.62328">
        <ele>119.8</ele>
        <time>2013-07-05T13:21:08Z</time>
      </trkpt>
      <trkpt lat="48.8043" lon="-0.62329">
        <ele>119.4</ele>
        <time>2013-07-05T13:21:09Z</time>
      </trkpt>
      <trkpt lat="48.80437" lon="-0.62328">
        <ele>119.4</ele>
        <time>2013-07-05T13:21:10Z</time>
      </trkpt>
      <trkpt lat="48.80443" lon="-0.62327">
        <ele>119.4</ele>
        <time>2013-07-05T13:21:11Z</time>
      </trkpt>
      <trkpt lat="48.80449" lon="-0.62324">
        <ele>118.8</ele>
        <time>2013-07-05T13:21:12Z</time>
      </trkpt>
      <trkpt lat="48.80456" lon="-0.62321">
        <ele>119.4</ele>
        <time>2013-07-05T13:21:13Z</time>
      </trkpt>
      <trkpt lat="48.80462" lon="-0.62318">
        <ele>119.4</ele>
        <time>2013-07-05T13:21:14Z</time>
      </trkpt>
      <trkpt lat="48.8052" lon="-0.62278">
        <ele>120.4</ele>
        <time>2013-07-05T13:21:24Z</time>
      </trkpt>
      <trkpt lat="48.80541" lon="-0.62267">
        <ele>120.4</ele>
        <time>2013-07-05T13:21:28Z</time>
      </trkpt>
      <trkpt lat="48.80545" lon="-0.62269">
        <ele>120.8</ele>
        <time>2013-07-05T13:21:29Z</time>
      </trkpt>
      <trkpt lat="48.80549" lon="-0.62275">
        <ele>120.4</ele>
        <time>2013-07-05T13:21:30Z</time>
      </trkpt>
      <trkpt lat="48.8055" lon="-0.62282">
        <ele>119.8</ele>
        <time>2013-07-05T13:21:31Z</time>
      </trkpt>
      <trkpt lat="48.8055" lon="-0.6229">
        <ele>119.8</ele>
        <time>2013-07-05T13:21:32Z</time>
      </trkpt>
      <trkpt lat="48.8055" lon="-0.62298">
        <ele>119.8</ele>
        <time>2013-07-05T13:21:33Z</time>
      </trkpt>
      <trkpt lat="48.80543" lon="-0.62412">
        <ele>120.8</ele>
        <time>2013-07-05T13:21:46Z</time>
      </trkpt>
      <trkpt lat="48.80542" lon="-0.62531">
        <ele>122.8</ele>
        <time>2013-07-05T13:22:00Z</time>
      </trkpt>
      <trkpt lat="48.80544" lon="-0.62565">
        <ele>122.8</ele>
        <time>2013-07-05T13:22:04Z</time>
      </trkpt>
      <trkpt lat="48.80543" lon="-0.62573">
        <ele>122.8</ele>
        <time>2013-07-05T13:22:05Z</time>
      </trkpt>
      <trkpt lat="48.80542" lon="-0.62581">
        <ele>122.8</ele>
        <time>2013-07-05T13:22:06Z</time>
      </trkpt>
      <trkpt lat="48.8054" lon="-0.6259">
        <ele>122.2</ele>
        <time>2013-07-05T13:22:07Z</time>
      </trkpt>
      <trkpt lat="48.80537" lon="-0.62598">
        <ele>122.8</ele>
        <time>2013-07-05T13:22:08Z</time>
      </trkpt>
      <trkpt lat="48.80534" lon="-0.62606">
        <ele>122.8</ele>
        <time>2013-07-05T13:22:09Z</time>
      </trkpt>
      <trkpt lat="48.80519" lon="-0.62645">
        <ele>122.8</ele>
        <time>2013-07-05T13:22:14Z</time>
      </trkpt>
      <trkpt lat="48.80517" lon="-0.62654">
        <ele>122.8</ele>
        <time>2013-07-05T13:22:15Z</time>
      </trkpt>
      <trkpt lat="48.80515" lon="-0.62662">
        <ele>123.2</ele>
        <time>2013-07-05T13:22:16Z</time>
      </trkpt>
      <trkpt lat="48.8049" lon="-0.62796">
        <ele>122.8</ele>
        <time>2013-07-05T13:22:30Z</time>
      </trkpt>
      <trkpt lat="48.80459" lon="-0.62918">
        <ele>122.2</ele>
        <time>2013-07-05T13:22:44Z</time>
      </trkpt>
      <trkpt lat="48.80455" lon="-0.62934">
        <ele>122.2</ele>
        <time>2013-07-05T13:22:46Z</time>
      </trkpt>
      <trkpt lat="48.80455" lon="-0.62942">
        <ele>122.2</ele>
        <time>2013-07-05T13:22:47Z</time>
      </trkpt>
      <trkpt lat="48.80456" lon="-0.62949">
        <ele>122.8</ele>
        <time>2013-07-05T13:22:48Z</time>
      </trkpt>
      <trkpt lat="48.80459" lon="-0.62955">
        <ele>122.8</ele>
        <time>2013-07-05T13:22:49Z</time>
      </trkpt>
      <trkpt lat="48.80463" lon="-0.62958">
        <ele>122.8</ele>
        <time>2013-07-05T13:22:50Z</time>
      </trkpt>
      <trkpt lat="48.80468" lon="-0.6296">
        <ele>123.2</ele>
        <time>2013-07-05T13:22:51Z</time>
      </trkpt>
      <trkpt lat="48.80474" lon="-0.6296">
        <ele>122.8</ele>
        <time>2013-07-05T13:22:52Z</time>
      </trkpt>
      <trkpt lat="48.80491" lon="-0.62964">
        <ele>123.2</ele>
        <time>2013-07-05T13:22:55Z</time>
      </trkpt>
      <trkpt lat="48.80495" lon="-0.6297">
        <ele>123.2</ele>
        <time>2013-07-05T13:22:56Z</time>
      </trkpt>
      <trkpt lat="48.80498" lon="-0.62977">
        <ele>123.6</ele>
        <time>2013-07-05T13:22:57Z</time>
      </trkpt>
      <trkpt lat="48.80499" lon="-0.62986">
        <ele>123.6</ele>
        <time>2013-07-05T13:22:58Z</time>
      </trkpt>
      <trkpt lat="48.805" lon="-0.62995">
        <ele>123.6</ele>
        <time>2013-07-05T13:22:59Z</time>
      </trkpt>
      <trkpt lat="48.80502" lon="-0.63004">
        <ele>123.6</ele>
        <time>2013-07-05T13:23:00Z</time>
      </trkpt>
      <trkpt lat="48.80506" lon="-0.63011">
        <ele>123.6</ele>
        <time>2013-07-05T13:23:01Z</time>
      </trkpt>
      <trkpt lat="48.80509" lon="-0.63016">
        <ele>124.2</ele>
        <time>2013-07-05T13:23:02Z</time>
      </trkpt>
      <trkpt lat="48.80513" lon="-0.63023">
        <ele>125.2</ele>
        <time>2013-07-05T13:23:03Z</time>
      </trkpt>
      <trkpt lat="48.80515" lon="-0.63031">
        <ele>125.6</ele>
        <time>2013-07-05T13:23:04Z</time>
      </trkpt>
      <trkpt lat="48.80517" lon="-0.6304">
        <ele>125.2</ele>
        <time>2013-07-05T13:23:05Z</time>
      </trkpt>
      <trkpt lat="48.80519" lon="-0.6305">
        <ele>125.6</ele>
        <time>2013-07-05T13:23:06Z</time>
      </trkpt>
      <trkpt lat="48.80519" lon="-0.6306">
        <ele>125.6</ele>
        <time>2013-07-05T13:23:07Z</time>
      </trkpt>
      <trkpt lat="48.80519" lon="-0.63111">
        <ele>126.6</ele>
        <time>2013-07-05T13:23:12Z</time>
      </trkpt>
      <trkpt lat="48.80517" lon="-0.63121">
        <ele>126</ele>
        <time>2013-07-05T13:23:13Z</time>
      </trkpt>
      <trkpt lat="48.80496" lon="-0.63231">
        <ele>127</ele>
        <time>2013-07-05T13:23:25Z</time>
      </trkpt>
      <trkpt lat="48.80494" lon="-0.63237">
        <ele>127</ele>
        <time>2013-07-05T13:23:26Z</time>
      </trkpt>
      <trkpt lat="48.8049" lon="-0.63241">
        <ele>127</ele>
        <time>2013-07-05T13:23:27Z</time>
      </trkpt>
      <trkpt lat="48.80485" lon="-0.63241">
        <ele>126.6</ele>
        <time>2013-07-05T13:23:28Z</time>
      </trkpt>
      <trkpt lat="48.80479" lon="-0.63239">
        <ele>126</ele>
        <time>2013-07-05T13:23:29Z</time>
      </trkpt>
      <trkpt lat="48.80474" lon="-0.63236">
        <ele>125.6</ele>
        <time>2013-07-05T13:23:30Z</time>
      </trkpt>
      <trkpt lat="48.80468" lon="-0.63234">
        <ele>125.2</ele>
        <time>2013-07-05T13:23:31Z</time>
      </trkpt>
      <trkpt lat="48.80444" lon="-0.63225">
        <ele>124.2</ele>
        <time>2013-07-05T13:23:35Z</time>
      </trkpt>
      <trkpt lat="48.80439" lon="-0.63222">
        <ele>123.6</ele>
        <time>2013-07-05T13:23:36Z</time>
      </trkpt>
      <trkpt lat="48.80433" lon="-0.6322">
        <ele>123.6</ele>
        <time>2013-07-05T13:23:37Z</time>
      </trkpt>
      <trkpt lat="48.80428" lon="-0.63221">
        <ele>123.6</ele>
        <time>2013-07-05T13:23:38Z</time>
      </trkpt>
      <trkpt lat="48.80425" lon="-0.63224">
        <ele>123.2</ele>
        <time>2013-07-05T13:23:39Z</time>
      </trkpt>
      <trkpt lat="48.80422" lon="-0.63228">
        <ele>124.2</ele>
        <time>2013-07-05T13:23:40Z</time>
      </trkpt>
      <trkpt lat="48.8042" lon="-0.63233">
        <ele>124.2</ele>
        <time>2013-07-05T13:23:41Z</time>
      </trkpt>
      <trkpt lat="48.80419" lon="-0.6324">
        <ele>124.2</ele>
        <time>2013-07-05T13:23:42Z</time>
      </trkpt>
      <trkpt lat="48.80418" lon="-0.63247">
        <ele>124.2</ele>
        <time>2013-07-05T13:23:43Z</time>
      </trkpt>
      <trkpt lat="48.80415" lon="-0.63272">
        <ele>123.6</ele>
        <time>2013-07-05T13:23:46Z</time>
      </trkpt>
      <trkpt lat="48.80413" lon="-0.63281">
        <ele>124.2</ele>
        <time>2013-07-05T13:23:47Z</time>
      </trkpt>
      <trkpt lat="48.8041" lon="-0.63289">
        <ele>123.6</ele>
        <time>2013-07-05T13:23:48Z</time>
      </trkpt>
      <trkpt lat="48.80406" lon="-0.63297">
        <ele>124.2</ele>
        <time>2013-07-05T13:23:49Z</time>
      </trkpt>
      <trkpt lat="48.80402" lon="-0.63305">
        <ele>124.6</ele>
        <time>2013-07-05T13:23:50Z</time>
      </trkpt>
      <trkpt lat="48.80398" lon="-0.63312">
        <ele>123.6</ele>
        <time>2013-07-05T13:23:51Z</time>
      </trkpt>
      <trkpt lat="48.80354" lon="-0.63387">
        <ele>123.6</ele>
        <time>2013-07-05T13:24:02Z</time>
      </trkpt>
      <trkpt lat="48.80294" lon="-0.63468">
        <ele>125.6</ele>
        <time>2013-07-05T13:24:17Z</time>
      </trkpt>
      <trkpt lat="48.80278" lon="-0.63491">
        <ele>124.6</ele>
        <time>2013-07-05T13:24:22Z</time>
      </trkpt>
      <trkpt lat="48.80267" lon="-0.63515">
        <ele>125.2</ele>
        <time>2013-07-05T13:24:26Z</time>
      </trkpt>
      <trkpt lat="48.80235" lon="-0.63568">
        <ele>125.2</ele>
        <time>2013-07-05T13:24:36Z</time>
      </trkpt>
      <trkpt lat="48.80199" lon="-0.63609">
        <ele>125.6</ele>
        <time>2013-07-05T13:24:48Z</time>
      </trkpt>
      <trkpt lat="48.80185" lon="-0.63628">
        <ele>125.2</ele>
        <time>2013-07-05T13:24:52Z</time>
      </trkpt>
      <trkpt lat="48.8018" lon="-0.63639">
        <ele>125.6</ele>
        <time>2013-07-05T13:24:54Z</time>
      </trkpt>
      <trkpt lat="48.80177" lon="-0.63646">
        <ele>125.6</ele>
        <time>2013-07-05T13:24:55Z</time>
      </trkpt>
      <trkpt lat="48.80175" lon="-0.63652">
        <ele>125.2</ele>
        <time>2013-07-05T13:24:56Z</time>
      </trkpt>
      <trkpt lat="48.80168" lon="-0.63682">
        <ele>127</ele>
        <time>2013-07-05T13:25:01Z</time>
      </trkpt>
      <trkpt lat="48.8016" lon="-0.63707">
        <ele>130.4</ele>
        <time>2013-07-05T13:25:09Z</time>
      </trkpt>
      <trkpt lat="48.80159" lon="-0.63708">
        <ele>130.4</ele>
        <time>2013-07-05T13:25:10Z</time>
      </trkpt>
      <trkpt lat="48.80157" lon="-0.63708">
        <ele>130.4</ele>
        <time>2013-07-05T13:25:11Z</time>
      </trkpt>
      <trkpt lat="48.80155" lon="-0.63708">
        <ele>130.4</ele>
        <time>2013-07-05T13:25:12Z</time>
      </trkpt>
      <trkpt lat="48.80153" lon="-0.63707">
        <ele>129.4</ele>
        <time>2013-07-05T13:25:13Z</time>
      </trkpt>
      <trkpt lat="48.8015" lon="-0.63703">
        <ele>129.4</ele>
        <time>2013-07-05T13:25:14Z</time>
      </trkpt>
      <trkpt lat="48.80147" lon="-0.637">
        <ele>130</ele>
        <time>2013-07-05T13:25:15Z</time>
      </trkpt>
      <trkpt lat="48.80144" lon="-0.63699">
        <ele>129.4</ele>
        <time>2013-07-05T13:25:16Z</time>
      </trkpt>
      <trkpt lat="48.8014" lon="-0.63699">
        <ele>129</ele>
        <time>2013-07-05T13:25:17Z</time>
      </trkpt>
      <trkpt lat="48.80136" lon="-0.63701">
        <ele>129.4</ele>
        <time>2013-07-05T13:25:18Z</time>
      </trkpt>
      <trkpt lat="48.80133" lon="-0.63704">
        <ele>129.4</ele>
        <time>2013-07-05T13:25:19Z</time>
      </trkpt>
      <trkpt lat="48.8013" lon="-0.63707">
        <ele>129</ele>
        <time>2013-07-05T13:25:20Z</time>
      </trkpt>
      <trkpt lat="48.80126" lon="-0.6371">
        <ele>128.4</ele>
        <time>2013-07-05T13:25:21Z</time>
      </trkpt>
      <trkpt lat="48.80085" lon="-0.63755">
        <ele>128</ele>
        <time>2013-07-05T13:25:32Z</time>
      </trkpt>
      <trkpt lat="48.80065" lon="-0.63779">
        <ele>128.4</ele>
        <time>2013-07-05T13:25:38Z</time>
      </trkpt>
      <trkpt lat="48.80014" lon="-0.63847">
        <ele>128</ele>
        <time>2013-07-05T13:25:53Z</time>
      </trkpt>
      <trkpt lat="48.8001" lon="-0.63851">
        <ele>128</ele>
        <time>2013-07-05T13:25:54Z</time>
      </trkpt>
      <trkpt lat="48.80006" lon="-0.63854">
        <ele>128</ele>
        <time>2013-07-05T13:25:55Z</time>
      </trkpt>
      <trkpt lat="48.80002" lon="-0.63858">
        <ele>128.4</ele>
        <time>2013-07-05T13:25:56Z</time>
      </trkpt>
      <trkpt lat="48.79998" lon="-0.63862">
        <ele>128</ele>
        <time>2013-07-05T13:25:57Z</time>
      </trkpt>
      <trkpt lat="48.79994" lon="-0.63866">
        <ele>129</ele>
        <time>2013-07-05T13:25:58Z</time>
      </trkpt>
      <trkpt lat="48.79991" lon="-0.63872">
        <ele>129.4</ele>
        <time>2013-07-05T13:25:59Z</time>
      </trkpt>
      <trkpt lat="48.79988" lon="-0.63878">
        <ele>129</ele>
        <time>2013-07-05T13:26:00Z</time>
      </trkpt>
      <trkpt lat="48.79985" lon="-0.63884">
        <ele>129.4</ele>
        <time>2013-07-05T13:26:01Z</time>
      </trkpt>
      <trkpt lat="48.79963" lon="-0.63941">
        <ele>132.4</ele>
        <time>2013-07-05T13:26:11Z</time>
      </trkpt>
      <trkpt lat="48.79959" lon="-0.63955">
        <ele>132.8</ele>
        <time>2013-07-05T13:26:13Z</time>
      </trkpt>
      <trkpt lat="48.79958" lon="-0.63963">
        <ele>132.8</ele>
        <time>2013-07-05T13:26:14Z</time>
      </trkpt>
      <trkpt lat="48.79957" lon="-0.63971">
        <ele>133.2</ele>
        <time>2013-07-05T13:26:15Z</time>
      </trkpt>
      <trkpt lat="48.79957" lon="-0.63987">
        <ele>133.2</ele>
        <time>2013-07-05T13:26:17Z</time>
      </trkpt>
      <trkpt lat="48.79958" lon="-0.63996">
        <ele>133.8</ele>
        <time>2013-07-05T13:26:18Z</time>
      </trkpt>
      <trkpt lat="48.79959" lon="-0.64006">
        <ele>132.8</ele>
        <time>2013-07-05T13:26:19Z</time>
      </trkpt>
      <trkpt lat="48.79967" lon="-0.64055">
        <ele>130.8</ele>
        <time>2013-07-05T13:26:24Z</time>
      </trkpt>
      <trkpt lat="48.79979" lon="-0.64158">
        <ele>131.4</ele>
        <time>2013-07-05T13:26:37Z</time>
      </trkpt>
      <trkpt lat="48.79978" lon="-0.64259">
        <ele>130</ele>
        <time>2013-07-05T13:26:50Z</time>
      </trkpt>
      <trkpt lat="48.7997" lon="-0.64322">
        <ele>132.4</ele>
        <time>2013-07-05T13:27:01Z</time>
      </trkpt>
      <trkpt lat="48.79968" lon="-0.64339">
        <ele>132.8</ele>
        <time>2013-07-05T13:27:04Z</time>
      </trkpt>
      <trkpt lat="48.7996" lon="-0.64363">
        <ele>131.8</ele>
        <time>2013-07-05T13:27:08Z</time>
      </trkpt>
      <trkpt lat="48.79952" lon="-0.64381">
        <ele>131.8</ele>
        <time>2013-07-05T13:27:11Z</time>
      </trkpt>
      <trkpt lat="48.79943" lon="-0.64399">
        <ele>132.4</ele>
        <time>2013-07-05T13:27:14Z</time>
      </trkpt>
      <trkpt lat="48.79927" lon="-0.64436">
        <ele>132.8</ele>
        <time>2013-07-05T13:27:21Z</time>
      </trkpt>
      <trkpt lat="48.79924" lon="-0.6444">
        <ele>133.2</ele>
        <time>2013-07-05T13:27:22Z</time>
      </trkpt>
      <trkpt lat="48.79905" lon="-0.64468">
        <ele>132.8</ele>
        <time>2013-07-05T13:27:28Z</time>
      </trkpt>
      <trkpt lat="48.79883" lon="-0.64514">
        <ele>133.2</ele>
        <time>2013-07-05T13:27:37Z</time>
      </trkpt>
      <trkpt lat="48.79882" lon="-0.6452">
        <ele>132.8</ele>
        <time>2013-07-05T13:27:38Z</time>
      </trkpt>
      <trkpt lat="48.79884" lon="-0.64598">
        <ele>131.8</ele>
        <time>2013-07-05T13:27:51Z</time>
      </trkpt>
      <trkpt lat="48.79897" lon="-0.64661">
        <ele>131.4</ele>
        <time>2013-07-05T13:28:02Z</time>
      </trkpt>
      <trkpt lat="48.79896" lon="-0.64717">
        <ele>131.4</ele>
        <time>2013-07-05T13:28:11Z</time>
      </trkpt>
      <trkpt lat="48.79894" lon="-0.64724">
        <ele>131.4</ele>
        <time>2013-07-05T13:28:12Z</time>
      </trkpt>
      <trkpt lat="48.79887" lon="-0.64754">
        <ele>132.4</ele>
        <time>2013-07-05T13:28:15Z</time>
      </trkpt>
      <trkpt lat="48.79884" lon="-0.64762">
        <ele>131.8</ele>
        <time>2013-07-05T13:28:16Z</time>
      </trkpt>
      <trkpt lat="48.79881" lon="-0.64769">
        <ele>131.8</ele>
        <time>2013-07-05T13:28:17Z</time>
      </trkpt>
      <trkpt lat="48.79877" lon="-0.64777">
        <ele>131.8</ele>
        <time>2013-07-05T13:28:18Z</time>
      </trkpt>
      <trkpt lat="48.79873" lon="-0.64784">
        <ele>131.8</ele>
        <time>2013-07-05T13:28:19Z</time>
      </trkpt>
      <trkpt lat="48.79869" lon="-0.64791">
        <ele>131.4</ele>
        <time>2013-07-05T13:28:20Z</time>
      </trkpt>
      <trkpt lat="48.79803" lon="-0.64879">
        <ele>131.8</ele>
        <time>2013-07-05T13:28:34Z</time>
      </trkpt>
      <trkpt lat="48.79774" lon="-0.64924">
        <ele>133.2</ele>
        <time>2013-07-05T13:28:41Z</time>
      </trkpt>
      <trkpt lat="48.79767" lon="-0.64934">
        <ele>134.2</ele>
        <time>2013-07-05T13:28:43Z</time>
      </trkpt>
      <trkpt lat="48.79753" lon="-0.64955">
        <ele>135.6</ele>
        <time>2013-07-05T13:28:47Z</time>
      </trkpt>
      <trkpt lat="48.79733" lon="-0.64974">
        <ele>136.2</ele>
        <time>2013-07-05T13:28:52Z</time>
      </trkpt>
      <trkpt lat="48.7973" lon="-0.64978">
        <ele>136.2</ele>
        <time>2013-07-05T13:28:53Z</time>
      </trkpt>
      <trkpt lat="48.79717" lon="-0.6499">
        <ele>136.6</ele>
        <time>2013-07-05T13:28:56Z</time>
      </trkpt>
      <trkpt lat="48.79684" lon="-0.65028">
        <ele>133.8</ele>
        <time>2013-07-05T13:29:05Z</time>
      </trkpt>
      <trkpt lat="48.79681" lon="-0.65035">
        <ele>133.2</ele>
        <time>2013-07-05T13:29:06Z</time>
      </trkpt>
      <trkpt lat="48.7967" lon="-0.65066">
        <ele>133.2</ele>
        <time>2013-07-05T13:29:10Z</time>
      </trkpt>
      <trkpt lat="48.79669" lon="-0.65074">
        <ele>132.4</ele>
        <time>2013-07-05T13:29:11Z</time>
      </trkpt>
      <trkpt lat="48.79666" lon="-0.65082">
        <ele>132.4</ele>
        <time>2013-07-05T13:29:12Z</time>
      </trkpt>
      <trkpt lat="48.79664" lon="-0.6509">
        <ele>132.8</ele>
        <time>2013-07-05T13:29:13Z</time>
      </trkpt>
      <trkpt lat="48.79662" lon="-0.65096">
        <ele>132.4</ele>
        <time>2013-07-05T13:29:14Z</time>
      </trkpt>
      <trkpt lat="48.7966" lon="-0.65102">
        <ele>133.2</ele>
        <time>2013-07-05T13:29:15Z</time>
      </trkpt>
      <trkpt lat="48.79658" lon="-0.65105">
        <ele>133.2</ele>
        <time>2013-07-05T13:29:16Z</time>
      </trkpt>
      <trkpt lat="48.79655" lon="-0.65104">
        <ele>133.2</ele>
        <time>2013-07-05T13:29:17Z</time>
      </trkpt>
      <trkpt lat="48.79653" lon="-0.65102">
        <ele>133.2</ele>
        <time>2013-07-05T13:29:18Z</time>
      </trkpt>
      <trkpt lat="48.79651" lon="-0.65098">
        <ele>133.2</ele>
        <time>2013-07-05T13:29:19Z</time>
      </trkpt>
      <trkpt lat="48.79648" lon="-0.65093">
        <ele>132.4</ele>
        <time>2013-07-05T13:29:20Z</time>
      </trkpt>
      <trkpt lat="48.79635" lon="-0.65072">
        <ele>132.4</ele>
        <time>2013-07-05T13:29:24Z</time>
      </trkpt>
      <trkpt lat="48.79625" lon="-0.65055">
        <ele>132.4</ele>
        <time>2013-07-05T13:29:27Z</time>
      </trkpt>
      <trkpt lat="48.79621" lon="-0.65052">
        <ele>133.2</ele>
        <time>2013-07-05T13:29:28Z</time>
      </trkpt>
      <trkpt lat="48.79611" lon="-0.65051">
        <ele>133.2</ele>
        <time>2013-07-05T13:29:30Z</time>
      </trkpt>
      <trkpt lat="48.79606" lon="-0.65052">
        <ele>133.2</ele>
        <time>2013-07-05T13:29:31Z</time>
      </trkpt>
      <trkpt lat="48.79585" lon="-0.65058">
        <ele>133.2</ele>
        <time>2013-07-05T13:29:37Z</time>
      </trkpt>
      <trkpt lat="48.79584" lon="-0.65058">
        <ele>133.2</ele>
        <time>2013-07-05T13:29:38Z</time>
      </trkpt>
      <trkpt lat="48.79582" lon="-0.65058">
        <ele>133.8</ele>
        <time>2013-07-05T13:29:39Z</time>
      </trkpt>
      <trkpt lat="48.79561" lon="-0.65061">
        <ele>134.2</ele>
        <time>2013-07-05T13:29:46Z</time>
      </trkpt>
      <trkpt lat="48.79558" lon="-0.65065">
        <ele>134.8</ele>
        <time>2013-07-05T13:29:47Z</time>
      </trkpt>
      <trkpt lat="48.79556" lon="-0.65069">
        <ele>134.8</ele>
        <time>2013-07-05T13:29:48Z</time>
      </trkpt>
      <trkpt lat="48.79553" lon="-0.65075">
        <ele>135.2</ele>
        <time>2013-07-05T13:29:49Z</time>
      </trkpt>
      <trkpt lat="48.7955" lon="-0.6508">
        <ele>134.8</ele>
        <time>2013-07-05T13:29:50Z</time>
      </trkpt>
      <trkpt lat="48.79547" lon="-0.65085">
        <ele>135.2</ele>
        <time>2013-07-05T13:29:51Z</time>
      </trkpt>
      <trkpt lat="48.79544" lon="-0.6509">
        <ele>135.2</ele>
        <time>2013-07-05T13:29:52Z</time>
      </trkpt>
      <trkpt lat="48.79537" lon="-0.65097">
        <ele>135.2</ele>
        <time>2013-07-05T13:29:54Z</time>
      </trkpt>
      <trkpt lat="48.79516" lon="-0.65113">
        <ele>135.6</ele>
        <time>2013-07-05T13:29:59Z</time>
      </trkpt>
      <trkpt lat="48.79502" lon="-0.65128">
        <ele>136.6</ele>
        <time>2013-07-05T13:30:03Z</time>
      </trkpt>
      <trkpt lat="48.79488" lon="-0.65143">
        <ele>138.6</ele>
        <time>2013-07-05T13:30:07Z</time>
      </trkpt>
      <trkpt lat="48.79484" lon="-0.65146">
        <ele>138.6</ele>
        <time>2013-07-05T13:30:08Z</time>
      </trkpt>
      <trkpt lat="48.79469" lon="-0.65157">
        <ele>138.6</ele>
        <time>2013-07-05T13:30:11Z</time>
      </trkpt>
      <trkpt lat="48.79465" lon="-0.6516">
        <ele>139</ele>
        <time>2013-07-05T13:30:12Z</time>
      </trkpt>
      <trkpt lat="48.79462" lon="-0.65162">
        <ele>139.6</ele>
        <time>2013-07-05T13:30:13Z</time>
      </trkpt>
      <trkpt lat="48.79459" lon="-0.65165">
        <ele>139.6</ele>
        <time>2013-07-05T13:30:14Z</time>
      </trkpt>
      <trkpt lat="48.79457" lon="-0.65167">
        <ele>139.6</ele>
        <time>2013-07-05T13:30:15Z</time>
      </trkpt>
      <trkpt lat="48.79455" lon="-0.6517">
        <ele>140.4</ele>
        <time>2013-07-05T13:30:16Z</time>
      </trkpt>
      <trkpt lat="48.79424" lon="-0.65203">
        <ele>141.4</ele>
        <time>2013-07-05T13:30:26Z</time>
      </trkpt>
      <trkpt lat="48.79417" lon="-0.65206">
        <ele>141</ele>
        <time>2013-07-05T13:30:28Z</time>
      </trkpt>
      <trkpt lat="48.79409" lon="-0.65208">
        <ele>142.4</ele>
        <time>2013-07-05T13:30:30Z</time>
      </trkpt>
      <trkpt lat="48.79381" lon="-0.6522">
        <ele>145.8</ele>
        <time>2013-07-05T13:30:37Z</time>
      </trkpt>
      <trkpt lat="48.79359" lon="-0.65234">
        <ele>148.6</ele>
        <time>2013-07-05T13:30:45Z</time>
      </trkpt>
      <trkpt lat="48.79344" lon="-0.65244">
        <ele>149.6</ele>
        <time>2013-07-05T13:30:51Z</time>
      </trkpt>
      <trkpt lat="48.79319" lon="-0.65254">
        <ele>152.6</ele>
        <time>2013-07-05T13:30:59Z</time>
      </trkpt>
      <trkpt lat="48.79313" lon="-0.6526">
        <ele>154.4</ele>
        <time>2013-07-05T13:31:02Z</time>
      </trkpt>
      <trkpt lat="48.79307" lon="-0.65264">
        <ele>155.8</ele>
        <time>2013-07-05T13:31:05Z</time>
      </trkpt>
      <trkpt lat="48.79299" lon="-0.65269">
        <ele>156.4</ele>
        <time>2013-07-05T13:31:19Z</time>
      </trkpt>
      <trkpt lat="48.7929" lon="-0.65268">
        <ele>156.4</ele>
        <time>2013-07-05T13:31:34Z</time>
      </trkpt>
      <trkpt lat="48.79283" lon="-0.65269">
        <ele>157.4</ele>
        <time>2013-07-05T13:31:37Z</time>
      </trkpt>
      <trkpt lat="48.79281" lon="-0.65269">
        <ele>157.4</ele>
        <time>2013-07-05T13:31:38Z</time>
      </trkpt>
      <trkpt lat="48.79278" lon="-0.6527">
        <ele>157.4</ele>
        <time>2013-07-05T13:31:39Z</time>
      </trkpt>
      <trkpt lat="48.7927" lon="-0.65272">
        <ele>158.8</ele>
        <time>2013-07-05T13:31:42Z</time>
      </trkpt>
      <trkpt lat="48.7925" lon="-0.65286">
        <ele>162.2</ele>
        <time>2013-07-05T13:31:50Z</time>
      </trkpt>
      <trkpt lat="48.79223" lon="-0.65314">
        <ele>162.6</ele>
        <time>2013-07-05T13:32:02Z</time>
      </trkpt>
      <trkpt lat="48.7919" lon="-0.65302">
        <ele>163.6</ele>
        <time>2013-07-05T13:32:13Z</time>
      </trkpt>
      <trkpt lat="48.79153" lon="-0.65309">
        <ele>163.6</ele>
        <time>2013-07-05T13:32:25Z</time>
      </trkpt>
      <trkpt lat="48.79112" lon="-0.65323">
        <ele>165.4</ele>
        <time>2013-07-05T13:32:39Z</time>
      </trkpt>
      <trkpt lat="48.7907" lon="-0.65337">
        <ele>166.4</ele>
        <time>2013-07-05T13:32:52Z</time>
      </trkpt>
      <trkpt lat="48.79036" lon="-0.65351">
        <ele>167</ele>
        <time>2013-07-05T13:33:04Z</time>
      </trkpt>
      <trkpt lat="48.78993" lon="-0.65384">
        <ele>167.4</ele>
        <time>2013-07-05T13:33:20Z</time>
      </trkpt>
      <trkpt lat="48.7895" lon="-0.65412">
        <ele>168.4</ele>
        <time>2013-07-05T13:33:34Z</time>
      </trkpt>
      <trkpt lat="48.7891" lon="-0.65431">
        <ele>169.4</ele>
        <time>2013-07-05T13:33:49Z</time>
      </trkpt>
      <trkpt lat="48.78905" lon="-0.65432">
        <ele>169.4</ele>
        <time>2013-07-05T13:33:51Z</time>
      </trkpt>
      <trkpt lat="48.78903" lon="-0.65434">
        <ele>169.8</ele>
        <time>2013-07-05T13:33:52Z</time>
      </trkpt>
      <trkpt lat="48.789" lon="-0.65435">
        <ele>168.8</ele>
        <time>2013-07-05T13:33:53Z</time>
      </trkpt>
      <trkpt lat="48.78849" lon="-0.65446">
        <ele>168.8</ele>
        <time>2013-07-05T13:34:08Z</time>
      </trkpt>
      <trkpt lat="48.78815" lon="-0.65449">
        <ele>169.4</ele>
        <time>2013-07-05T13:34:20Z</time>
      </trkpt>
      <trkpt lat="48.78811" lon="-0.65454">
        <ele>170.2</ele>
        <time>2013-07-05T13:34:31Z</time>
      </trkpt>
      <trkpt lat="48.78811" lon="-0.65444">
        <ele>169.8</ele>
        <time>2013-07-05T13:34:49Z</time>
      </trkpt>
      <trkpt lat="48.78807" lon="-0.65445">
        <ele>170.2</ele>
        <time>2013-07-05T13:35:12Z</time>
      </trkpt>
      <trkpt lat="48.78806" lon="-0.65444">
        <ele>169.8</ele>
        <time>2013-07-05T13:35:13Z</time>
      </trkpt>
      <trkpt lat="48.78804" lon="-0.65442">
        <ele>169.4</ele>
        <time>2013-07-05T13:35:14Z</time>
      </trkpt>
      <trkpt lat="48.78803" lon="-0.65439">
        <ele>170.2</ele>
        <time>2013-07-05T13:35:15Z</time>
      </trkpt>
      <trkpt lat="48.78801" lon="-0.65437">
        <ele>169.8</ele>
        <time>2013-07-05T13:35:16Z</time>
      </trkpt>
      <trkpt lat="48.78791" lon="-0.65403">
        <ele>169.8</ele>
        <time>2013-07-05T13:35:29Z</time>
      </trkpt>
      <trkpt lat="48.78772" lon="-0.65346">
        <ele>168.4</ele>
        <time>2013-07-05T13:35:43Z</time>
      </trkpt>
      <trkpt lat="48.78756" lon="-0.65301">
        <ele>167.4</ele>
        <time>2013-07-05T13:35:50Z</time>
      </trkpt>
      <trkpt lat="48.78753" lon="-0.65293">
        <ele>166.4</ele>
        <time>2013-07-05T13:35:51Z</time>
      </trkpt>
      <trkpt lat="48.78751" lon="-0.65285">
        <ele>166</ele>
        <time>2013-07-05T13:35:52Z</time>
      </trkpt>
      <trkpt lat="48.78745" lon="-0.65267">
        <ele>165.4</ele>
        <time>2013-07-05T13:35:54Z</time>
      </trkpt>
      <trkpt lat="48.78734" lon="-0.65212">
        <ele>162.6</ele>
        <time>2013-07-05T13:35:59Z</time>
      </trkpt>
      <trkpt lat="48.78734" lon="-0.6516">
        <ele>159.8</ele>
        <time>2013-07-05T13:36:03Z</time>
      </trkpt>
      <trkpt lat="48.78736" lon="-0.65092">
        <ele>156.8</ele>
        <time>2013-07-05T13:36:08Z</time>
      </trkpt>
      <trkpt lat="48.78735" lon="-0.65079">
        <ele>157.8</ele>
        <time>2013-07-05T13:36:09Z</time>
      </trkpt>
      <trkpt lat="48.78733" lon="-0.65067">
        <ele>157.4</ele>
        <time>2013-07-05T13:36:10Z</time>
      </trkpt>
      <trkpt lat="48.78731" lon="-0.65056">
        <ele>156.8</ele>
        <time>2013-07-05T13:36:11Z</time>
      </trkpt>
      <trkpt lat="48.78728" lon="-0.65046">
        <ele>157.4</ele>
        <time>2013-07-05T13:36:12Z</time>
      </trkpt>
      <trkpt lat="48.78724" lon="-0.65037">
        <ele>157.8</ele>
        <time>2013-07-05T13:36:13Z</time>
      </trkpt>
      <trkpt lat="48.78715" lon="-0.65008">
        <ele>159.8</ele>
        <time>2013-07-05T13:36:17Z</time>
      </trkpt>
      <trkpt lat="48.787" lon="-0.6497">
        <ele>162.6</ele>
        <time>2013-07-05T13:36:27Z</time>
      </trkpt>
      <trkpt lat="48.78686" lon="-0.64924">
        <ele>164</ele>
        <time>2013-07-05T13:36:42Z</time>
      </trkpt>
      <trkpt lat="48.78681" lon="-0.64904">
        <ele>166</ele>
        <time>2013-07-05T13:36:48Z</time>
      </trkpt>
      <trkpt lat="48.7867" lon="-0.64842">
        <ele>168.4</ele>
        <time>2013-07-05T13:37:04Z</time>
      </trkpt>
      <trkpt lat="48.78663" lon="-0.6479">
        <ele>170.2</ele>
        <time>2013-07-05T13:37:19Z</time>
      </trkpt>
      <trkpt lat="48.78654" lon="-0.64739">
        <ele>172.2</ele>
        <time>2013-07-05T13:37:34Z</time>
      </trkpt>
      <trkpt lat="48.78647" lon="-0.64695">
        <ele>174.2</ele>
        <time>2013-07-05T13:37:47Z</time>
      </trkpt>
      <trkpt lat="48.78645" lon="-0.64694">
        <ele>174.6</ele>
        <time>2013-07-05T13:37:48Z</time>
      </trkpt>
      <trkpt lat="48.78643" lon="-0.64693">
        <ele>174.2</ele>
        <time>2013-07-05T13:37:49Z</time>
      </trkpt>
      <trkpt lat="48.78641" lon="-0.64693">
        <ele>174.6</ele>
        <time>2013-07-05T13:37:50Z</time>
      </trkpt>
      <trkpt lat="48.78638" lon="-0.64693">
        <ele>174.6</ele>
        <time>2013-07-05T13:37:51Z</time>
      </trkpt>
      <trkpt lat="48.78636" lon="-0.64694">
        <ele>174.2</ele>
        <time>2013-07-05T13:37:52Z</time>
      </trkpt>
      <trkpt lat="48.78604" lon="-0.64709">
        <ele>176</ele>
        <time>2013-07-05T13:38:06Z</time>
      </trkpt>
      <trkpt lat="48.78571" lon="-0.64715">
        <ele>177.6</ele>
        <time>2013-07-05T13:38:20Z</time>
      </trkpt>
      <trkpt lat="48.78537" lon="-0.64718">
        <ele>180</ele>
        <time>2013-07-05T13:38:35Z</time>
      </trkpt>
      <trkpt lat="48.78504" lon="-0.64721">
        <ele>182.8</ele>
        <time>2013-07-05T13:38:50Z</time>
      </trkpt>
      <trkpt lat="48.78482" lon="-0.64726">
        <ele>183.8</ele>
        <time>2013-07-05T13:39:02Z</time>
      </trkpt>
      <trkpt lat="48.78459" lon="-0.64728">
        <ele>185.6</ele>
        <time>2013-07-05T13:39:13Z</time>
      </trkpt>
      <trkpt lat="48.78447" lon="-0.6473">
        <ele>186.6</ele>
        <time>2013-07-05T13:39:20Z</time>
      </trkpt>
      <trkpt lat="48.78416" lon="-0.64733">
        <ele>190</ele>
        <time>2013-07-05T13:39:35Z</time>
      </trkpt>
      <trkpt lat="48.78392" lon="-0.64736">
        <ele>191</ele>
        <time>2013-07-05T13:39:48Z</time>
      </trkpt>
      <trkpt lat="48.78381" lon="-0.64736">
        <ele>192.4</ele>
        <time>2013-07-05T13:39:55Z</time>
      </trkpt>
      <trkpt lat="48.78359" lon="-0.64737">
        <ele>194.8</ele>
        <time>2013-07-05T13:40:09Z</time>
      </trkpt>
      <trkpt lat="48.7834" lon="-0.64739">
        <ele>197.2</ele>
        <time>2013-07-05T13:40:19Z</time>
      </trkpt>
      <trkpt lat="48.78315" lon="-0.64747">
        <ele>199.6</ele>
        <time>2013-07-05T13:40:34Z</time>
      </trkpt>
      <trkpt lat="48.78285" lon="-0.64759">
        <ele>203.4</ele>
        <time>2013-07-05T13:40:46Z</time>
      </trkpt>
      <trkpt lat="48.78243" lon="-0.64789">
        <ele>205.8</ele>
        <time>2013-07-05T13:40:59Z</time>
      </trkpt>
      <trkpt lat="48.782" lon="-0.64824">
        <ele>207.8</ele>
        <time>2013-07-05T13:41:11Z</time>
      </trkpt>
      <trkpt lat="48.78171" lon="-0.64851">
        <ele>208.2</ele>
        <time>2013-07-05T13:41:21Z</time>
      </trkpt>
      <trkpt lat="48.78144" lon="-0.64891">
        <ele>208.8</ele>
        <time>2013-07-05T13:41:33Z</time>
      </trkpt>
      <trkpt lat="48.78108" lon="-0.64931">
        <ele>210.2</ele>
        <time>2013-07-05T13:41:47Z</time>
      </trkpt>
      <trkpt lat="48.78071" lon="-0.64959">
        <ele>212.2</ele>
        <time>2013-07-05T13:41:58Z</time>
      </trkpt>
      <trkpt lat="48.78032" lon="-0.64997">
        <ele>213.6</ele>
        <time>2013-07-05T13:42:10Z</time>
      </trkpt>
      <trkpt lat="48.77984" lon="-0.65055">
        <ele>216</ele>
        <time>2013-07-05T13:42:23Z</time>
      </trkpt>
      <trkpt lat="48.77966" lon="-0.65083">
        <ele>217.8</ele>
        <time>2013-07-05T13:42:28Z</time>
      </trkpt>
      <trkpt lat="48.77964" lon="-0.65088">
        <ele>217.8</ele>
        <time>2013-07-05T13:42:29Z</time>
      </trkpt>
      <trkpt lat="48.77961" lon="-0.65093">
        <ele>218.8</ele>
        <time>2013-07-05T13:42:30Z</time>
      </trkpt>
      <trkpt lat="48.77923" lon="-0.65145">
        <ele>221.8</ele>
        <time>2013-07-05T13:42:44Z</time>
      </trkpt>
      <trkpt lat="48.7788" lon="-0.65187">
        <ele>224.6</ele>
        <time>2013-07-05T13:42:58Z</time>
      </trkpt>
      <trkpt lat="48.77837" lon="-0.65216">
        <ele>227.4</ele>
        <time>2013-07-05T13:43:12Z</time>
      </trkpt>
      <trkpt lat="48.77803" lon="-0.65241">
        <ele>228</ele>
        <time>2013-07-05T13:43:23Z</time>
      </trkpt>
      <trkpt lat="48.77771" lon="-0.65262">
        <ele>228.4</ele>
        <time>2013-07-05T13:43:31Z</time>
      </trkpt>
      <trkpt lat="48.77767" lon="-0.65265">
        <ele>228.4</ele>
        <time>2013-07-05T13:43:32Z</time>
      </trkpt>
      <trkpt lat="48.77712" lon="-0.65292">
        <ele>231.4</ele>
        <time>2013-07-05T13:43:47Z</time>
      </trkpt>
      <trkpt lat="48.77658" lon="-0.65313">
        <ele>233.2</ele>
        <time>2013-07-05T13:44:02Z</time>
      </trkpt>
      <trkpt lat="48.77613" lon="-0.65327">
        <ele>237.2</ele>
        <time>2013-07-05T13:44:14Z</time>
      </trkpt>
      <trkpt lat="48.77568" lon="-0.65315">
        <ele>239</ele>
        <time>2013-07-05T13:44:27Z</time>
      </trkpt>
      <trkpt lat="48.77509" lon="-0.65318">
        <ele>240.4</ele>
        <time>2013-07-05T13:44:42Z</time>
      </trkpt>
      <trkpt lat="48.77464" lon="-0.65316">
        <ele>241.4</ele>
        <time>2013-07-05T13:44:54Z</time>
      </trkpt>
      <trkpt lat="48.7743" lon="-0.65325">
        <ele>243.8</ele>
        <time>2013-07-05T13:45:05Z</time>
      </trkpt>
      <trkpt lat="48.77383" lon="-0.65353">
        <ele>245.2</ele>
        <time>2013-07-05T13:45:21Z</time>
      </trkpt>
      <trkpt lat="48.77351" lon="-0.65375">
        <ele>248.6</ele>
        <time>2013-07-05T13:45:35Z</time>
      </trkpt>
      <trkpt lat="48.77323" lon="-0.65399">
        <ele>249.2</ele>
        <time>2013-07-05T13:45:48Z</time>
      </trkpt>
      <trkpt lat="48.77294" lon="-0.65425">
        <ele>251</ele>
        <time>2013-07-05T13:45:59Z</time>
      </trkpt>
      <trkpt lat="48.77262" lon="-0.65454">
        <ele>253.4</ele>
        <time>2013-07-05T13:46:11Z</time>
      </trkpt>
      <trkpt lat="48.77229" lon="-0.6549">
        <ele>254.4</ele>
        <time>2013-07-05T13:46:26Z</time>
      </trkpt>
      <trkpt lat="48.77179" lon="-0.65537">
        <ele>255.8</ele>
        <time>2013-07-05T13:46:41Z</time>
      </trkpt>
      <trkpt lat="48.77159" lon="-0.65549">
        <ele>257.8</ele>
        <time>2013-07-05T13:46:51Z</time>
      </trkpt>
      <trkpt lat="48.77156" lon="-0.6555">
        <ele>257.8</ele>
        <time>2013-07-05T13:47:10Z</time>
      </trkpt>
      <trkpt lat="48.77153" lon="-0.6555">
        <ele>257.8</ele>
        <time>2013-07-05T13:47:32Z</time>
      </trkpt>
      <trkpt lat="48.77153" lon="-0.6555">
        <ele>256.4</ele>
        <time>2013-07-05T13:47:34Z</time>
      </trkpt>
      <trkpt lat="48.77153" lon="-0.6555">
        <ele>259.6</ele>
        <time>2013-07-05T13:47:35Z</time>
      </trkpt>
      <trkpt lat="48.77152" lon="-0.65549">
        <ele>257.2</ele>
        <time>2013-07-05T13:47:36Z</time>
      </trkpt>
      <trkpt lat="48.77156" lon="-0.65551">
        <ele>257.2</ele>
        <time>2013-07-05T13:48:16Z</time>
      </trkpt>
      <trkpt lat="48.77158" lon="-0.65547">
        <ele>257.8</ele>
        <time>2013-07-05T13:48:27Z</time>
      </trkpt>
      <trkpt lat="48.77163" lon="-0.65533">
        <ele>257.2</ele>
        <time>2013-07-05T13:48:32Z</time>
      </trkpt>
      <trkpt lat="48.77156" lon="-0.65478">
        <ele>255.8</ele>
        <time>2013-07-05T13:48:43Z</time>
      </trkpt>
      <trkpt lat="48.77148" lon="-0.65424">
        <ele>254.4</ele>
        <time>2013-07-05T13:48:52Z</time>
      </trkpt>
      <trkpt lat="48.77134" lon="-0.65338">
        <ele>250</ele>
        <time>2013-07-05T13:49:04Z</time>
      </trkpt>
      <trkpt lat="48.77132" lon="-0.65324">
        <ele>250.6</ele>
        <time>2013-07-05T13:49:06Z</time>
      </trkpt>
      <trkpt lat="48.77115" lon="-0.65258">
        <ele>248.2</ele>
        <time>2013-07-05T13:49:17Z</time>
      </trkpt>
      <trkpt lat="48.77108" lon="-0.65185">
        <ele>247.2</ele>
        <time>2013-07-05T13:49:29Z</time>
      </trkpt>
      <trkpt lat="48.77108" lon="-0.6517">
        <ele>246.8</ele>
        <time>2013-07-05T13:49:31Z</time>
      </trkpt>
      <trkpt lat="48.77105" lon="-0.65112">
        <ele>246.2</ele>
        <time>2013-07-05T13:49:37Z</time>
      </trkpt>
      <trkpt lat="48.77101" lon="-0.65063">
        <ele>246.8</ele>
        <time>2013-07-05T13:49:44Z</time>
      </trkpt>
      <trkpt lat="48.77097" lon="-0.65039">
        <ele>247.6</ele>
        <time>2013-07-05T13:49:48Z</time>
      </trkpt>
      <trkpt lat="48.77065" lon="-0.65014">
        <ele>248.2</ele>
        <time>2013-07-05T13:49:58Z</time>
      </trkpt>
      <trkpt lat="48.77048" lon="-0.65004">
        <ele>249.2</ele>
        <time>2013-07-05T13:50:02Z</time>
      </trkpt>
      <trkpt lat="48.77041" lon="-0.64998">
        <ele>249.2</ele>
        <time>2013-07-05T13:50:05Z</time>
      </trkpt>
      <trkpt lat="48.77034" lon="-0.64935">
        <ele>248.2</ele>
        <time>2013-07-05T13:50:18Z</time>
      </trkpt>
      <trkpt lat="48.77045" lon="-0.64878">
        <ele>245.8</ele>
        <time>2013-07-05T13:50:30Z</time>
      </trkpt>
      <trkpt lat="48.77045" lon="-0.6487">
        <ele>246.2</ele>
        <time>2013-07-05T13:50:31Z</time>
      </trkpt>
      <trkpt lat="48.77046" lon="-0.64856">
        <ele>245.8</ele>
        <time>2013-07-05T13:50:33Z</time>
      </trkpt>
      <trkpt lat="48.77046" lon="-0.64848">
        <ele>246.2</ele>
        <time>2013-07-05T13:50:34Z</time>
      </trkpt>
      <trkpt lat="48.77078" lon="-0.64752">
        <ele>243.8</ele>
        <time>2013-07-05T13:50:48Z</time>
      </trkpt>
      <trkpt lat="48.77081" lon="-0.64745">
        <ele>243.8</ele>
        <time>2013-07-05T13:50:49Z</time>
      </trkpt>
      <trkpt lat="48.77106" lon="-0.64676">
        <ele>240.4</ele>
        <time>2013-07-05T13:50:59Z</time>
      </trkpt>
      <trkpt lat="48.77116" lon="-0.64649">
        <ele>239</ele>
        <time>2013-07-05T13:51:03Z</time>
      </trkpt>
      <trkpt lat="48.77128" lon="-0.64614">
        <ele>237.2</ele>
        <time>2013-07-05T13:51:08Z</time>
      </trkpt>
      <trkpt lat="48.77134" lon="-0.64594">
        <ele>235.6</ele>
        <time>2013-07-05T13:51:11Z</time>
      </trkpt>
      <trkpt lat="48.77155" lon="-0.64515">
        <ele>232.8</ele>
        <time>2013-07-05T13:51:22Z</time>
      </trkpt>
      <trkpt lat="48.7718" lon="-0.64409">
        <ele>230.8</ele>
        <time>2013-07-05T13:51:37Z</time>
      </trkpt>
      <trkpt lat="48.7721" lon="-0.64312">
        <ele>229</ele>
        <time>2013-07-05T13:51:51Z</time>
      </trkpt>
      <trkpt lat="48.77248" lon="-0.64187">
        <ele>228</ele>
        <time>2013-07-05T13:52:05Z</time>
      </trkpt>
      <trkpt lat="48.77254" lon="-0.64163">
        <ele>227</ele>
        <time>2013-07-05T13:52:08Z</time>
      </trkpt>
      <trkpt lat="48.77254" lon="-0.64156">
        <ele>227.4</ele>
        <time>2013-07-05T13:52:09Z</time>
      </trkpt>
      <trkpt lat="48.77253" lon="-0.64152">
        <ele>227.4</ele>
        <time>2013-07-05T13:52:10Z</time>
      </trkpt>
      <trkpt lat="48.7725" lon="-0.64149">
        <ele>227.4</ele>
        <time>2013-07-05T13:52:11Z</time>
      </trkpt>
      <trkpt lat="48.77247" lon="-0.64148">
        <ele>227</ele>
        <time>2013-07-05T13:52:12Z</time>
      </trkpt>
      <trkpt lat="48.77243" lon="-0.6415">
        <ele>228</ele>
        <time>2013-07-05T13:52:13Z</time>
      </trkpt>
      <trkpt lat="48.7724" lon="-0.64152">
        <ele>227.4</ele>
        <time>2013-07-05T13:52:14Z</time>
      </trkpt>
      <trkpt lat="48.77236" lon="-0.64156">
        <ele>227.4</ele>
        <time>2013-07-05T13:52:15Z</time>
      </trkpt>
      <trkpt lat="48.77231" lon="-0.6416">
        <ele>226.6</ele>
        <time>2013-07-05T13:52:16Z</time>
      </trkpt>
      <trkpt lat="48.77162" lon="-0.64226">
        <ele>225</ele>
        <time>2013-07-05T13:52:29Z</time>
      </trkpt>
      <trkpt lat="48.77152" lon="-0.6424">
        <ele>224.6</ele>
        <time>2013-07-05T13:52:31Z</time>
      </trkpt>
      <trkpt lat="48.77105" lon="-0.64303">
        <ele>224.2</ele>
        <time>2013-07-05T13:52:40Z</time>
      </trkpt>
      <trkpt lat="48.77099" lon="-0.64308">
        <ele>223.2</ele>
        <time>2013-07-05T13:52:41Z</time>
      </trkpt>
      <trkpt lat="48.77092" lon="-0.64311">
        <ele>223.2</ele>
        <time>2013-07-05T13:52:42Z</time>
      </trkpt>
      <trkpt lat="48.77085" lon="-0.64314">
        <ele>224.2</ele>
        <time>2013-07-05T13:52:43Z</time>
      </trkpt>
      <trkpt lat="48.77079" lon="-0.64317">
        <ele>223.6</ele>
        <time>2013-07-05T13:52:44Z</time>
      </trkpt>
      <trkpt lat="48.77065" lon="-0.6432">
        <ele>223.2</ele>
        <time>2013-07-05T13:52:46Z</time>
      </trkpt>
      <trkpt lat="48.77058" lon="-0.64321">
        <ele>223.6</ele>
        <time>2013-07-05T13:52:47Z</time>
      </trkpt>
      <trkpt lat="48.77052" lon="-0.6432">
        <ele>223.6</ele>
        <time>2013-07-05T13:52:48Z</time>
      </trkpt>
      <trkpt lat="48.77045" lon="-0.64319">
        <ele>224.2</ele>
        <time>2013-07-05T13:52:49Z</time>
      </trkpt>
      <trkpt lat="48.77039" lon="-0.64317">
        <ele>224.2</ele>
        <time>2013-07-05T13:52:50Z</time>
      </trkpt>
      <trkpt lat="48.77033" lon="-0.64315">
        <ele>224.2</ele>
        <time>2013-07-05T13:52:51Z</time>
      </trkpt>
      <trkpt lat="48.77028" lon="-0.64312">
        <ele>225</ele>
        <time>2013-07-05T13:52:52Z</time>
      </trkpt>
      <trkpt lat="48.76959" lon="-0.64266">
        <ele>228.4</ele>
        <time>2013-07-05T13:53:05Z</time>
      </trkpt>
      <trkpt lat="48.76954" lon="-0.64263">
        <ele>228.4</ele>
        <time>2013-07-05T13:53:06Z</time>
      </trkpt>
      <trkpt lat="48.76948" lon="-0.6426">
        <ele>229.4</ele>
        <time>2013-07-05T13:53:07Z</time>
      </trkpt>
      <trkpt lat="48.76938" lon="-0.64254">
        <ele>230.4</ele>
        <time>2013-07-05T13:53:09Z</time>
      </trkpt>
      <trkpt lat="48.76927" lon="-0.64249">
        <ele>231.4</ele>
        <time>2013-07-05T13:53:11Z</time>
      </trkpt>
      <trkpt lat="48.76917" lon="-0.64247">
        <ele>232.4</ele>
        <time>2013-07-05T13:53:13Z</time>
      </trkpt>
      <trkpt lat="48.76903" lon="-0.64246">
        <ele>234.2</ele>
        <time>2013-07-05T13:53:16Z</time>
      </trkpt>
      <trkpt lat="48.76899" lon="-0.64247">
        <ele>234.8</ele>
        <time>2013-07-05T13:53:17Z</time>
      </trkpt>
      <trkpt lat="48.76895" lon="-0.64249">
        <ele>235.2</ele>
        <time>2013-07-05T13:53:18Z</time>
      </trkpt>
      <trkpt lat="48.76891" lon="-0.64251">
        <ele>236.2</ele>
        <time>2013-07-05T13:53:19Z</time>
      </trkpt>
      <trkpt lat="48.76887" lon="-0.64253">
        <ele>235.6</ele>
        <time>2013-07-05T13:53:20Z</time>
      </trkpt>
      <trkpt lat="48.76883" lon="-0.64256">
        <ele>236.2</ele>
        <time>2013-07-05T13:53:21Z</time>
      </trkpt>
      <trkpt lat="48.7688" lon="-0.64259">
        <ele>236.6</ele>
        <time>2013-07-05T13:53:22Z</time>
      </trkpt>
      <trkpt lat="48.76876" lon="-0.64262">
        <ele>237.6</ele>
        <time>2013-07-05T13:53:23Z</time>
      </trkpt>
      <trkpt lat="48.76873" lon="-0.64266">
        <ele>237.6</ele>
        <time>2013-07-05T13:53:24Z</time>
      </trkpt>
      <trkpt lat="48.7687" lon="-0.64269">
        <ele>237.6</ele>
        <time>2013-07-05T13:53:25Z</time>
      </trkpt>
      <trkpt lat="48.76868" lon="-0.64271">
        <ele>238</ele>
        <time>2013-07-05T13:53:26Z</time>
      </trkpt>
      <trkpt lat="48.76868" lon="-0.64275">
        <ele>239</ele>
        <time>2013-07-05T13:53:36Z</time>
      </trkpt>
      <trkpt lat="48.76872" lon="-0.64278">
        <ele>238</ele>
        <time>2013-07-05T13:54:03Z</time>
      </trkpt>
      <trkpt lat="48.76872" lon="-0.64277">
        <ele>238</ele>
        <time>2013-07-05T13:54:09Z</time>
      </trkpt>
      <trkpt lat="48.7687" lon="-0.64272">
        <ele>238.6</ele>
        <time>2013-07-05T13:54:23Z</time>
      </trkpt>
      <trkpt lat="48.76871" lon="-0.6427">
        <ele>238.6</ele>
        <time>2013-07-05T13:54:24Z</time>
      </trkpt>
      <trkpt lat="48.76873" lon="-0.64268">
        <ele>238.6</ele>
        <time>2013-07-05T13:54:25Z</time>
      </trkpt>
      <trkpt lat="48.76883" lon="-0.64257">
        <ele>236.6</ele>
        <time>2013-07-05T13:54:29Z</time>
      </trkpt>
      <trkpt lat="48.76886" lon="-0.64255">
        <ele>236.2</ele>
        <time>2013-07-05T13:54:30Z</time>
      </trkpt>
      <trkpt lat="48.76887" lon="-0.64252">
        <ele>236.2</ele>
        <time>2013-07-05T13:54:31Z</time>
      </trkpt>
      <trkpt lat="48.76888" lon="-0.64248">
        <ele>236.6</ele>
        <time>2013-07-05T13:54:32Z</time>
      </trkpt>
      <trkpt lat="48.76887" lon="-0.64243">
        <ele>236.2</ele>
        <time>2013-07-05T13:54:33Z</time>
      </trkpt>
      <trkpt lat="48.76886" lon="-0.6424">
        <ele>236.2</ele>
        <time>2013-07-05T13:54:34Z</time>
      </trkpt>
      <trkpt lat="48.76885" lon="-0.64237">
        <ele>236.2</ele>
        <time>2013-07-05T13:54:35Z</time>
      </trkpt>
      <trkpt lat="48.76881" lon="-0.64234">
        <ele>236.2</ele>
        <time>2013-07-05T13:54:37Z</time>
      </trkpt>
      <trkpt lat="48.76842" lon="-0.6422">
        <ele>237.6</ele>
        <time>2013-07-05T13:54:49Z</time>
      </trkpt>
      <trkpt lat="48.76816" lon="-0.6421">
        <ele>239</ele>
        <time>2013-07-05T13:54:56Z</time>
      </trkpt>
      <trkpt lat="48.76779" lon="-0.64195">
        <ele>239.6</ele>
        <time>2013-07-05T13:55:04Z</time>
      </trkpt>
      <trkpt lat="48.76745" lon="-0.6418">
        <ele>236.2</ele>
        <time>2013-07-05T13:55:12Z</time>
      </trkpt>
      <trkpt lat="48.76739" lon="-0.64173">
        <ele>232.8</ele>
        <time>2013-07-05T13:55:15Z</time>
      </trkpt>
      <trkpt lat="48.76729" lon="-0.6415">
        <ele>229.4</ele>
        <time>2013-07-05T13:55:19Z</time>
      </trkpt>
      <trkpt lat="48.76713" lon="-0.64116">
        <ele>228.4</ele>
        <time>2013-07-05T13:55:25Z</time>
      </trkpt>
      <trkpt lat="48.76682" lon="-0.64085">
        <ele>231.4</ele>
        <time>2013-07-05T13:55:31Z</time>
      </trkpt>
      <trkpt lat="48.76676" lon="-0.64083">
        <ele>231.4</ele>
        <time>2013-07-05T13:55:32Z</time>
      </trkpt>
      <trkpt lat="48.7663" lon="-0.64081">
        <ele>230.8</ele>
        <time>2013-07-05T13:55:41Z</time>
      </trkpt>
      <trkpt lat="48.7662" lon="-0.64085">
        <ele>230.4</ele>
        <time>2013-07-05T13:55:43Z</time>
      </trkpt>
      <trkpt lat="48.76609" lon="-0.64089">
        <ele>229.4</ele>
        <time>2013-07-05T13:55:45Z</time>
      </trkpt>
      <trkpt lat="48.7657" lon="-0.641">
        <ele>232.8</ele>
        <time>2013-07-05T13:55:54Z</time>
      </trkpt>
      <trkpt lat="48.76562" lon="-0.64099">
        <ele>232.4</ele>
        <time>2013-07-05T13:56:02Z</time>
      </trkpt>
      <trkpt lat="48.76559" lon="-0.64097">
        <ele>232.8</ele>
        <time>2013-07-05T13:56:04Z</time>
      </trkpt>
      <trkpt lat="48.76558" lon="-0.6409">
        <ele>231.4</ele>
        <time>2013-07-05T13:56:06Z</time>
      </trkpt>
      <trkpt lat="48.76559" lon="-0.64084">
        <ele>230.8</ele>
        <time>2013-07-05T13:56:07Z</time>
      </trkpt>
      <trkpt lat="48.76561" lon="-0.64077">
        <ele>229.8</ele>
        <time>2013-07-05T13:56:08Z</time>
      </trkpt>
      <trkpt lat="48.76563" lon="-0.64069">
        <ele>230.4</ele>
        <time>2013-07-05T13:56:09Z</time>
      </trkpt>
      <trkpt lat="48.76565" lon="-0.64059">
        <ele>229</ele>
        <time>2013-07-05T13:56:10Z</time>
      </trkpt>
      <trkpt lat="48.76566" lon="-0.64049">
        <ele>229.4</ele>
        <time>2013-07-05T13:56:11Z</time>
      </trkpt>
      <trkpt lat="48.76566" lon="-0.6404">
        <ele>229</ele>
        <time>2013-07-05T13:56:12Z</time>
      </trkpt>
      <trkpt lat="48.76566" lon="-0.6403">
        <ele>229.8</ele>
        <time>2013-07-05T13:56:13Z</time>
      </trkpt>
      <trkpt lat="48.76565" lon="-0.64022">
        <ele>230.8</ele>
        <time>2013-07-05T13:56:14Z</time>
      </trkpt>
      <trkpt lat="48.76564" lon="-0.64013">
        <ele>230.4</ele>
        <time>2013-07-05T13:56:15Z</time>
      </trkpt>
      <trkpt lat="48.76556" lon="-0.63974">
        <ele>234.2</ele>
        <time>2013-07-05T13:56:20Z</time>
      </trkpt>
      <trkpt lat="48.76553" lon="-0.63968">
        <ele>234.8</ele>
        <time>2013-07-05T13:56:21Z</time>
      </trkpt>
      <trkpt lat="48.76548" lon="-0.63955">
        <ele>234.8</ele>
        <time>2013-07-05T13:56:23Z</time>
      </trkpt>
      <trkpt lat="48.76543" lon="-0.6394">
        <ele>234.8</ele>
        <time>2013-07-05T13:56:25Z</time>
      </trkpt>
      <trkpt lat="48.76537" lon="-0.63924">
        <ele>233.8</ele>
        <time>2013-07-05T13:56:27Z</time>
      </trkpt>
      <trkpt lat="48.76534" lon="-0.63916">
        <ele>233.2</ele>
        <time>2013-07-05T13:56:28Z</time>
      </trkpt>
      <trkpt lat="48.76532" lon="-0.63908">
        <ele>233.2</ele>
        <time>2013-07-05T13:56:29Z</time>
      </trkpt>
      <trkpt lat="48.76527" lon="-0.63861">
        <ele>230.4</ele>
        <time>2013-07-05T13:56:34Z</time>
      </trkpt>
      <trkpt lat="48.76523" lon="-0.63844">
        <ele>229</ele>
        <time>2013-07-05T13:56:36Z</time>
      </trkpt>
      <trkpt lat="48.76521" lon="-0.63836">
        <ele>229</ele>
        <time>2013-07-05T13:56:37Z</time>
      </trkpt>
      <trkpt lat="48.76518" lon="-0.63829">
        <ele>229.8</ele>
        <time>2013-07-05T13:56:38Z</time>
      </trkpt>
      <trkpt lat="48.76514" lon="-0.63823">
        <ele>229</ele>
        <time>2013-07-05T13:56:39Z</time>
      </trkpt>
      <trkpt lat="48.7651" lon="-0.63818">
        <ele>229</ele>
        <time>2013-07-05T13:56:40Z</time>
      </trkpt>
      <trkpt lat="48.76506" lon="-0.63814">
        <ele>229</ele>
        <time>2013-07-05T13:56:41Z</time>
      </trkpt>
      <trkpt lat="48.76501" lon="-0.6381">
        <ele>228.4</ele>
        <time>2013-07-05T13:56:42Z</time>
      </trkpt>
      <trkpt lat="48.76455" lon="-0.63752">
        <ele>231.8</ele>
        <time>2013-07-05T13:56:55Z</time>
      </trkpt>
      <trkpt lat="48.76453" lon="-0.63746">
        <ele>231.8</ele>
        <time>2013-07-05T13:56:56Z</time>
      </trkpt>
      <trkpt lat="48.76436" lon="-0.63717">
        <ele>234.2</ele>
        <time>2013-07-05T13:57:02Z</time>
      </trkpt>
      <trkpt lat="48.7643" lon="-0.63708">
        <ele>234.8</ele>
        <time>2013-07-05T13:57:04Z</time>
      </trkpt>
      <trkpt lat="48.7642" lon="-0.63695">
        <ele>236.2</ele>
        <time>2013-07-05T13:57:07Z</time>
      </trkpt>
      <trkpt lat="48.76398" lon="-0.63675">
        <ele>237.6</ele>
        <time>2013-07-05T13:57:13Z</time>
      </trkpt>
      <trkpt lat="48.76352" lon="-0.63658">
        <ele>241</ele>
        <time>2013-07-05T13:57:25Z</time>
      </trkpt>
      <trkpt lat="48.76298" lon="-0.63632">
        <ele>243.8</ele>
        <time>2013-07-05T13:57:40Z</time>
      </trkpt>
      <trkpt lat="48.76278" lon="-0.6358">
        <ele>245.8</ele>
        <time>2013-07-05T13:57:52Z</time>
      </trkpt>
      <trkpt lat="48.76283" lon="-0.63513">
        <ele>245.8</ele>
        <time>2013-07-05T13:58:02Z</time>
      </trkpt>
      <trkpt lat="48.76282" lon="-0.63507">
        <ele>245.8</ele>
        <time>2013-07-05T13:58:03Z</time>
      </trkpt>
      <trkpt lat="48.7628" lon="-0.635">
        <ele>245.2</ele>
        <time>2013-07-05T13:58:04Z</time>
      </trkpt>
      <trkpt lat="48.76277" lon="-0.63494">
        <ele>245.8</ele>
        <time>2013-07-05T13:58:05Z</time>
      </trkpt>
      <trkpt lat="48.76274" lon="-0.63487">
        <ele>245.2</ele>
        <time>2013-07-05T13:58:06Z</time>
      </trkpt>
      <trkpt lat="48.76271" lon="-0.63481">
        <ele>245.2</ele>
        <time>2013-07-05T13:58:07Z</time>
      </trkpt>
      <trkpt lat="48.76267" lon="-0.63475">
        <ele>245.2</ele>
        <time>2013-07-05T13:58:08Z</time>
      </trkpt>
      <trkpt lat="48.76263" lon="-0.6347">
        <ele>244.4</ele>
        <time>2013-07-05T13:58:09Z</time>
      </trkpt>
      <trkpt lat="48.76259" lon="-0.63465">
        <ele>244.4</ele>
        <time>2013-07-05T13:58:10Z</time>
      </trkpt>
      <trkpt lat="48.76253" lon="-0.6346">
        <ele>244.4</ele>
        <time>2013-07-05T13:58:11Z</time>
      </trkpt>
      <trkpt lat="48.76249" lon="-0.63456">
        <ele>244.4</ele>
        <time>2013-07-05T13:58:12Z</time>
      </trkpt>
      <trkpt lat="48.76244" lon="-0.63451">
        <ele>243.8</ele>
        <time>2013-07-05T13:58:13Z</time>
      </trkpt>
      <trkpt lat="48.7624" lon="-0.63445">
        <ele>244.8</ele>
        <time>2013-07-05T13:58:14Z</time>
      </trkpt>
      <trkpt lat="48.76236" lon="-0.63439">
        <ele>244.4</ele>
        <time>2013-07-05T13:58:15Z</time>
      </trkpt>
      <trkpt lat="48.76232" lon="-0.63432">
        <ele>243.8</ele>
        <time>2013-07-05T13:58:16Z</time>
      </trkpt>
      <trkpt lat="48.76225" lon="-0.63418">
        <ele>243.4</ele>
        <time>2013-07-05T13:58:18Z</time>
      </trkpt>
      <trkpt lat="48.76199" lon="-0.63307">
        <ele>242.8</ele>
        <time>2013-07-05T13:58:33Z</time>
      </trkpt>
      <trkpt lat="48.7618" lon="-0.63178">
        <ele>245.8</ele>
        <time>2013-07-05T13:58:52Z</time>
      </trkpt>
      <trkpt lat="48.76182" lon="-0.63123">
        <ele>246.8</ele>
        <time>2013-07-05T13:58:58Z</time>
      </trkpt>
      <trkpt lat="48.76204" lon="-0.63011">
        <ele>250</ele>
        <time>2013-07-05T13:59:14Z</time>
      </trkpt>
      <trkpt lat="48.76209" lon="-0.62978">
        <ele>251</ele>
        <time>2013-07-05T13:59:19Z</time>
      </trkpt>
      <trkpt lat="48.7621" lon="-0.62972">
        <ele>250.6</ele>
        <time>2013-07-05T13:59:20Z</time>
      </trkpt>
      <trkpt lat="48.76219" lon="-0.62906">
        <ele>253</ele>
        <time>2013-07-05T13:59:31Z</time>
      </trkpt>
      <trkpt lat="48.76228" lon="-0.6283">
        <ele>252.4</ele>
        <time>2013-07-05T13:59:42Z</time>
      </trkpt>
      <trkpt lat="48.76247" lon="-0.62716">
        <ele>251.6</ele>
        <time>2013-07-05T13:59:58Z</time>
      </trkpt>
      <trkpt lat="48.76248" lon="-0.62707">
        <ele>251</ele>
        <time>2013-07-05T13:59:59Z</time>
      </trkpt>
      <trkpt lat="48.76248" lon="-0.62698">
        <ele>250</ele>
        <time>2013-07-05T14:00:00Z</time>
      </trkpt>
      <trkpt lat="48.76249" lon="-0.62688">
        <ele>250</ele>
        <time>2013-07-05T14:00:01Z</time>
      </trkpt>
      <trkpt lat="48.7625" lon="-0.62669">
        <ele>248.6</ele>
        <time>2013-07-05T14:00:03Z</time>
      </trkpt>
      <trkpt lat="48.7625" lon="-0.62624">
        <ele>245.2</ele>
        <time>2013-07-05T14:00:07Z</time>
      </trkpt>
      <trkpt lat="48.76248" lon="-0.62594">
        <ele>243.4</ele>
        <time>2013-07-05T14:00:09Z</time>
      </trkpt>
      <trkpt lat="48.76238" lon="-0.62526">
        <ele>240</ele>
        <time>2013-07-05T14:00:13Z</time>
      </trkpt>
      <trkpt lat="48.76237" lon="-0.62491">
        <ele>238.6</ele>
        <time>2013-07-05T14:00:15Z</time>
      </trkpt>
      <trkpt lat="48.76238" lon="-0.62474">
        <ele>238</ele>
        <time>2013-07-05T14:00:16Z</time>
      </trkpt>
      <trkpt lat="48.76242" lon="-0.62457">
        <ele>237.6</ele>
        <time>2013-07-05T14:00:17Z</time>
      </trkpt>
      <trkpt lat="48.76246" lon="-0.62442">
        <ele>237.2</ele>
        <time>2013-07-05T14:00:18Z</time>
      </trkpt>
      <trkpt lat="48.76252" lon="-0.62428">
        <ele>236.6</ele>
        <time>2013-07-05T14:00:19Z</time>
      </trkpt>
      <trkpt lat="48.76259" lon="-0.62415">
        <ele>235.6</ele>
        <time>2013-07-05T14:00:20Z</time>
      </trkpt>
      <trkpt lat="48.76266" lon="-0.62404">
        <ele>236.2</ele>
        <time>2013-07-05T14:00:21Z</time>
      </trkpt>
      <trkpt lat="48.76338" lon="-0.62292">
        <ele>232.8</ele>
        <time>2013-07-05T14:00:32Z</time>
      </trkpt>
      <trkpt lat="48.76345" lon="-0.62282">
        <ele>232.8</ele>
        <time>2013-07-05T14:00:33Z</time>
      </trkpt>
      <trkpt lat="48.76397" lon="-0.62173">
        <ele>229.4</ele>
        <time>2013-07-05T14:00:43Z</time>
      </trkpt>
      <trkpt lat="48.76411" lon="-0.6214">
        <ele>227.4</ele>
        <time>2013-07-05T14:00:46Z</time>
      </trkpt>
      <trkpt lat="48.76473" lon="-0.62036">
        <ele>225</ele>
        <time>2013-07-05T14:00:58Z</time>
      </trkpt>
      <trkpt lat="48.7652" lon="-0.61991">
        <ele>225</ele>
        <time>2013-07-05T14:01:09Z</time>
      </trkpt>
      <trkpt lat="48.76567" lon="-0.61961">
        <ele>225</ele>
        <time>2013-07-05T14:01:21Z</time>
      </trkpt>
      <trkpt lat="48.76591" lon="-0.61944">
        <ele>225</ele>
        <time>2013-07-05T14:01:27Z</time>
      </trkpt>
      <trkpt lat="48.76596" lon="-0.61941">
        <ele>225</ele>
        <time>2013-07-05T14:01:28Z</time>
      </trkpt>
      <trkpt lat="48.766" lon="-0.61938">
        <ele>225.6</ele>
        <time>2013-07-05T14:01:29Z</time>
      </trkpt>
      <trkpt lat="48.76603" lon="-0.61934">
        <ele>224.6</ele>
        <time>2013-07-05T14:01:30Z</time>
      </trkpt>
      <trkpt lat="48.76607" lon="-0.6193">
        <ele>225</ele>
        <time>2013-07-05T14:01:31Z</time>
      </trkpt>
      <trkpt lat="48.76611" lon="-0.61925">
        <ele>225.6</ele>
        <time>2013-07-05T14:01:32Z</time>
      </trkpt>
      <trkpt lat="48.76615" lon="-0.61917">
        <ele>225</ele>
        <time>2013-07-05T14:01:33Z</time>
      </trkpt>
      <trkpt lat="48.76619" lon="-0.61908">
        <ele>225</ele>
        <time>2013-07-05T14:01:34Z</time>
      </trkpt>
      <trkpt lat="48.76622" lon="-0.61899">
        <ele>224.6</ele>
        <time>2013-07-05T14:01:35Z</time>
      </trkpt>
      <trkpt lat="48.76625" lon="-0.61889">
        <ele>224.2</ele>
        <time>2013-07-05T14:01:36Z</time>
      </trkpt>
      <trkpt lat="48.76628" lon="-0.6188">
        <ele>224.6</ele>
        <time>2013-07-05T14:01:37Z</time>
      </trkpt>
      <trkpt lat="48.76631" lon="-0.6187">
        <ele>223.6</ele>
        <time>2013-07-05T14:01:38Z</time>
      </trkpt>
      <trkpt lat="48.76657" lon="-0.61781">
        <ele>222.6</ele>
        <time>2013-07-05T14:01:49Z</time>
      </trkpt>
      <trkpt lat="48.76659" lon="-0.61774">
        <ele>223.2</ele>
        <time>2013-07-05T14:01:50Z</time>
      </trkpt>
      <trkpt lat="48.76687" lon="-0.61689">
        <ele>223.2</ele>
        <time>2013-07-05T14:02:02Z</time>
      </trkpt>
      <trkpt lat="48.76689" lon="-0.61682">
        <ele>223.6</ele>
        <time>2013-07-05T14:02:03Z</time>
      </trkpt>
      <trkpt lat="48.76703" lon="-0.61629">
        <ele>223.2</ele>
        <time>2013-07-05T14:02:11Z</time>
      </trkpt>
      <trkpt lat="48.76704" lon="-0.61623">
        <ele>223.6</ele>
        <time>2013-07-05T14:02:12Z</time>
      </trkpt>
      <trkpt lat="48.76705" lon="-0.61617">
        <ele>224.2</ele>
        <time>2013-07-05T14:02:13Z</time>
      </trkpt>
      <trkpt lat="48.76706" lon="-0.61612">
        <ele>223.6</ele>
        <time>2013-07-05T14:02:14Z</time>
      </trkpt>
      <trkpt lat="48.76708" lon="-0.61606">
        <ele>223.6</ele>
        <time>2013-07-05T14:02:15Z</time>
      </trkpt>
      <trkpt lat="48.76731" lon="-0.6154">
        <ele>224.6</ele>
        <time>2013-07-05T14:02:27Z</time>
      </trkpt>
      <trkpt lat="48.76754" lon="-0.61477">
        <ele>225.6</ele>
        <time>2013-07-05T14:02:39Z</time>
      </trkpt>
      <trkpt lat="48.76773" lon="-0.61408">
        <ele>225</ele>
        <time>2013-07-05T14:02:52Z</time>
      </trkpt>
      <trkpt lat="48.76788" lon="-0.61341">
        <ele>224.2</ele>
        <time>2013-07-05T14:03:03Z</time>
      </trkpt>
      <trkpt lat="48.76809" lon="-0.61289">
        <ele>224.2</ele>
        <time>2013-07-05T14:03:12Z</time>
      </trkpt>
      <trkpt lat="48.7682" lon="-0.61247">
        <ele>222.6</ele>
        <time>2013-07-05T14:03:18Z</time>
      </trkpt>
      <trkpt lat="48.76822" lon="-0.6124">
        <ele>223.2</ele>
        <time>2013-07-05T14:03:19Z</time>
      </trkpt>
      <trkpt lat="48.76833" lon="-0.61162">
        <ele>221.8</ele>
        <time>2013-07-05T14:03:30Z</time>
      </trkpt>
      <trkpt lat="48.7684" lon="-0.61108">
        <ele>219.8</ele>
        <time>2013-07-05T14:03:37Z</time>
      </trkpt>
      <trkpt lat="48.76842" lon="-0.61099">
        <ele>219.4</ele>
        <time>2013-07-05T14:03:38Z</time>
      </trkpt>
      <trkpt lat="48.76845" lon="-0.61081">
        <ele>218.4</ele>
        <time>2013-07-05T14:03:40Z</time>
      </trkpt>
      <trkpt lat="48.76853" lon="-0.60966">
        <ele>215</ele>
        <time>2013-07-05T14:03:50Z</time>
      </trkpt>
      <trkpt lat="48.76853" lon="-0.60954">
        <ele>214.6</ele>
        <time>2013-07-05T14:03:51Z</time>
      </trkpt>
      <trkpt lat="48.76859" lon="-0.60808">
        <ele>212.2</ele>
        <time>2013-07-05T14:04:06Z</time>
      </trkpt>
      <trkpt lat="48.7686" lon="-0.60784">
        <ele>212.2</ele>
        <time>2013-07-05T14:04:09Z</time>
      </trkpt>
      <trkpt lat="48.76867" lon="-0.60703">
        <ele>211.6</ele>
        <time>2013-07-05T14:04:22Z</time>
      </trkpt>
      <trkpt lat="48.76864" lon="-0.607">
        <ele>211.6</ele>
        <time>2013-07-05T14:04:23Z</time>
      </trkpt>
      <trkpt lat="48.76861" lon="-0.60699">
        <ele>211.2</ele>
        <time>2013-07-05T14:04:24Z</time>
      </trkpt>
      <trkpt lat="48.76857" lon="-0.60698">
        <ele>211.2</ele>
        <time>2013-07-05T14:04:25Z</time>
      </trkpt>
      <trkpt lat="48.76852" lon="-0.60698">
        <ele>211.6</ele>
        <time>2013-07-05T14:04:26Z</time>
      </trkpt>
      <trkpt lat="48.76848" lon="-0.60698">
        <ele>210.6</ele>
        <time>2013-07-05T14:04:27Z</time>
      </trkpt>
      <trkpt lat="48.76843" lon="-0.60697">
        <ele>210.2</ele>
        <time>2013-07-05T14:04:28Z</time>
      </trkpt>
      <trkpt lat="48.76838" lon="-0.60696">
        <ele>210.2</ele>
        <time>2013-07-05T14:04:29Z</time>
      </trkpt>
      <trkpt lat="48.76833" lon="-0.60695">
        <ele>209.8</ele>
        <time>2013-07-05T14:04:30Z</time>
      </trkpt>
      <trkpt lat="48.76799" lon="-0.60689">
        <ele>208.8</ele>
        <time>2013-07-05T14:04:37Z</time>
      </trkpt>
      <trkpt lat="48.76794" lon="-0.60689">
        <ele>208.8</ele>
        <time>2013-07-05T14:04:38Z</time>
      </trkpt>
      <trkpt lat="48.76711" lon="-0.60671">
        <ele>206.4</ele>
        <time>2013-07-05T14:04:53Z</time>
      </trkpt>
      <trkpt lat="48.76629" lon="-0.60654">
        <ele>204</ele>
        <time>2013-07-05T14:05:08Z</time>
      </trkpt>
      <trkpt lat="48.76562" lon="-0.6063">
        <ele>203.4</ele>
        <time>2013-07-05T14:05:23Z</time>
      </trkpt>
      <trkpt lat="48.76507" lon="-0.60578">
        <ele>203.4</ele>
        <time>2013-07-05T14:05:39Z</time>
      </trkpt>
      <trkpt lat="48.76458" lon="-0.60524">
        <ele>204.4</ele>
        <time>2013-07-05T14:05:56Z</time>
      </trkpt>
      <trkpt lat="48.76423" lon="-0.60518">
        <ele>203.4</ele>
        <time>2013-07-05T14:06:06Z</time>
      </trkpt>
      <trkpt lat="48.76405" lon="-0.60512">
        <ele>202.4</ele>
        <time>2013-07-05T14:06:10Z</time>
      </trkpt>
      <trkpt lat="48.764" lon="-0.60509">
        <ele>201</ele>
        <time>2013-07-05T14:06:11Z</time>
      </trkpt>
      <trkpt lat="48.76394" lon="-0.60505">
        <ele>200.6</ele>
        <time>2013-07-05T14:06:12Z</time>
      </trkpt>
      <trkpt lat="48.76389" lon="-0.605">
        <ele>200</ele>
        <time>2013-07-05T14:06:13Z</time>
      </trkpt>
      <trkpt lat="48.76385" lon="-0.60494">
        <ele>199.2</ele>
        <time>2013-07-05T14:06:14Z</time>
      </trkpt>
      <trkpt lat="48.7638" lon="-0.60488">
        <ele>199.2</ele>
        <time>2013-07-05T14:06:15Z</time>
      </trkpt>
      <trkpt lat="48.76326" lon="-0.60424">
        <ele>197.6</ele>
        <time>2013-07-05T14:06:26Z</time>
      </trkpt>
      <trkpt lat="48.76268" lon="-0.60387">
        <ele>199.6</ele>
        <time>2013-07-05T14:06:38Z</time>
      </trkpt>
      <trkpt lat="48.76255" lon="-0.60375">
        <ele>199.6</ele>
        <time>2013-07-05T14:06:41Z</time>
      </trkpt>
      <trkpt lat="48.76252" lon="-0.60371">
        <ele>200</ele>
        <time>2013-07-05T14:06:42Z</time>
      </trkpt>
      <trkpt lat="48.76248" lon="-0.60365">
        <ele>200.6</ele>
        <time>2013-07-05T14:06:43Z</time>
      </trkpt>
      <trkpt lat="48.76245" lon="-0.6036">
        <ele>200.6</ele>
        <time>2013-07-05T14:06:44Z</time>
      </trkpt>
      <trkpt lat="48.76242" lon="-0.60354">
        <ele>201</ele>
        <time>2013-07-05T14:06:45Z</time>
      </trkpt>
      <trkpt lat="48.7624" lon="-0.60348">
        <ele>201</ele>
        <time>2013-07-05T14:06:46Z</time>
      </trkpt>
      <trkpt lat="48.76239" lon="-0.60341">
        <ele>201</ele>
        <time>2013-07-05T14:06:47Z</time>
      </trkpt>
      <trkpt lat="48.76232" lon="-0.60307">
        <ele>202</ele>
        <time>2013-07-05T14:06:52Z</time>
      </trkpt>
      <trkpt lat="48.76232" lon="-0.60287">
        <ele>204</ele>
        <time>2013-07-05T14:06:55Z</time>
      </trkpt>
      <trkpt lat="48.76237" lon="-0.60225">
        <ele>207.4</ele>
        <time>2013-07-05T14:07:05Z</time>
      </trkpt>
      <trkpt lat="48.76244" lon="-0.60158">
        <ele>210.6</ele>
        <time>2013-07-05T14:07:19Z</time>
      </trkpt>
      <trkpt lat="48.76252" lon="-0.60096">
        <ele>214</ele>
        <time>2013-07-05T14:07:30Z</time>
      </trkpt>
      <trkpt lat="48.76255" lon="-0.60072">
        <ele>215.4</ele>
        <time>2013-07-05T14:07:34Z</time>
      </trkpt>
      <trkpt lat="48.76263" lon="-0.60022">
        <ele>218.4</ele>
        <time>2013-07-05T14:07:41Z</time>
      </trkpt>
      <trkpt lat="48.76264" lon="-0.60015">
        <ele>218.4</ele>
        <time>2013-07-05T14:07:42Z</time>
      </trkpt>
      <trkpt lat="48.76264" lon="-0.60008">
        <ele>218.4</ele>
        <time>2013-07-05T14:07:43Z</time>
      </trkpt>
      <trkpt lat="48.76265" lon="-0.60001">
        <ele>218.4</ele>
        <time>2013-07-05T14:07:44Z</time>
      </trkpt>
      <trkpt lat="48.7627" lon="-0.59941">
        <ele>219.4</ele>
        <time>2013-07-05T14:07:52Z</time>
      </trkpt>
      <trkpt lat="48.76276" lon="-0.59912">
        <ele>219.4</ele>
        <time>2013-07-05T14:07:56Z</time>
      </trkpt>
      <trkpt lat="48.76279" lon="-0.59867">
        <ele>218.8</ele>
        <time>2013-07-05T14:08:02Z</time>
      </trkpt>
      <trkpt lat="48.76279" lon="-0.5986">
        <ele>218.4</ele>
        <time>2013-07-05T14:08:03Z</time>
      </trkpt>
      <trkpt lat="48.7628" lon="-0.59853">
        <ele>217.8</ele>
        <time>2013-07-05T14:08:04Z</time>
      </trkpt>
      <trkpt lat="48.76279" lon="-0.59849">
        <ele>218.4</ele>
        <time>2013-07-05T14:08:05Z</time>
      </trkpt>
      <trkpt lat="48.76279" lon="-0.59847">
        <ele>218.4</ele>
        <time>2013-07-05T14:08:06Z</time>
      </trkpt>
      <trkpt lat="48.76278" lon="-0.59846">
        <ele>218.8</ele>
        <time>2013-07-05T14:08:07Z</time>
      </trkpt>
      <trkpt lat="48.76277" lon="-0.59843">
        <ele>218.8</ele>
        <time>2013-07-05T14:08:08Z</time>
      </trkpt>
      <trkpt lat="48.76276" lon="-0.59841">
        <ele>219.4</ele>
        <time>2013-07-05T14:08:09Z</time>
      </trkpt>
      <trkpt lat="48.76275" lon="-0.59837">
        <ele>218.8</ele>
        <time>2013-07-05T14:08:10Z</time>
      </trkpt>
      <trkpt lat="48.76274" lon="-0.59833">
        <ele>218.4</ele>
        <time>2013-07-05T14:08:11Z</time>
      </trkpt>
      <trkpt lat="48.76275" lon="-0.59826">
        <ele>218.4</ele>
        <time>2013-07-05T14:08:12Z</time>
      </trkpt>
      <trkpt lat="48.76275" lon="-0.5982">
        <ele>217.8</ele>
        <time>2013-07-05T14:08:13Z</time>
      </trkpt>
      <trkpt lat="48.76276" lon="-0.59813">
        <ele>217.8</ele>
        <time>2013-07-05T14:08:14Z</time>
      </trkpt>
      <trkpt lat="48.76275" lon="-0.59805">
        <ele>217.8</ele>
        <time>2013-07-05T14:08:15Z</time>
      </trkpt>
      <trkpt lat="48.76273" lon="-0.59797">
        <ele>217.4</ele>
        <time>2013-07-05T14:08:16Z</time>
      </trkpt>
      <trkpt lat="48.76271" lon="-0.59789">
        <ele>216.4</ele>
        <time>2013-07-05T14:08:17Z</time>
      </trkpt>
      <trkpt lat="48.76268" lon="-0.59781">
        <ele>216</ele>
        <time>2013-07-05T14:08:18Z</time>
      </trkpt>
      <trkpt lat="48.76264" lon="-0.59772">
        <ele>215.4</ele>
        <time>2013-07-05T14:08:19Z</time>
      </trkpt>
      <trkpt lat="48.76262" lon="-0.59761">
        <ele>215</ele>
        <time>2013-07-05T14:08:20Z</time>
      </trkpt>
      <trkpt lat="48.76254" lon="-0.59727">
        <ele>212.6</ele>
        <time>2013-07-05T14:08:23Z</time>
      </trkpt>
      <trkpt lat="48.7625" lon="-0.59716">
        <ele>211.6</ele>
        <time>2013-07-05T14:08:24Z</time>
      </trkpt>
      <trkpt lat="48.76244" lon="-0.59705">
        <ele>210.6</ele>
        <time>2013-07-05T14:08:25Z</time>
      </trkpt>
      <trkpt lat="48.76238" lon="-0.59695">
        <ele>210.6</ele>
        <time>2013-07-05T14:08:26Z</time>
      </trkpt>
      <trkpt lat="48.76213" lon="-0.59666">
        <ele>206.8</ele>
        <time>2013-07-05T14:08:29Z</time>
      </trkpt>
      <trkpt lat="48.76206" lon="-0.59656">
        <ele>206.8</ele>
        <time>2013-07-05T14:08:30Z</time>
      </trkpt>
      <trkpt lat="48.76186" lon="-0.59621">
        <ele>204.4</ele>
        <time>2013-07-05T14:08:33Z</time>
      </trkpt>
      <trkpt lat="48.76172" lon="-0.59586">
        <ele>205.8</ele>
        <time>2013-07-05T14:08:36Z</time>
      </trkpt>
      <trkpt lat="48.76133" lon="-0.59473">
        <ele>209.2</ele>
        <time>2013-07-05T14:08:48Z</time>
      </trkpt>
      <trkpt lat="48.76082" lon="-0.59369">
        <ele>210.6</ele>
        <time>2013-07-05T14:09:02Z</time>
      </trkpt>
      <trkpt lat="48.76033" lon="-0.59258">
        <ele>207.8</ele>
        <time>2013-07-05T14:09:17Z</time>
      </trkpt>
      <trkpt lat="48.76016" lon="-0.59221">
        <ele>206.4</ele>
        <time>2013-07-05T14:09:22Z</time>
      </trkpt>
      <trkpt lat="48.75963" lon="-0.59136">
        <ele>205</ele>
        <time>2013-07-05T14:09:35Z</time>
      </trkpt>
      <trkpt lat="48.75918" lon="-0.59061">
        <ele>205.8</ele>
        <time>2013-07-05T14:09:46Z</time>
      </trkpt>
      <trkpt lat="48.75915" lon="-0.59054">
        <ele>205.4</ele>
        <time>2013-07-05T14:09:47Z</time>
      </trkpt>
      <trkpt lat="48.75915" lon="-0.59046">
        <ele>205.4</ele>
        <time>2013-07-05T14:09:48Z</time>
      </trkpt>
      <trkpt lat="48.75916" lon="-0.59037">
        <ele>205.8</ele>
        <time>2013-07-05T14:09:49Z</time>
      </trkpt>
      <trkpt lat="48.75918" lon="-0.59029">
        <ele>205</ele>
        <time>2013-07-05T14:09:50Z</time>
      </trkpt>
      <trkpt lat="48.75922" lon="-0.59023">
        <ele>205.4</ele>
        <time>2013-07-05T14:09:51Z</time>
      </trkpt>
      <trkpt lat="48.75927" lon="-0.59019">
        <ele>205.4</ele>
        <time>2013-07-05T14:09:52Z</time>
      </trkpt>
      <trkpt lat="48.75932" lon="-0.59014">
        <ele>205</ele>
        <time>2013-07-05T14:09:53Z</time>
      </trkpt>
      <trkpt lat="48.7595" lon="-0.58994">
        <ele>204.4</ele>
        <time>2013-07-05T14:09:57Z</time>
      </trkpt>
      <trkpt lat="48.75991" lon="-0.58923">
        <ele>203</ele>
        <time>2013-07-05T14:10:08Z</time>
      </trkpt>
      <trkpt lat="48.75992" lon="-0.58915">
        <ele>202.4</ele>
        <time>2013-07-05T14:10:09Z</time>
      </trkpt>
      <trkpt lat="48.75993" lon="-0.58907">
        <ele>202.4</ele>
        <time>2013-07-05T14:10:10Z</time>
      </trkpt>
      <trkpt lat="48.75992" lon="-0.58899">
        <ele>203</ele>
        <time>2013-07-05T14:10:11Z</time>
      </trkpt>
      <trkpt lat="48.75989" lon="-0.58891">
        <ele>202.4</ele>
        <time>2013-07-05T14:10:12Z</time>
      </trkpt>
      <trkpt lat="48.75984" lon="-0.58885">
        <ele>202.4</ele>
        <time>2013-07-05T14:10:13Z</time>
      </trkpt>
      <trkpt lat="48.75967" lon="-0.58857">
        <ele>203.4</ele>
        <time>2013-07-05T14:10:17Z</time>
      </trkpt>
      <trkpt lat="48.75966" lon="-0.58848">
        <ele>204.4</ele>
        <time>2013-07-05T14:10:18Z</time>
      </trkpt>
      <trkpt lat="48.75967" lon="-0.58839">
        <ele>204.4</ele>
        <time>2013-07-05T14:10:19Z</time>
      </trkpt>
      <trkpt lat="48.7597" lon="-0.58831">
        <ele>204.4</ele>
        <time>2013-07-05T14:10:20Z</time>
      </trkpt>
      <trkpt lat="48.75974" lon="-0.58825">
        <ele>205</ele>
        <time>2013-07-05T14:10:21Z</time>
      </trkpt>
      <trkpt lat="48.75979" lon="-0.5882">
        <ele>205</ele>
        <time>2013-07-05T14:10:22Z</time>
      </trkpt>
      <trkpt lat="48.75984" lon="-0.58816">
        <ele>205.4</ele>
        <time>2013-07-05T14:10:23Z</time>
      </trkpt>
      <trkpt lat="48.76049" lon="-0.58746">
        <ele>205</ele>
        <time>2013-07-05T14:10:35Z</time>
      </trkpt>
      <trkpt lat="48.76052" lon="-0.5874">
        <ele>205.4</ele>
        <time>2013-07-05T14:10:36Z</time>
      </trkpt>
      <trkpt lat="48.76055" lon="-0.58733">
        <ele>205</ele>
        <time>2013-07-05T14:10:37Z</time>
      </trkpt>
      <trkpt lat="48.76057" lon="-0.58726">
        <ele>205</ele>
        <time>2013-07-05T14:10:38Z</time>
      </trkpt>
      <trkpt lat="48.76059" lon="-0.58719">
        <ele>205.8</ele>
        <time>2013-07-05T14:10:39Z</time>
      </trkpt>
      <trkpt lat="48.76062" lon="-0.58706">
        <ele>205.4</ele>
        <time>2013-07-05T14:10:41Z</time>
      </trkpt>
      <trkpt lat="48.76066" lon="-0.58648">
        <ele>205.4</ele>
        <time>2013-07-05T14:10:51Z</time>
      </trkpt>
      <trkpt lat="48.76063" lon="-0.58645">
        <ele>205.4</ele>
        <time>2013-07-05T14:10:52Z</time>
      </trkpt>
      <trkpt lat="48.76059" lon="-0.58643">
        <ele>205.4</ele>
        <time>2013-07-05T14:10:53Z</time>
      </trkpt>
      <trkpt lat="48.76054" lon="-0.58642">
        <ele>205</ele>
        <time>2013-07-05T14:10:54Z</time>
      </trkpt>
      <trkpt lat="48.76048" lon="-0.58641">
        <ele>205</ele>
        <time>2013-07-05T14:10:55Z</time>
      </trkpt>
      <trkpt lat="48.76042" lon="-0.5864">
        <ele>205</ele>
        <time>2013-07-05T14:10:56Z</time>
      </trkpt>
      <trkpt lat="48.75949" lon="-0.5862">
        <ele>203</ele>
        <time>2013-07-05T14:11:10Z</time>
      </trkpt>
      <trkpt lat="48.75845" lon="-0.58592">
        <ele>201.6</ele>
        <time>2013-07-05T14:11:27Z</time>
      </trkpt>
      <trkpt lat="48.75817" lon="-0.58581">
        <ele>200.6</ele>
        <time>2013-07-05T14:11:37Z</time>
      </trkpt>
      <trkpt lat="48.75816" lon="-0.58583">
        <ele>201</ele>
        <time>2013-07-05T14:11:40Z</time>
      </trkpt>
      <trkpt lat="48.75814" lon="-0.58582">
        <ele>201</ele>
        <time>2013-07-05T14:11:41Z</time>
      </trkpt>
      <trkpt lat="48.75811" lon="-0.58581">
        <ele>201</ele>
        <time>2013-07-05T14:11:42Z</time>
      </trkpt>
      <trkpt lat="48.75808" lon="-0.58579">
        <ele>200</ele>
        <time>2013-07-05T14:11:43Z</time>
      </trkpt>
      <trkpt lat="48.75803" lon="-0.58577">
        <ele>199.6</ele>
        <time>2013-07-05T14:11:44Z</time>
      </trkpt>
      <trkpt lat="48.75745" lon="-0.58559">
        <ele>199.6</ele>
        <time>2013-07-05T14:11:54Z</time>
      </trkpt>
      <trkpt lat="48.7574" lon="-0.58557">
        <ele>200</ele>
        <time>2013-07-05T14:11:55Z</time>
      </trkpt>
      <trkpt lat="48.75735" lon="-0.58556">
        <ele>200</ele>
        <time>2013-07-05T14:11:56Z</time>
      </trkpt>
      <trkpt lat="48.75715" lon="-0.5855">
        <ele>198.6</ele>
        <time>2013-07-05T14:12:00Z</time>
      </trkpt>
      <trkpt lat="48.75679" lon="-0.5853">
        <ele>194.4</ele>
        <time>2013-07-05T14:12:06Z</time>
      </trkpt>
      <trkpt lat="48.75673" lon="-0.58526">
        <ele>193.8</ele>
        <time>2013-07-05T14:12:07Z</time>
      </trkpt>
      <trkpt lat="48.75668" lon="-0.58523">
        <ele>193.8</ele>
        <time>2013-07-05T14:12:08Z</time>
      </trkpt>
      <trkpt lat="48.75665" lon="-0.5852">
        <ele>194.8</ele>
        <time>2013-07-05T14:12:09Z</time>
      </trkpt>
      <trkpt lat="48.75663" lon="-0.58518">
        <ele>194.8</ele>
        <time>2013-07-05T14:12:10Z</time>
      </trkpt>
      <trkpt lat="48.75661" lon="-0.58515">
        <ele>194.8</ele>
        <time>2013-07-05T14:12:11Z</time>
      </trkpt>
      <trkpt lat="48.75659" lon="-0.58514">
        <ele>195.2</ele>
        <time>2013-07-05T14:12:12Z</time>
      </trkpt>
      <trkpt lat="48.75657" lon="-0.58514">
        <ele>194.8</ele>
        <time>2013-07-05T14:12:13Z</time>
      </trkpt>
      <trkpt lat="48.75654" lon="-0.58514">
        <ele>194.8</ele>
        <time>2013-07-05T14:12:14Z</time>
      </trkpt>
      <trkpt lat="48.75638" lon="-0.58511">
        <ele>193.8</ele>
        <time>2013-07-05T14:12:17Z</time>
      </trkpt>
      <trkpt lat="48.75595" lon="-0.58499">
        <ele>196.2</ele>
        <time>2013-07-05T14:12:24Z</time>
      </trkpt>
      <trkpt lat="48.75577" lon="-0.58496">
        <ele>198.2</ele>
        <time>2013-07-05T14:12:27Z</time>
      </trkpt>
      <trkpt lat="48.75565" lon="-0.58492">
        <ele>198.6</ele>
        <time>2013-07-05T14:12:29Z</time>
      </trkpt>
      <trkpt lat="48.75559" lon="-0.58488">
        <ele>199.2</ele>
        <time>2013-07-05T14:12:30Z</time>
      </trkpt>
      <trkpt lat="48.75554" lon="-0.58482">
        <ele>199.2</ele>
        <time>2013-07-05T14:12:31Z</time>
      </trkpt>
      <trkpt lat="48.75545" lon="-0.58468">
        <ele>199.6</ele>
        <time>2013-07-05T14:12:33Z</time>
      </trkpt>
      <trkpt lat="48.7554" lon="-0.58463">
        <ele>199.6</ele>
        <time>2013-07-05T14:12:34Z</time>
      </trkpt>
      <trkpt lat="48.75501" lon="-0.58418">
        <ele>202.4</ele>
        <time>2013-07-05T14:12:42Z</time>
      </trkpt>
      <trkpt lat="48.75448" lon="-0.58328">
        <ele>205</ele>
        <time>2013-07-05T14:12:56Z</time>
      </trkpt>
      <trkpt lat="48.75442" lon="-0.58316">
        <ele>204.4</ele>
        <time>2013-07-05T14:12:58Z</time>
      </trkpt>
      <trkpt lat="48.75401" lon="-0.58238">
        <ele>204.4</ele>
        <time>2013-07-05T14:13:14Z</time>
      </trkpt>
      <trkpt lat="48.75387" lon="-0.58214">
        <ele>204.4</ele>
        <time>2013-07-05T14:13:20Z</time>
      </trkpt>
      <trkpt lat="48.75363" lon="-0.58163">
        <ele>203.4</ele>
        <time>2013-07-05T14:13:32Z</time>
      </trkpt>
      <trkpt lat="48.75365" lon="-0.58157">
        <ele>203</ele>
        <time>2013-07-05T14:13:33Z</time>
      </trkpt>
      <trkpt lat="48.75374" lon="-0.58147">
        <ele>202</ele>
        <time>2013-07-05T14:13:36Z</time>
      </trkpt>
      <trkpt lat="48.75408" lon="-0.58113">
        <ele>200.6</ele>
        <time>2013-07-05T14:13:48Z</time>
      </trkpt>
      <trkpt lat="48.75435" lon="-0.58091">
        <ele>196.8</ele>
        <time>2013-07-05T14:13:54Z</time>
      </trkpt>
      <trkpt lat="48.75466" lon="-0.58064">
        <ele>194.4</ele>
        <time>2013-07-05T14:14:01Z</time>
      </trkpt>
      <trkpt lat="48.75467" lon="-0.58056">
        <ele>194.8</ele>
        <time>2013-07-05T14:14:04Z</time>
      </trkpt>
      <trkpt lat="48.75466" lon="-0.58054">
        <ele>194.4</ele>
        <time>2013-07-05T14:14:05Z</time>
      </trkpt>
      <trkpt lat="48.75461" lon="-0.58053">
        <ele>194.8</ele>
        <time>2013-07-05T14:14:06Z</time>
      </trkpt>
      <trkpt lat="48.75457" lon="-0.58051">
        <ele>194.4</ele>
        <time>2013-07-05T14:14:07Z</time>
      </trkpt>
      <trkpt lat="48.75411" lon="-0.57993">
        <ele>195.8</ele>
        <time>2013-07-05T14:14:18Z</time>
      </trkpt>
      <trkpt lat="48.75377" lon="-0.57937">
        <ele>196.8</ele>
        <time>2013-07-05T14:14:26Z</time>
      </trkpt>
      <trkpt lat="48.75373" lon="-0.57931">
        <ele>196.8</ele>
        <time>2013-07-05T14:14:27Z</time>
      </trkpt>
      <trkpt lat="48.75364" lon="-0.57922">
        <ele>197.2</ele>
        <time>2013-07-05T14:14:29Z</time>
      </trkpt>
      <trkpt lat="48.75359" lon="-0.57918">
        <ele>197.2</ele>
        <time>2013-07-05T14:14:30Z</time>
      </trkpt>
      <trkpt lat="48.75354" lon="-0.57915">
        <ele>197.2</ele>
        <time>2013-07-05T14:14:31Z</time>
      </trkpt>
      <trkpt lat="48.75332" lon="-0.57898">
        <ele>198.6</ele>
        <time>2013-07-05T14:14:37Z</time>
      </trkpt>
      <trkpt lat="48.75332" lon="-0.57894">
        <ele>198.2</ele>
        <time>2013-07-05T14:14:38Z</time>
      </trkpt>
      <trkpt lat="48.75334" lon="-0.5789">
        <ele>197.2</ele>
        <time>2013-07-05T14:14:39Z</time>
      </trkpt>
      <trkpt lat="48.75337" lon="-0.57884">
        <ele>197.2</ele>
        <time>2013-07-05T14:14:40Z</time>
      </trkpt>
      <trkpt lat="48.75341" lon="-0.57878">
        <ele>196.2</ele>
        <time>2013-07-05T14:14:41Z</time>
      </trkpt>
      <trkpt lat="48.75343" lon="-0.57873">
        <ele>195.2</ele>
        <time>2013-07-05T14:14:42Z</time>
      </trkpt>
      <trkpt lat="48.75343" lon="-0.57847">
        <ele>194.4</ele>
        <time>2013-07-05T14:14:48Z</time>
      </trkpt>
      <trkpt lat="48.75345" lon="-0.57842">
        <ele>193.8</ele>
        <time>2013-07-05T14:14:49Z</time>
      </trkpt>
      <trkpt lat="48.75347" lon="-0.57837">
        <ele>193.8</ele>
        <time>2013-07-05T14:14:50Z</time>
      </trkpt>
      <trkpt lat="48.7535" lon="-0.57833">
        <ele>193.8</ele>
        <time>2013-07-05T14:14:51Z</time>
      </trkpt>
      <trkpt lat="48.75352" lon="-0.5783">
        <ele>193.8</ele>
        <time>2013-07-05T14:14:52Z</time>
      </trkpt>
      <trkpt lat="48.75364" lon="-0.57784">
        <ele>194.4</ele>
        <time>2013-07-05T14:15:02Z</time>
      </trkpt>
      <trkpt lat="48.75364" lon="-0.57777">
        <ele>193.8</ele>
        <time>2013-07-05T14:15:03Z</time>
      </trkpt>
      <trkpt lat="48.75359" lon="-0.5775">
        <ele>194.4</ele>
        <time>2013-07-05T14:15:08Z</time>
      </trkpt>
      <trkpt lat="48.75301" lon="-0.57709">
        <ele>193.8</ele>
        <time>2013-07-05T14:15:19Z</time>
      </trkpt>
      <trkpt lat="48.75297" lon="-0.57701">
        <ele>193.8</ele>
        <time>2013-07-05T14:15:20Z</time>
      </trkpt>
      <trkpt lat="48.75294" lon="-0.57692">
        <ele>193.8</ele>
        <time>2013-07-05T14:15:21Z</time>
      </trkpt>
      <trkpt lat="48.75293" lon="-0.57681">
        <ele>193.8</ele>
        <time>2013-07-05T14:15:22Z</time>
      </trkpt>
      <trkpt lat="48.75292" lon="-0.57671">
        <ele>193.8</ele>
        <time>2013-07-05T14:15:23Z</time>
      </trkpt>
      <trkpt lat="48.75294" lon="-0.5766">
        <ele>193.4</ele>
        <time>2013-07-05T14:15:24Z</time>
      </trkpt>
      <trkpt lat="48.75296" lon="-0.5765">
        <ele>193.8</ele>
        <time>2013-07-05T14:15:25Z</time>
      </trkpt>
      <trkpt lat="48.753" lon="-0.57641">
        <ele>192.8</ele>
        <time>2013-07-05T14:15:26Z</time>
      </trkpt>
      <trkpt lat="48.75304" lon="-0.57633">
        <ele>193.8</ele>
        <time>2013-07-05T14:15:27Z</time>
      </trkpt>
      <trkpt lat="48.75309" lon="-0.57615">
        <ele>193.4</ele>
        <time>2013-07-05T14:15:29Z</time>
      </trkpt>
      <trkpt lat="48.7531" lon="-0.57607">
        <ele>193.4</ele>
        <time>2013-07-05T14:15:30Z</time>
      </trkpt>
      <trkpt lat="48.75308" lon="-0.576">
        <ele>193.4</ele>
        <time>2013-07-05T14:15:31Z</time>
      </trkpt>
      <trkpt lat="48.75304" lon="-0.57594">
        <ele>193.8</ele>
        <time>2013-07-05T14:15:32Z</time>
      </trkpt>
      <trkpt lat="48.75298" lon="-0.5759">
        <ele>193.8</ele>
        <time>2013-07-05T14:15:33Z</time>
      </trkpt>
      <trkpt lat="48.75291" lon="-0.57586">
        <ele>193.8</ele>
        <time>2013-07-05T14:15:34Z</time>
      </trkpt>
      <trkpt lat="48.75273" lon="-0.57572">
        <ele>194.4</ele>
        <time>2013-07-05T14:15:37Z</time>
      </trkpt>
      <trkpt lat="48.75268" lon="-0.57565">
        <ele>194.4</ele>
        <time>2013-07-05T14:15:38Z</time>
      </trkpt>
      <trkpt lat="48.75264" lon="-0.57558">
        <ele>193.8</ele>
        <time>2013-07-05T14:15:39Z</time>
      </trkpt>
      <trkpt lat="48.75259" lon="-0.57557">
        <ele>193.8</ele>
        <time>2013-07-05T14:15:40Z</time>
      </trkpt>
      <trkpt lat="48.75254" lon="-0.57559">
        <ele>193.8</ele>
        <time>2013-07-05T14:15:41Z</time>
      </trkpt>
      <trkpt lat="48.7525" lon="-0.5756">
        <ele>194.4</ele>
        <time>2013-07-05T14:15:42Z</time>
      </trkpt>
      <trkpt lat="48.75246" lon="-0.57558">
        <ele>194.8</ele>
        <time>2013-07-05T14:15:43Z</time>
      </trkpt>
      <trkpt lat="48.75244" lon="-0.57555">
        <ele>194.8</ele>
        <time>2013-07-05T14:15:44Z</time>
      </trkpt>
      <trkpt lat="48.75241" lon="-0.57553">
        <ele>195.2</ele>
        <time>2013-07-05T14:15:45Z</time>
      </trkpt>
      <trkpt lat="48.75238" lon="-0.57552">
        <ele>195.2</ele>
        <time>2013-07-05T14:15:46Z</time>
      </trkpt>
      <trkpt lat="48.75235" lon="-0.57552">
        <ele>195.2</ele>
        <time>2013-07-05T14:15:47Z</time>
      </trkpt>
      <trkpt lat="48.75198" lon="-0.57541">
        <ele>194.8</ele>
        <time>2013-07-05T14:15:58Z</time>
      </trkpt>
      <trkpt lat="48.75155" lon="-0.57528">
        <ele>194.4</ele>
        <time>2013-07-05T14:16:05Z</time>
      </trkpt>
      <trkpt lat="48.75144" lon="-0.57526">
        <ele>194.8</ele>
        <time>2013-07-05T14:16:07Z</time>
      </trkpt>
      <trkpt lat="48.75139" lon="-0.57524">
        <ele>195.2</ele>
        <time>2013-07-05T14:16:08Z</time>
      </trkpt>
      <trkpt lat="48.75074" lon="-0.57504">
        <ele>196.8</ele>
        <time>2013-07-05T14:16:19Z</time>
      </trkpt>
      <trkpt lat="48.75041" lon="-0.57492">
        <ele>197.6</ele>
        <time>2013-07-05T14:16:26Z</time>
      </trkpt>
      <trkpt lat="48.75037" lon="-0.57488">
        <ele>197.2</ele>
        <time>2013-07-05T14:16:27Z</time>
      </trkpt>
      <trkpt lat="48.75036" lon="-0.57483">
        <ele>198.2</ele>
        <time>2013-07-05T14:16:28Z</time>
      </trkpt>
      <trkpt lat="48.75035" lon="-0.57477">
        <ele>198.2</ele>
        <time>2013-07-05T14:16:29Z</time>
      </trkpt>
      <trkpt lat="48.75035" lon="-0.57471">
        <ele>197.6</ele>
        <time>2013-07-05T14:16:30Z</time>
      </trkpt>
      <trkpt lat="48.75036" lon="-0.57465">
        <ele>197.6</ele>
        <time>2013-07-05T14:16:31Z</time>
      </trkpt>
      <trkpt lat="48.7505" lon="-0.57415">
        <ele>197.6</ele>
        <time>2013-07-05T14:16:42Z</time>
      </trkpt>
      <trkpt lat="48.75049" lon="-0.57412">
        <ele>197.6</ele>
        <time>2013-07-05T14:16:43Z</time>
      </trkpt>
      <trkpt lat="48.75048" lon="-0.57411">
        <ele>198.2</ele>
        <time>2013-07-05T14:16:44Z</time>
      </trkpt>
      <trkpt lat="48.75044" lon="-0.57408">
        <ele>197.2</ele>
        <time>2013-07-05T14:16:48Z</time>
      </trkpt>
      <trkpt lat="48.75044" lon="-0.57405">
        <ele>196.8</ele>
        <time>2013-07-05T14:16:49Z</time>
      </trkpt>
      <trkpt lat="48.75043" lon="-0.57402">
        <ele>196.8</ele>
        <time>2013-07-05T14:16:50Z</time>
      </trkpt>
      <trkpt lat="48.75042" lon="-0.57399">
        <ele>197.2</ele>
        <time>2013-07-05T14:16:51Z</time>
      </trkpt>
      <trkpt lat="48.7504" lon="-0.57395">
        <ele>197.2</ele>
        <time>2013-07-05T14:16:52Z</time>
      </trkpt>
      <trkpt lat="48.75033" lon="-0.57388">
        <ele>196.2</ele>
        <time>2013-07-05T14:16:54Z</time>
      </trkpt>
      <trkpt lat="48.74998" lon="-0.57358">
        <ele>196.2</ele>
        <time>2013-07-05T14:17:01Z</time>
      </trkpt>
      <trkpt lat="48.74973" lon="-0.57348">
        <ele>197.2</ele>
        <time>2013-07-05T14:17:09Z</time>
      </trkpt>
      <trkpt lat="48.74972" lon="-0.5735">
        <ele>197.2</ele>
        <time>2013-07-05T14:17:13Z</time>
      </trkpt>
      <trkpt lat="48.74969" lon="-0.57352">
        <ele>197.2</ele>
        <time>2013-07-05T14:17:15Z</time>
      </trkpt>
      <trkpt lat="48.74968" lon="-0.57356">
        <ele>197.2</ele>
        <time>2013-07-05T14:17:16Z</time>
      </trkpt>
      <trkpt lat="48.74965" lon="-0.57365">
        <ele>196.8</ele>
        <time>2013-07-05T14:17:18Z</time>
      </trkpt>
      <trkpt lat="48.74963" lon="-0.57371">
        <ele>195.8</ele>
        <time>2013-07-05T14:17:19Z</time>
      </trkpt>
      <trkpt lat="48.74953" lon="-0.57396">
        <ele>196.2</ele>
        <time>2013-07-05T14:17:24Z</time>
      </trkpt>
      <trkpt lat="48.7495" lon="-0.57399">
        <ele>195.8</ele>
        <time>2013-07-05T14:17:25Z</time>
      </trkpt>
      <trkpt lat="48.74947" lon="-0.574">
        <ele>196.2</ele>
        <time>2013-07-05T14:17:26Z</time>
      </trkpt>
      <trkpt lat="48.74943" lon="-0.57398">
        <ele>196.2</ele>
        <time>2013-07-05T14:17:27Z</time>
      </trkpt>
      <trkpt lat="48.7494" lon="-0.57396">
        <ele>196.2</ele>
        <time>2013-07-05T14:17:28Z</time>
      </trkpt>
      <trkpt lat="48.74936" lon="-0.57392">
        <ele>195.8</ele>
        <time>2013-07-05T14:17:29Z</time>
      </trkpt>
      <trkpt lat="48.74861" lon="-0.5732">
        <ele>196.8</ele>
        <time>2013-07-05T14:17:44Z</time>
      </trkpt>
      <trkpt lat="48.74789" lon="-0.57256">
        <ele>197.6</ele>
        <time>2013-07-05T14:17:59Z</time>
      </trkpt>
      <trkpt lat="48.74765" lon="-0.5724">
        <ele>198.6</ele>
        <time>2013-07-05T14:18:08Z</time>
      </trkpt>
      <trkpt lat="48.74765" lon="-0.57237">
        <ele>198.6</ele>
        <time>2013-07-05T14:18:09Z</time>
      </trkpt>
      <trkpt lat="48.74766" lon="-0.57232">
        <ele>198.6</ele>
        <time>2013-07-05T14:18:10Z</time>
      </trkpt>
      <trkpt lat="48.74768" lon="-0.57227">
        <ele>198.6</ele>
        <time>2013-07-05T14:18:11Z</time>
      </trkpt>
      <trkpt lat="48.74771" lon="-0.57221">
        <ele>198.2</ele>
        <time>2013-07-05T14:18:12Z</time>
      </trkpt>
      <trkpt lat="48.74786" lon="-0.57203">
        <ele>198.6</ele>
        <time>2013-07-05T14:18:21Z</time>
      </trkpt>
      <trkpt lat="48.7478" lon="-0.57205">
        <ele>199.2</ele>
        <time>2013-07-05T14:18:36Z</time>
      </trkpt>
      <trkpt lat="48.74774" lon="-0.57197">
        <ele>198.2</ele>
        <time>2013-07-05T14:18:53Z</time>
      </trkpt>
      <trkpt lat="48.74781" lon="-0.57198">
        <ele>196.8</ele>
        <time>2013-07-05T14:19:10Z</time>
      </trkpt>
      <trkpt lat="48.74791" lon="-0.57215">
        <ele>196.2</ele>
        <time>2013-07-05T14:19:30Z</time>
      </trkpt>
      <trkpt lat="48.74785" lon="-0.57227">
        <ele>197.2</ele>
        <time>2013-07-05T14:19:58Z</time>
      </trkpt>
      <trkpt lat="48.74787" lon="-0.57219">
        <ele>196.8</ele>
        <time>2013-07-05T14:20:27Z</time>
      </trkpt>
      <trkpt lat="48.74795" lon="-0.57224">
        <ele>196.8</ele>
        <time>2013-07-05T14:21:07Z</time>
      </trkpt>
      <trkpt lat="48.74793" lon="-0.57226">
        <ele>196.8</ele>
        <time>2013-07-05T14:21:52Z</time>
      </trkpt>
      <trkpt lat="48.74795" lon="-0.57228">
        <ele>194.4</ele>
        <time>2013-07-05T14:22:20Z</time>
      </trkpt>
      <trkpt lat="48.74795" lon="-0.57228">
        <ele>194.4</ele>
        <time>2013-07-05T14:22:21Z</time>
      </trkpt>
    </trkseg>
  </trk>
</gpx>